[[{"header":{"parameterUnit":"m.s-1","parameterCategory":1,"la1":30.6,"la2":29.2853,"lo1":-89.7004,"lo2":-87.6739,"dx":0.0162,"dy":0.0183,"nx":112,"ny":82,"refTime":"2023-02-02T06:00:00:Z","depth":0,"parameterNumber":2,"parameterNumberName":"U-component_of_WINDS"},"data":[0.0,0.0,0.0,0.0,0.0,0.0,0.0,0.0,0.0,0.0,0.0,0.0,0.0,0.0,0.0,0.0,0.0,0.0,0.0,0.0,0.0,0.0,0.0,0.0,0.0,0.0,0.0,0.0,0.0,0.0,0.0,0.0,0.0,0.0,0.0,0.0,0.0,0.0,0.0,0.0,0.0,0.0,0.0,0.0,0.0,0.0,0.0,0.0,0.0,0.0,0.0,0.0,0.0,0.0,0.0,0.0,0.0,0.0,0.0,0.0,0.0,0.0,0.0,0.0,0.0,0.0,0.0,0.0,0.0,0.0,0.0,0.0,0.0,0.0,0.0,0.0,0.0,0.0,0.0,0.0,0.0,0.0,0.0,0.0,0.0,0.0,0.0,0.0,0.0,0.0,-2.2441,-2.2031,-2.1602,-2.1288,-2.1288,-2.0996,-2.0801,-2.0801,0.0,0.0,0.0,0.0,0.0,0.0,0.0,0.0,0.0,0.0,0.0,0.0,0.0,0.0,0.0,0.0,0.0,0.0,0.0,0.0,0.0,0.0,0.0,0.0,0.0,0.0,0.0,0.0,0.0,0.0,0.0,0.0,0.0,0.0,0.0,0.0,0.0,0.0,0.0,0.0,0.0,0.0,0.0,0.0,0.0,0.0,0.0,0.0,0.0,0.0,0.0,0.0,0.0,0.0,0.0,0.0,0.0,0.0,0.0,0.0,0.0,0.0,0.0,0.0,0.0,0.0,0.0,0.0,0.0,0.0,0.0,0.0,0.0,0.0,0.0,0.0,0.0,0.0,0.0,0.0,0.0,0.0,0.0,0.0,0.0,0.0,0.0,0.0,0.0,0.0,0.0,0.0,0.0,0.0,0.0,0.0,0.0,0.0,0.0,0.0,0.0,0.0,0.0,0.0,-2.2847,-2.2461,-2.2031,-2.1777,-2.1777,-2.1719,-2.168,-2.168,0.0,0.0,0.0,0.0,0.0,0.0,0.0,0.0,0.0,0.0,0.0,0.0,0.0,0.0,0.0,0.0,0.0,0.0,0.0,0.0,0.0,0.0,0.0,0.0,0.0,0.0,0.0,0.0,0.0,0.0,0.0,0.0,0.0,0.0,0.0,0.0,0.0,0.0,0.0,0.0,0.0,0.0,0.0,0.0,0.0,0.0,0.0,0.0,0.0,0.0,0.0,0.0,0.0,0.0,0.0,0.0,0.0,0.0,0.0,0.0,0.0,0.0,0.0,0.0,0.0,0.0,0.0,0.0,0.0,0.0,0.0,0.0,0.0,0.0,0.0,0.0,0.0,0.0,0.0,0.0,0.0,0.0,0.0,0.0,0.0,0.0,0.0,0.0,0.0,0.0,0.0,0.0,0.0,0.0,0.0,0.0,0.0,0.0,0.0,0.0,0.0,0.0,0.0,-2.2984,-2.3023,-2.2828,-2.248,-2.2227,-2.2227,-2.2012,-2.1894,-2.1894,-2.1544,0.0,0.0,0.0,0.0,0.0,0.0,0.0,0.0,0.0,0.0,0.0,0.0,0.0,0.0,0.0,0.0,0.0,0.0,0.0,0.0,0.0,0.0,0.0,0.0,0.0,0.0,0.0,0.0,0.0,0.0,0.0,0.0,0.0,0.0,0.0,0.0,0.0,0.0,0.0,0.0,0.0,0.0,0.0,0.0,0.0,0.0,0.0,0.0,0.0,0.0,0.0,0.0,0.0,0.0,0.0,0.0,0.0,0.0,0.0,0.0,0.0,0.0,0.0,0.0,0.0,0.0,0.0,0.0,0.0,0.0,0.0,0.0,0.0,0.0,0.0,0.0,0.0,0.0,0.0,0.0,0.0,0.0,0.0,0.0,0.0,0.0,0.0,0.0,0.0,0.0,0.0,0.0,0.0,0.0,0.0,0.0,0.0,0.0,0.0,0.0,0.0,0.0,-2.3101,-2.3101,-2.3101,-2.2808,-2.2656,-2.2656,-2.2321,-2.2146,-2.2187,-2.2146,0.0,0.0,0.0,0.0,0.0,0.0,0.0,0.0,0.0,0.0,0.0,0.0,0.0,0.0,0.0,0.0,0.0,0.0,0.0,0.0,0.0,0.0,0.0,0.0,0.0,0.0,0.0,0.0,0.0,0.0,0.0,0.0,0.0,0.0,0.0,0.0,0.0,0.0,0.0,0.0,0.0,0.0,0.0,0.0,0.0,0.0,0.0,0.0,0.0,0.0,0.0,0.0,0.0,0.0,0.0,0.0,0.0,0.0,0.0,0.0,0.0,0.0,0.0,0.0,0.0,0.0,0.0,0.0,0.0,0.0,0.0,0.0,0.0,0.0,0.0,0.0,0.0,0.0,0.0,0.0,0.0,0.0,0.0,0.0,0.0,0.0,0.0,0.0,0.0,0.0,0.0,0.0,0.0,0.0,0.0,0.0,0.0,0.0,0.0,0.0,0.0,0.0,-2.3101,-2.3101,-2.3101,-2.3062,-2.3042,-2.3042,-2.2848,-2.2804,-2.3003,-2.2848,0.0,0.0,0.0,0.0,0.0,0.0,0.0,0.0,0.0,0.0,0.0,0.0,0.0,0.0,0.0,0.0,0.0,0.0,0.0,0.0,0.0,0.0,0.0,0.0,0.0,0.0,0.0,0.0,0.0,0.0,0.0,0.0,0.0,0.0,0.0,0.0,0.0,0.0,0.0,0.0,0.0,0.0,0.0,0.0,0.0,0.0,0.0,0.0,0.0,0.0,0.0,0.0,0.0,0.0,0.0,0.0,0.0,0.0,0.0,0.0,0.0,0.0,0.0,0.0,0.0,0.0,0.0,0.0,0.0,0.0,0.0,0.0,0.0,0.0,0.0,0.0,0.0,0.0,0.0,0.0,0.0,0.0,0.0,0.0,0.0,0.0,0.0,0.0,0.0,0.0,0.0,0.0,0.0,0.0,0.0,0.0,0.0,0.0,0.0,0.0,0.0,0.0,-2.3101,-2.3101,-2.3101,-2.3101,-2.3101,-2.3101,-2.3013,-2.3013,-2.3101,0.0,0.0,0.0,0.0,0.0,0.0,0.0,0.0,0.0,0.0,0.0,0.0,0.0,0.0,0.0,0.0,0.0,0.0,0.0,0.0,0.0,0.0,0.0,0.0,0.0,0.0,0.0,0.0,0.0,0.0,0.0,0.0,0.0,0.0,0.0,0.0,0.0,0.0,0.0,0.0,0.0,0.0,0.0,0.0,0.0,0.0,0.0,0.0,0.0,0.0,0.0,0.0,0.0,0.0,0.0,0.0,0.0,0.0,0.0,0.0,0.0,0.0,0.0,0.0,0.0,0.0,0.0,0.0,0.0,0.0,0.0,0.0,0.0,0.0,0.0,0.0,0.0,0.0,0.0,0.0,0.0,0.0,0.0,0.0,0.0,0.0,0.0,0.0,0.0,0.0,0.0,0.0,0.0,0.0,0.0,0.0,0.0,0.0,0.0,0.0,0.0,0.0,-2.3101,-2.3101,-2.3101,-2.3101,-2.3101,-2.3101,-2.3101,-2.3057,-2.3013,-2.3101,0.0,0.0,0.0,0.0,0.0,0.0,0.0,0.0,0.0,0.0,0.0,0.0,0.0,0.0,0.0,0.0,0.0,0.0,0.0,0.0,0.0,0.0,0.0,0.0,0.0,0.0,0.0,0.0,0.0,0.0,0.0,0.0,0.0,0.0,0.0,0.0,0.0,0.0,0.0,0.0,0.0,0.0,0.0,0.0,0.0,0.0,0.0,0.0,0.0,0.0,0.0,0.0,0.0,0.0,0.0,0.0,0.0,0.0,0.0,0.0,0.0,0.0,0.0,0.0,0.0,0.0,0.0,0.0,0.0,0.0,0.0,0.0,0.0,0.0,0.0,0.0,0.0,0.0,0.0,0.0,0.0,0.0,0.0,0.0,0.0,0.0,0.0,0.0,0.0,0.0,0.0,0.0,0.0,0.0,0.0,0.0,0.0,0.0,0.0,0.0,0.0,0.0,-2.3101,-2.3101,-2.3101,-2.3101,-2.3101,-2.3101,-2.3101,-2.2925,-2.2882,0.0,0.0,0.0,0.0,0.0,0.0,0.0,0.0,0.0,0.0,0.0,0.0,0.0,0.0,0.0,0.0,0.0,0.0,0.0,0.0,0.0,0.0,0.0,0.0,0.0,0.0,0.0,0.0,0.0,0.0,0.0,0.0,0.0,0.0,0.0,0.0,0.0,0.0,0.0,0.0,0.0,0.0,0.0,0.0,0.0,0.0,0.0,0.0,0.0,0.0,0.0,0.0,0.0,0.0,0.0,0.0,0.0,0.0,0.0,0.0,0.0,0.0,0.0,0.0,0.0,0.0,0.0,0.0,0.0,0.0,0.0,0.0,0.0,0.0,0.0,0.0,0.0,0.0,0.0,0.0,0.0,0.0,0.0,0.0,0.0,0.0,0.0,0.0,0.0,0.0,0.0,0.0,0.0,0.0,0.0,0.0,0.0,0.0,0.0,0.0,0.0,0.0,0.0,-2.2994,-2.2511,-2.2378,-2.3057,-2.3101,-2.3101,-2.3101,-2.3057,-2.3057,-2.3101,0.0,0.0,0.0,0.0,0.0,0.0,0.0,0.0,0.0,0.0,0.0,0.0,0.0,0.0,0.0,0.0,0.0,0.0,0.0,0.0,0.0,0.0,0.0,0.0,0.0,0.0,0.0,0.0,0.0,0.0,0.0,0.0,0.0,0.0,0.0,0.0,0.0,0.0,0.0,0.0,0.0,0.0,0.0,0.0,0.0,0.0,0.0,0.0,0.0,0.0,0.0,0.0,0.0,0.0,0.0,0.0,0.0,0.0,0.0,0.0,0.0,0.0,0.0,0.0,0.0,0.0,0.0,0.0,0.0,0.0,0.0,0.0,0.0,0.0,0.0,0.0,0.0,0.0,0.0,0.0,0.0,0.0,0.0,0.0,0.0,0.0,0.0,0.0,0.0,0.0,0.0,0.0,0.0,0.0,0.0,0.0,0.0,0.0,0.0,0.0,0.0,0.0,-2.3057,-2.2599,-2.2467,-2.3057,-2.3101,-2.3101,-2.3101,-2.3101,-2.295,-2.2555,0.0,0.0,0.0,0.0,0.0,0.0,0.0,0.0,0.0,0.0,0.0,0.0,0.0,0.0,0.0,0.0,0.0,0.0,0.0,0.0,0.0,0.0,0.0,0.0,0.0,0.0,0.0,0.0,0.0,0.0,0.0,0.0,0.0,0.0,0.0,0.0,0.0,0.0,0.0,0.0,0.0,0.0,0.0,0.0,0.0,0.0,0.0,0.0,0.0,0.0,0.0,0.0,0.0,0.0,0.0,0.0,0.0,0.0,0.0,0.0,0.0,0.0,0.0,0.0,0.0,0.0,0.0,0.0,0.0,0.0,0.0,0.0,0.0,0.0,0.0,0.0,0.0,0.0,0.0,0.0,0.0,0.0,0.0,0.0,0.0,0.0,0.0,0.0,0.0,0.0,0.0,0.0,0.0,0.0,0.0,0.0,0.0,0.0,0.0,0.0,0.0,0.0,-2.2969,-2.2818,-2.2731,-2.2818,-2.2906,-2.295,-2.295,-2.3057,-2.2731,-2.1872,0.0,0.0,0.0,0.0,0.0,0.0,0.0,0.0,0.0,0.0,0.0,0.0,0.0,0.0,0.0,0.0,0.0,0.0,0.0,0.0,0.0,0.0,0.0,0.0,0.0,0.0,0.0,0.0,0.0,0.0,0.0,0.0,0.0,0.0,0.0,0.0,0.0,0.0,0.0,0.0,0.0,0.0,0.0,0.0,0.0,0.0,0.0,0.0,0.0,0.0,0.0,0.0,0.0,0.0,0.0,0.0,0.0,0.0,0.0,0.0,-2.6352,-2.6448,0.0,0.0,0.0,0.0,0.0,0.0,0.0,0.0,0.0,0.0,0.0,0.0,0.0,0.0,0.0,0.0,0.0,0.0,0.0,0.0,0.0,0.0,0.0,0.0,0.0,0.0,0.0,0.0,0.0,0.0,0.0,0.0,0.0,0.0,0.0,0.0,0.0,0.0,0.0,0.0,-2.1954,-2.0647,-2.0014,-2.0737,-2.1516,-2.2006,-2.2006,-2.2687,-2.2994,-2.2818,-2.229,0.0,0.0,0.0,0.0,0.0,0.0,0.0,0.0,0.0,0.0,0.0,0.0,0.0,0.0,0.0,0.0,0.0,0.0,0.0,0.0,0.0,0.0,0.0,0.0,0.0,0.0,0.0,0.0,0.0,0.0,0.0,0.0,0.0,0.0,0.0,0.0,0.0,0.0,0.0,0.0,0.0,0.0,0.0,0.0,0.0,0.0,0.0,0.0,0.0,0.0,0.0,0.0,0.0,0.0,0.0,0.0,0.0,0.0,0.0,-2.6207,-2.6159,0.0,0.0,0.0,0.0,0.0,0.0,0.0,0.0,0.0,0.0,0.0,0.0,0.0,0.0,0.0,0.0,0.0,0.0,0.0,0.0,0.0,0.0,0.0,0.0,0.0,0.0,0.0,0.0,0.0,0.0,0.0,0.0,0.0,0.0,0.0,0.0,0.0,0.0,0.0,0.0,-2.2674,-2.1853,-2.1129,-2.0934,-2.1382,-2.1516,-2.1006,-2.1409,-2.1498,-2.1051,-2.1006,0.0,0.0,0.0,0.0,0.0,0.0,0.0,0.0,0.0,0.0,0.0,0.0,0.0,0.0,0.0,0.0,0.0,0.0,0.0,0.0,0.0,0.0,0.0,0.0,0.0,0.0,0.0,0.0,0.0,0.0,0.0,0.0,0.0,0.0,0.0,0.0,0.0,0.0,0.0,0.0,0.0,0.0,0.0,0.0,0.0,0.0,0.0,0.0,0.0,0.0,0.0,0.0,0.0,-2.688,-2.6757,-2.6661,-2.6448,-2.6255,-2.6042,-2.6042,-2.5917,-2.5693,-2.5693,0.0,0.0,0.0,0.0,0.0,0.0,0.0,0.0,0.0,0.0,0.0,0.0,0.0,0.0,0.0,0.0,0.0,0.0,0.0,0.0,0.0,0.0,-2.2735,-2.3583,-2.2484,-2.1641,-2.3185,0.0,0.0,0.0,0.0,0.0,0.0,0.0,0.0,0.0,0.0,0.0,-2.3153,-2.296,-2.2419,-2.1255,-2.1265,-2.1038,-2.02,-2.0292,-2.0046,-1.9152,-1.9704,-1.9762,0.0,0.0,0.0,0.0,0.0,0.0,0.0,0.0,0.0,0.0,0.0,0.0,0.0,0.0,0.0,0.0,0.0,0.0,0.0,0.0,0.0,0.0,0.0,0.0,0.0,0.0,0.0,0.0,0.0,0.0,0.0,0.0,-2.7309,-2.7309,0.0,0.0,0.0,0.0,0.0,0.0,0.0,0.0,0.0,0.0,0.0,0.0,0.0,-2.69,-2.69,-2.6661,-2.6448,-2.6235,-2.6235,-2.6062,-2.5888,-2.5839,-2.5791,-2.5742,-2.5742,0.0,-2.5693,-2.5693,0.0,0.0,0.0,0.0,0.0,0.0,0.0,0.0,0.0,0.0,0.0,0.0,0.0,0.0,0.0,0.0,0.0,0.0,0.0,0.0,0.0,0.0,-2.2534,-2.2685,-2.2484,-2.208,-2.1438,-2.2785,-2.4097,-2.4097,-2.4097,-2.4146,0.0,0.0,0.0,0.0,0.0,0.0,-2.049,-1.9587,-1.8938,-1.8746,-1.9508,-1.999,-1.9846,-2.0614,-2.0891,-2.0475,-1.9805,-1.9611,-1.9985,-1.933,0.0,0.0,0.0,0.0,0.0,0.0,0.0,0.0,0.0,0.0,0.0,0.0,0.0,0.0,0.0,0.0,0.0,0.0,0.0,0.0,0.0,0.0,0.0,0.0,0.0,0.0,0.0,0.0,0.0,-2.7309,-2.7309,-2.7309,-2.7309,-2.7309,0.0,0.0,0.0,0.0,0.0,0.0,0.0,0.0,0.0,-2.688,-2.6736,-2.6709,-2.6709,-2.64,-2.6304,-2.6304,-2.6187,-2.6062,-2.5917,-2.5791,-2.5693,-2.5693,-2.5693,-2.5693,-2.5693,-2.5693,-2.5693,-2.5693,0.0,0.0,0.0,0.0,-2.5693,-2.5693,-2.5693,-2.5693,-2.5693,-2.5693,0.0,0.0,0.0,0.0,0.0,0.0,0.0,-2.4922,-2.4412,-2.385,-2.3384,-2.3384,-2.2935,-2.2534,-2.2685,-2.2935,-2.3035,-2.2433,-2.2785,-2.3384,-2.3998,-2.3583,0.0,0.0,0.0,-2.2895,-2.1973,-2.1485,-2.0687,-1.929,-1.9552,-1.9552,-1.903,-1.9308,-1.9489,-1.9381,-1.8995,-1.8885,-1.9098,-1.9288,-1.9763,0.0,0.0,0.0,0.0,0.0,0.0,0.0,0.0,0.0,0.0,0.0,0.0,0.0,0.0,0.0,0.0,0.0,0.0,0.0,0.0,0.0,0.0,0.0,0.0,0.0,0.0,0.0,0.0,-2.7309,-2.7309,-2.7309,-2.7309,-2.7309,0.0,0.0,0.0,0.0,0.0,0.0,-2.6496,-2.6709,-2.6757,-2.6592,-2.6544,-2.6544,-2.6592,-2.6472,-2.6463,-2.6677,-2.6583,-2.6594,-2.6545,-2.6349,-2.6202,-2.6104,-2.6104,-2.6104,-2.6005,-2.5771,-2.5693,-2.5693,-2.5693,-2.5693,-2.5693,-2.5693,-2.5693,-2.5693,-2.5693,-2.5693,-2.5693,-2.5693,-2.5693,-2.5645,-2.5382,0.0,0.0,0.0,0.0,-2.5216,-2.4971,-2.4313,-2.3683,-2.3683,-2.2885,-2.2282,-2.3085,-2.2634,-2.1929,-2.1438,-2.1743,-2.2333,-2.3135,-2.2634,0.0,-2.4214,-2.38,-2.3079,-2.2502,-2.2418,-2.1724,-1.985,-1.967,-1.9388,-1.8605,-1.8555,-1.8511,-1.8438,-1.8423,-1.8394,-1.8306,-1.903,-1.9552,-1.9796,0.0,0.0,0.0,0.0,0.0,0.0,0.0,0.0,0.0,0.0,0.0,0.0,0.0,0.0,0.0,0.0,0.0,0.0,0.0,0.0,0.0,0.0,0.0,0.0,0.0,0.0,0.0,0.0,0.0,-2.7309,-2.7309,0.0,0.0,0.0,0.0,-2.69,-2.69,-2.6805,-2.6496,-2.6496,-2.664,-2.6853,-2.664,-2.6592,-2.69,-2.7085,-2.714,-2.7189,-2.7613,-2.7814,-2.7814,-2.7784,-2.7612,-2.732,-2.732,-2.7188,-2.6894,-2.6025,-2.5693,-2.5693,-2.5693,-2.5693,-2.5693,-2.5693,-2.5693,-2.5693,-2.5693,-2.5693,-2.5693,-2.5693,-2.5693,-2.5528,-2.4492,-2.4903,0.0,0.0,-2.4196,-2.3949,-2.2935,-2.2634,-2.2584,-2.2584,-2.1743,-2.0979,-2.103,-2.103,-2.1285,-2.2232,-2.1641,-2.0979,-2.103,0.0,-2.103,-2.1132,-2.1081,-2.0672,-1.9657,-1.9502,-1.945,-1.9332,-1.9332,-1.928,-1.9228,-1.9228,-1.9096,-1.8789,-1.876,-1.8628,-1.8321,-1.8355,-1.8833,-1.9796,-2.0211,0.0,0.0,0.0,0.0,0.0,0.0,0.0,0.0,0.0,0.0,0.0,0.0,0.0,0.0,0.0,0.0,0.0,0.0,0.0,0.0,0.0,0.0,0.0,0.0,0.0,0.0,0.0,0.0,-2.7309,-2.7309,0.0,-2.7309,-2.7309,-2.7167,-2.69,-2.69,-2.6805,-2.6496,-2.6952,-2.726,-2.7357,-2.7525,-2.7638,-2.7737,-2.7672,-2.7653,-2.7653,-2.7814,-2.7895,-2.7895,-2.7672,-2.75,-2.7399,-2.7196,-2.7114,-2.6992,-2.668,-2.6562,-2.6562,-2.6562,-2.6562,-2.6562,-2.6562,-2.6562,-2.6562,-2.6562,-2.6562,-2.6562,-2.6562,-2.6562,-2.6462,-2.6071,-2.5718,-2.5445,-2.5869,-2.5395,-2.4696,-2.4338,-2.4235,-2.403,-2.3324,-2.2856,-2.2542,-2.2542,-2.2018,-2.1597,-2.1966,-2.1579,-2.1499,-2.2493,-2.1402,-2.119,-2.3358,-2.2438,-2.1597,-2.2018,-2.1402,-2.062,-1.994,-1.9886,-1.9886,-1.9886,-1.9886,-1.9755,-1.9433,-1.947,-1.9272,-1.895,-1.8921,-1.9125,-1.9481,-1.9638,-1.9852,0.0,0.0,0.0,0.0,0.0,0.0,0.0,0.0,0.0,0.0,0.0,0.0,0.0,0.0,0.0,0.0,0.0,0.0,0.0,0.0,0.0,0.0,0.0,0.0,0.0,0.0,-2.7309,-2.7309,-2.7309,-2.7309,-2.7309,-2.7309,-2.7167,-2.69,-2.7043,-2.7028,-2.6766,-2.7337,-2.7729,-2.7807,-2.8043,-2.8236,-2.8337,-2.837,-2.835,-2.8371,-2.8676,-2.8766,-2.8663,-2.8629,-2.8481,-2.8291,-2.8186,-2.8081,-2.7871,-2.7996,-2.7976,-2.7812,-2.7246,-2.7012,-2.7012,-2.7012,-2.7012,-2.7012,-2.7012,-2.7012,-2.7012,-2.7012,-2.7012,-2.7012,-2.7012,-2.6429,-2.598,-2.6737,-2.6429,-2.5825,-2.5825,-2.5825,-2.5618,-2.4839,-2.4088,-2.3684,-2.4053,-2.2941,-2.2011,-2.2554,-2.1777,-2.1299,-2.2306,-2.1186,-2.1078,-2.3702,-2.2499,-2.1711,-2.2925,-2.2033,-2.097,-2.0292,-2.0183,-2.0183,-2.0183,-2.055,-2.0569,-1.9984,-2.0345,-2.024,-1.9608,-2.0001,-2.0166,-2.0008,-1.9888,-1.9687,-1.9272,0.0,0.0,0.0,0.0,0.0,0.0,0.0,0.0,0.0,0.0,0.0,0.0,0.0,0.0,0.0,0.0,0.0,0.0,0.0,0.0,0.0,0.0,0.0,-2.7309,-2.7309,-2.7309,-2.7309,-2.7309,-2.7309,-2.733,-2.733,-2.7235,-2.6989,-2.7378,-2.7525,-2.723,-2.7673,-2.8046,-2.8207,-2.8248,-2.8419,-2.8669,-2.9145,-2.9373,-2.9373,-3.0284,-3.0537,-3.0235,-3.0697,-3.057,-3.0036,-3.0369,-3.0127,-2.9626,-2.9869,-2.9849,-2.9414,-2.7734,-2.709,-2.709,-2.709,-2.709,-2.707,-2.7051,-2.7051,-2.7051,-2.7051,-2.7051,-2.7051,-2.7051,-2.7,-2.7,-2.7051,-2.7,-2.7,-2.7,-2.7,-2.6948,-2.6948,-2.524,-2.3965,-2.512,-2.3629,-2.25,-2.3928,-2.2064,-2.0296,-2.0267,-2.0267,-2.0634,-2.185,-2.1,0.0,-2.1904,-2.1,-2.0267,-2.0267,-2.0267,-2.0267,-2.0267,-2.138,-2.1526,-2.0307,-2.131,-2.1403,-2.0237,-2.1349,-2.1767,-2.1381,-2.1048,-2.0359,-1.9301,0.0,0.0,0.0,0.0,0.0,0.0,0.0,0.0,0.0,0.0,0.0,0.0,0.0,0.0,0.0,0.0,0.0,0.0,0.0,0.0,0.0,0.0,-2.7309,-2.7309,-2.7309,-2.7309,-2.7309,-2.7309,-2.7434,-2.7717,-2.7738,-2.7834,-2.8115,-2.826,-2.8272,-2.8222,-2.8674,-2.8921,-2.9002,-2.9662,-3.0066,-3.0118,-3.0574,-3.0801,-3.0822,-3.1071,-3.114,-3.1086,-3.0949,-3.0846,-3.0625,-3.0294,-3.0036,-2.9869,-2.9738,-2.9682,-2.9531,-2.9043,-2.8867,-2.8867,-2.8867,-2.8672,-2.8359,-2.8047,-2.7949,-2.7949,-2.7949,-2.7949,-2.7949,-2.7949,-2.7347,-2.6795,-2.7718,-2.7294,-2.6635,-2.6635,-2.6635,-2.6421,-2.5523,-2.4855,-2.434,-2.4072,-2.3521,-2.301,-2.2794,-2.2169,-2.1771,-2.2168,-2.1489,-2.132,-2.2521,-2.1699,-2.1376,-2.2577,-2.1658,-2.1264,-2.2147,-2.2258,-2.2258,-2.2258,-2.2521,-2.2094,-2.0659,-2.0851,-2.0803,-2.0252,-2.0496,-2.0614,-2.0524,-2.0435,-2.0229,0.0,0.0,0.0,0.0,0.0,0.0,0.0,0.0,0.0,0.0,0.0,0.0,0.0,0.0,0.0,0.0,0.0,0.0,0.0,0.0,0.0,0.0,-2.7309,-2.7309,-2.7309,-2.7309,-2.7372,-2.751,-2.7531,-2.7717,-2.8173,-2.8214,-2.8317,-2.8587,-2.8794,-2.8897,-2.8897,-2.9518,-2.9891,-2.9891,-3.0594,-3.0967,-3.0967,-3.1236,-3.1381,-3.1381,-3.1567,-3.1595,-3.1484,-3.1502,-3.1396,-3.1304,-3.1079,-3.0854,-3.0741,-3.0741,-3.0628,-3.0475,0.0,0.0,0.0,0.0,-2.9414,-2.916,-2.8906,-2.8828,-2.8828,-2.8828,-2.8828,-2.8828,-2.8828,-2.8372,-2.7933,-2.8665,-2.8317,-2.7804,-2.7804,-2.7804,-2.7639,-2.6902,-2.6383,-2.6007,-2.6066,-2.5663,-2.5158,-2.4636,-2.414,0.0,-2.3483,-2.247,-2.2006,-2.3189,-2.2354,-2.2064,-2.3247,-2.2354,-2.1904,-2.2571,-2.2686,-2.2686,-2.2686,-2.3006,0.0,0.0,0.0,-2.1607,-2.141,-2.1203,0.0,0.0,0.0,-2.0659,-2.0183,-2.0183,0.0,0.0,-1.9681,-1.9681,0.0,0.0,0.0,0.0,0.0,0.0,0.0,0.0,0.0,0.0,0.0,0.0,0.0,0.0,0.0,0.0,-2.7351,-2.7372,-2.7372,-2.7434,-2.7531,-2.7883,-2.7966,-2.8173,-2.8649,-2.869,-2.8731,-2.8835,-2.9228,-2.9477,-2.9539,-3.0325,0.0,0.0,0.0,-3.1443,-3.1443,-3.1505,-3.1526,-3.1526,-3.1919,-3.1937,-3.1712,-3.2178,-3.219,-3.1903,-3.219,-3.2133,-3.1903,-3.2133,-3.2076,-3.1649,-3.0303,-2.9783,-2.9763,-2.9724,-2.9704,-2.9629,-2.9646,0.0,0.0,-2.9626,-2.9626,-2.9626,-2.9626,-2.9626,-2.9626,-2.9626,-2.9626,-2.9626,-2.9626,-2.9626,-2.9626,-2.9626,-2.8766,-2.8257,-2.9236,-2.8597,-2.7801,-2.7742,-2.6805,-2.5703,-2.4606,-2.3213,-2.2528,-2.3551,-2.287,-2.2587,-2.3551,-2.2811,-2.2244,-2.2363,-2.2408,0.0,-2.2408,-2.3111,-2.3057,-2.1803,-2.249,-2.2916,-2.2868,-2.2457,-2.2284,-2.2348,-2.1939,-2.1255,-2.0285,-2.0285,-2.0285,-2.0285,-2.0212,-2.0183,0.0,0.0,0.0,0.0,0.0,0.0,0.0,0.0,0.0,0.0,0.0,0.0,0.0,0.0,0.0,-2.7309,-2.7552,-2.78,-2.78,-2.811,-2.8255,-2.7966,-2.8255,-2.8669,-2.9125,-2.9166,-2.9477,-3.0222,-3.0367,-3.0574,-3.0946,-3.1153,-3.1236,-3.1236,-3.1671,-3.1864,-3.1864,-3.2292,-3.2457,-3.2478,-3.2561,0.0,-3.2488,-3.2571,-3.2612,-3.2498,-3.2363,-3.2248,-3.219,-3.196,-3.1845,-3.171,-3.1204,-3.0952,-3.0912,-3.0329,-3.0078,-3.0019,-2.9687,-2.9626,-2.9626,-2.9626,-2.9626,-2.9626,-2.9626,-2.9626,0.0,-2.9626,-2.9626,-2.9626,-2.9626,-2.9626,-2.9626,-2.9626,-2.9402,-2.9143,-2.8668,-2.8397,-2.8024,-2.7267,-2.6978,-2.6739,-2.6499,-2.4061,-2.2303,-2.2528,-2.2363,-2.2303,-2.2528,-2.2363,-2.2528,-2.3448,-2.3551,-2.3551,-2.3551,-2.3724,-2.3355,-2.22,-2.226,-2.2215,-2.1948,-2.1873,-2.1725,-2.1457,-2.1383,-2.1183,-2.1028,-2.1028,-2.1028,-2.1013,-2.0431,-2.0183,0.0,0.0,0.0,0.0,0.0,0.0,0.0,0.0,0.0,0.0,0.0,-2.7309,0.0,0.0,-2.7372,-2.7552,-2.7779,-2.8007,-2.8235,-2.8669,-2.8876,-2.8649,-2.8814,-2.9228,-2.9932,-2.9994,-3.0284,-3.0988,-3.1029,-3.1133,-3.136,-3.1588,-3.1712,-3.1712,-3.2091,-3.2339,-3.2339,-3.2566,-3.2669,-3.2669,-3.2669,-3.2669,-3.2669,-3.2669,-3.2669,-3.2669,-3.2555,-3.2498,-3.2498,-3.2326,-3.2268,-3.2211,-3.1903,-3.1672,-3.1536,-3.1124,-3.0988,-3.0968,-3.075,-3.0727,-3.0727,-3.0727,-3.0727,-3.0727,-3.0727,-3.0727,-3.0727,-3.0727,-3.0727,-3.0727,-3.0727,-3.0727,-3.0727,-3.0727,-3.0727,-3.0559,-3.018,-2.993,-2.9638,-2.9257,-2.8504,-2.7966,-2.7966,-2.6097,-2.4382,-2.3733,-2.3672,-2.343,-2.2774,-2.2652,-2.2882,-2.346,-2.3521,-2.3521,-2.3521,-2.3368,-2.2976,-2.2244,-2.2184,-2.2111,-2.195,-2.1935,-2.1862,-2.1701,-2.1701,-2.1701,-2.1701,-2.1701,-2.1701,-2.1686,-2.1364,-2.1042,0.0,0.0,0.0,0.0,0.0,0.0,0.0,0.0,-2.7309,-2.7309,-2.7309,-2.733,-2.7413,-2.7434,-2.7531,-2.7986,-2.8131,-2.8317,-2.869,-2.9145,-2.9477,-2.9559,-2.958,-2.987,-3.0615,-3.076,-3.1008,-3.1464,-3.1505,-3.1547,-3.1629,-3.1981,-3.2112,-3.2112,-3.2483,-3.2669,-3.2669,-3.2669,-3.2669,-3.2669,-3.2669,-3.2669,-3.2669,-3.2669,-3.2669,-3.2669,-3.2669,-3.2669,-3.2669,-3.2669,-3.2669,-3.2669,-3.244,-3.219,-3.196,-3.1845,-3.1787,-3.1787,-3.1787,-3.1787,-3.1787,-3.1787,-3.1787,-3.1787,-3.1787,-3.1787,-3.1787,-3.1787,-3.1787,-3.1787,-3.1787,-3.1787,-3.1787,-3.1787,-3.1787,-3.1787,-3.1787,-3.1614,-3.1383,-3.1383,-3.0353,-2.9453,-2.9453,-2.8623,-2.7366,-2.5745,-2.5501,-2.5071,-2.4023,-2.3837,-2.3775,-2.3542,-2.3479,-2.3355,-2.3106,-2.2871,-2.2608,-2.2374,-2.2359,-2.233,-2.2271,-2.2271,-2.2242,-2.2184,-2.2184,-2.2184,-2.2184,-2.2184,-2.2184,-2.2184,-2.2184,-2.1906,-2.7309,-2.7309,-2.7309,-2.7309,-2.7309,-2.7309,0.0,0.0,-2.7309,-2.7309,-2.7309,-2.7434,-2.7779,-2.7841,-2.8007,-2.8462,-2.8876,-2.9166,-2.9228,-2.9622,-3.0077,-3.0491,-3.0532,-3.0574,-3.0677,-3.105,-3.1485,-3.1884,-3.1905,-3.2091,-3.2561,-3.2623,-3.2607,-3.2607,-3.2649,-3.2669,-3.2669,-3.2669,-3.2669,-3.2669,-3.2669,-3.2669,-3.2669,-3.2669,-3.2669,-3.2669,-3.2669,-3.2669,-3.2669,-3.2669,-3.2669,-3.2669,-3.2669,-3.2612,-3.2555,-3.2018,-3.1787,-3.1787,-3.1787,-3.1787,-3.1787,-3.1787,-3.1787,-3.1787,-3.1787,-3.1787,-3.1787,-3.1787,-3.1787,-3.1787,-3.1787,-3.1787,-3.1787,-3.1787,-3.1787,-3.1787,-3.1787,-3.1787,-3.173,-3.173,-3.1614,-3.1498,-3.1498,-3.1363,-3.0236,-2.7246,-2.6779,-2.6719,-2.6581,-2.6564,-2.6139,-2.501,-2.4887,-2.4394,-2.323,-2.3076,-2.3047,-2.3003,-2.3003,-2.2871,-2.2593,-2.2579,-2.2447,-2.2184,-2.2184,-2.2184,-2.2184,-2.2184,-2.2184,-2.2184,-2.2184,-2.214,-2.7309,-2.7309,-2.7309,0.0,-2.7309,-2.7309,-2.7309,-2.7309,-2.7309,-2.7309,-2.7469,-2.7696,-2.7883,-2.8152,-2.8483,0.0,-2.9187,-2.9497,-3.0036,-3.0284,-3.0574,-3.1029,-3.1319,-3.1485,-3.1485,-3.165,-3.1961,-3.2339,-3.238,-3.2463,-3.2669,-3.2669,-3.2669,-3.2669,-3.2669,-3.2669,-3.2669,-3.2669,-3.2669,-3.2669,-3.2669,-3.2669,-3.2669,-3.2669,-3.2669,-3.2669,-3.2669,-3.2669,-3.2669,-3.2669,-3.2669,-3.2669,-3.2669,-3.2669,-3.2669,-3.244,-3.2326,-3.2326,-3.2326,-3.2326,-3.2326,-3.2326,-3.2326,-3.2326,-3.2326,-3.2326,-3.2326,-3.2326,-3.2326,-3.2326,-3.2326,-3.2326,-3.2326,-3.2326,-3.2326,-3.2326,-3.2326,-3.219,-3.2076,-3.2076,-3.1903,-3.1787,-3.1787,-3.1787,-3.1305,-3.0001,-2.9157,-2.8325,-2.7426,-2.7289,-2.6987,-2.6277,-2.6233,-2.5989,-2.5423,-2.5362,-2.5071,-2.4332,-2.427,-2.3838,-2.2915,-2.2901,-2.2842,-2.2725,-2.2725,-2.2725,-2.2725,-2.3505,-2.3871,-2.3931,-2.4642,-2.5004,-2.7309,0.0,0.0,-2.7309,-2.7309,-2.7309,-2.7309,-2.7413,-2.7496,-2.7496,-2.78,-2.8152,-2.8276,-2.8566,-2.8959,-2.9415,-2.9497,-2.9766,-3.0574,-3.0677,-3.0905,-3.1485,-3.1836,-3.2029,-3.2153,-3.2173,-3.2318,-3.2649,-3.2669,-3.2669,-3.2669,-3.2669,-3.2669,-3.2669,-3.2669,-3.2669,-3.2669,-3.2669,-3.2669,-3.2669,-3.2669,-3.2669,-3.2669,-3.2669,-3.2669,-3.2669,-3.2669,-3.2669,-3.2669,-3.2669,-3.2669,-3.2669,-3.2669,-3.2669,-3.2669,-3.2669,-3.2669,-3.2669,-3.2669,-3.2669,-3.2669,-3.2669,-3.2669,-3.2669,-3.2669,-3.2669,-3.2669,-3.2669,-3.2669,-3.2669,-3.2669,-3.2669,-3.2669,-3.2669,-3.2669,-3.2669,-3.2669,-3.2555,-3.242,-3.242,-3.219,-3.2018,-3.2018,-3.2018,-3.2018,-3.2018,-3.1247,-3.0177,-2.8861,-2.8367,-2.8086,-2.7847,-2.7486,-2.7246,-2.7246,-2.7246,-2.6866,-2.5912,-2.5851,-2.5301,-2.4085,-2.4023,-2.3899,-2.3666,-2.3479,-2.3355,-2.3355,-2.4162,-2.4764,-2.5133,-2.605,-2.6823,0.0,0.0,-2.7309,-2.7309,-2.7309,-2.7309,-2.7309,-2.7593,-2.7903,-2.7903,-2.8276,-2.8731,-2.9187,-2.927,-2.9435,-2.9891,-2.9973,-3.0139,-3.0615,-3.0677,-3.1029,-3.1864,-3.1967,-3.2153,0.0,-3.2649,-3.2669,-3.2669,-3.2669,-3.2669,-3.2669,-3.2669,-3.2669,-3.2669,-3.2669,-3.2669,-3.2669,-3.2669,-3.2669,-3.2669,-3.2669,-3.2669,-3.2669,-3.2669,-3.2669,-3.2669,-3.2669,-3.2669,-3.2669,-3.2669,-3.2669,-3.2669,-3.2669,-3.2669,-3.2669,-3.2669,-3.2669,-3.2669,-3.2669,-3.2669,-3.2669,-3.2669,-3.2669,-3.2669,-3.2669,-3.2669,-3.2669,-3.2669,-3.2669,-3.2669,-3.2669,-3.2669,-3.2669,-3.2669,-3.2669,-3.2669,-3.2669,-3.2669,-3.2669,-3.2669,-3.2669,-3.2669,-3.2669,-3.2669,-3.2669,-3.2669,-3.2612,-3.2383,-3.173,-3.0587,-2.9825,-2.9825,-2.8664,-2.7853,-2.7853,-2.7853,-2.7853,-2.7794,-2.7794,-2.7391,-2.6459,-2.6399,-2.5989,-2.5042,-2.4425,-2.4038,-2.4038,-2.3479,-2.3852,-2.5071,-2.5133,-2.6459,0.0,0.0,-2.7309,-2.7309,-2.7489,-2.7696,-2.7696,-2.8048,-2.838,-2.838,-2.8752,-2.9125,-2.927,-2.9559,-2.9808,-2.9973,-3.0243,-3.0615,-3.1091,-3.1402,-3.1816,-3.2359,-3.2442,0.0,0.0,0.0,0.0,-3.2669,-3.2669,-3.2669,-3.2669,-3.2669,-3.2669,-3.2669,-3.2669,-3.2669,-3.2669,-3.2669,-3.2669,-3.2669,-3.2669,-3.2669,-3.2669,-3.2669,-3.2669,-3.2669,-3.2669,-3.2669,-3.2669,-3.2669,-3.2669,-3.2669,-3.2669,-3.2669,-3.2669,-3.2669,-3.2669,-3.2669,-3.2669,-3.2669,-3.2669,-3.2669,-3.2669,-3.2669,-3.2669,-3.2669,-3.2669,-3.2669,-3.2669,-3.2669,-3.2669,-3.2669,-3.2669,-3.2669,-3.2669,-3.2669,-3.2669,-3.2669,-3.2669,-3.2669,-3.2669,-3.2669,-3.2669,-3.2669,-3.2669,-3.2669,-3.2555,-3.2363,-3.2133,-3.1536,-3.1131,-3.1131,-3.0762,-3.0509,-3.0509,-3.0509,-3.0158,-2.9257,-2.9198,-2.8664,-2.7452,-2.7452,-2.7271,-2.6987,-2.6729,-2.6564,-2.6338,-2.6987,-2.7409,-2.7667,-2.8742,-2.9707,0.0,-2.7413,-2.7489,-2.7489,-2.7841,-2.8173,-2.8173,-2.8524,-2.8856,-2.8856,-2.9228,-2.9559,-2.9559,-2.9787,-3.0056,-3.0222,-3.0491,-3.0905,-3.1526,-3.1857,-3.2153,-3.2607,-3.2669,-3.2669,0.0,0.0,0.0,-3.2669,-3.2669,-3.2669,-3.2669,-3.2669,-3.2669,-3.2669,-3.2669,-3.2669,-3.2669,-3.2669,-3.2669,-3.2669,-3.2669,-3.2669,-3.2669,-3.2669,-3.2669,-3.2669,-3.2669,-3.2669,-3.2669,-3.2669,-3.2669,-3.2669,-3.2669,-3.2669,-3.2669,-3.2669,-3.2669,-3.2669,-3.2669,-3.2669,-3.2669,-3.2669,-3.2669,-3.2669,-3.2669,-3.2669,-3.2669,-3.2669,-3.2669,-3.2669,-3.2669,-3.2669,-3.2669,-3.2669,-3.2669,-3.2669,-3.2669,-3.2669,-3.2669,-3.2669,-3.2669,-3.2669,-3.2669,-3.2669,-3.2669,-3.2669,-3.2555,-3.244,-3.244,-3.2248,-3.2133,-3.2133,-3.2133,-3.2133,-3.2133,-3.2133,-3.1787,-3.0956,-3.0898,-3.0334,-2.9179,-2.912,-2.8943,-2.8587,-2.8349,-2.8188,-2.8026,-2.8605,-2.902,-2.9275,-3.0295,-3.1014,-2.733,-2.7593,-2.7924,-2.7945,-2.8297,-2.8649,-2.8649,-2.9001,-2.9352,-2.9352,-2.9684,-2.9994,0.0,0.0,-3.0139,-3.0615,-3.0698,-3.1029,-3.1864,-3.2008,-3.2173,0.0,0.0,0.0,0.0,0.0,0.0,-3.2669,0.0,-3.2669,-3.2669,-3.2669,-3.2669,-3.2669,-3.2669,-3.2669,-3.2669,-3.2669,-3.2669,-3.2669,-3.2669,-3.2669,-3.2669,-3.2669,-3.2669,-3.2669,-3.2669,-3.2669,-3.2669,-3.2669,-3.2669,-3.2669,-3.2669,-3.2669,-3.2669,-3.2669,-3.2669,-3.2669,-3.2669,-3.2669,-3.2669,-3.2669,-3.2669,-3.2669,-3.2669,-3.2669,-3.2669,-3.2669,-3.2669,-3.2669,-3.2669,-3.2669,-3.2669,-3.2669,-3.2669,-3.2669,-3.2669,-3.2669,-3.2669,-3.2669,-3.2669,-3.2669,-3.2669,-3.2669,-3.2669,-3.2669,-3.2669,-3.2669,-3.2669,-3.2669,-3.2669,-3.2669,-3.2669,-3.2669,-3.2669,-3.2669,-3.2669,-3.2669,-3.2669,-3.2305,-3.1401,-3.1343,-3.0937,-3.006,-2.9394,-2.9098,-2.9098,-2.8468,-2.8765,-3.0001,-3.0001,-3.0645,-2.7655,-2.7841,-2.8007,-2.8359,-2.8773,-2.9125,-2.9125,-2.9477,-2.9829,-2.9829,-2.9911,-2.9994,0.0,0.0,0.0,-3.0615,-3.0967,0.0,-3.1905,-3.2277,0.0,-3.2669,0.0,-3.2669,-3.2669,-3.2669,0.0,0.0,-3.2669,-3.2669,-3.2669,-3.2669,-3.2669,-3.2669,-3.2669,-3.2669,-3.2669,-3.2669,-3.2669,-3.2669,-3.2669,-3.2669,-3.2669,-3.2669,-3.2669,-3.2669,-3.2669,-3.2669,-3.2669,-3.2669,-3.2669,-3.2669,-3.2669,-3.2669,-3.2669,-3.2669,-3.2669,-3.2669,-3.2669,-3.2669,-3.2669,-3.2669,-3.2669,-3.2669,-3.2669,-3.2669,-3.2669,-3.2669,-3.2669,-3.2669,-3.2669,-3.2669,-3.2669,-3.2669,-3.2669,-3.2669,-3.2669,-3.2669,-3.2669,-3.2669,-3.2669,-3.2669,-3.2669,-3.2669,-3.2669,-3.2669,-3.2669,-3.2669,-3.2669,-3.2669,-3.2669,-3.2669,-3.2669,-3.2669,-3.2669,-3.2669,-3.2669,-3.2669,-3.2669,-3.2612,-3.2363,-3.2363,-3.2248,-3.2018,-3.1845,-3.1652,-3.1421,-3.1285,-3.1227,-3.1305,-3.1536,-3.1845,-2.8202,-2.8362,-2.8587,-2.8856,-2.927,-2.9601,-2.9601,-2.9808,-2.9994,-2.9994,-2.9994,0.0,-2.9994,0.0,0.0,0.0,0.0,0.0,-3.2194,-3.2504,-3.2669,0.0,-3.2669,0.0,-3.2669,-3.2669,-3.2669,0.0,-3.2669,-3.2669,-3.2669,-3.2669,-3.2669,-3.2669,-3.2669,-3.2669,-3.2669,-3.2669,-3.2669,-3.2669,-3.2669,-3.2669,-3.2669,-3.2669,-3.2669,-3.2669,-3.2669,-3.2669,-3.2669,-3.2669,-3.2669,-3.2669,-3.2669,-3.2669,-3.2669,-3.2669,-3.2669,-3.2669,-3.2669,-3.2669,-3.2669,-3.2669,-3.2669,-3.2669,-3.2669,-3.2669,-3.2669,-3.2669,-3.2669,-3.2669,-3.2669,-3.2669,-3.2669,-3.2669,-3.2669,-3.2669,-3.2669,-3.2669,-3.2669,-3.2669,-3.2669,-3.2669,-3.2669,-3.2669,-3.2669,-3.2669,-3.2669,-3.2669,-3.2669,-3.2669,-3.2669,-3.2669,-3.2669,-3.2669,-3.2669,-3.2669,-3.2669,-3.2669,-3.2669,-3.2669,-3.2669,-3.2669,-3.2669,-3.2669,-3.2669,-3.2612,-3.2498,-3.2498,-3.2383,-3.2211,-3.2383,-3.2498,-2.8764,-2.9055,-2.9351,-2.9455,-2.9808,-3.0099,-2.9994,-2.9994,-3.0047,-3.0099,0.0,-3.0047,-3.0308,-3.0151,-3.0337,-3.135,0.0,-3.1671,-3.2463,-3.2628,-3.2669,-3.2669,-3.2669,-3.2669,-3.2669,-3.2669,-3.2669,-3.2669,-3.2669,-3.2669,-3.2669,-3.2669,-3.2669,-3.2669,-3.2669,-3.2669,-3.2669,-3.2669,-3.2669,-3.2669,-3.2669,-3.2669,-3.2669,-3.2669,-3.2669,-3.2669,-3.2669,-3.2669,-3.2669,-3.2669,-3.2669,-3.2669,-3.2669,-3.2669,-3.2669,-3.2669,-3.2669,-3.2669,-3.2669,-3.2669,-3.2669,-3.2669,-3.2669,-3.2669,-3.2669,-3.2669,-3.2669,-3.2669,-3.2669,-3.2669,-3.2669,-3.2669,-3.2669,-3.2669,-3.2669,-3.2669,-3.2669,-3.2669,-3.2669,-3.2669,-3.2669,-3.2669,-3.2669,-3.2669,-3.2669,-3.2669,-3.2669,-3.2669,-3.2669,-3.2669,-3.2669,-3.2669,-3.2669,-3.2669,-3.2669,-3.2669,-3.2669,-3.2669,-3.2669,-3.2669,-3.2669,-3.2669,-3.2669,-3.2669,-3.2669,-3.2669,-3.2669,-3.2669,-3.2669,-3.2669,-3.2669,-3.2669,-2.9083,-2.9303,-2.9571,-3.0333,-3.0587,-3.0547,-3.0099,-2.9994,0.0,0.0,-3.0287,-3.0391,-3.1761,-3.0909,-3.0475,-3.1878,0.0,0.0,0.0,0.0,-3.2669,0.0,0.0,0.0,0.0,0.0,0.0,0.0,-3.2669,-3.2669,-3.2669,-3.2669,-3.2669,-3.2669,-3.2669,-3.2669,-3.2669,-3.2669,-3.2669,-3.2669,-3.2669,-3.2669,-3.2669,-3.2669,-3.2669,-3.2669,-3.2669,-3.2669,-3.2669,-3.2669,-3.2669,-3.2669,-3.2669,-3.2669,-3.2669,-3.2669,-3.2669,-3.2669,-3.2669,-3.2669,-3.2669,-3.2669,-3.2669,-3.2669,-3.2669,-3.2669,-3.2669,-3.2669,-3.2669,-3.2669,-3.2669,-3.2669,-3.2669,-3.2669,-3.2669,-3.2669,-3.2669,-3.2669,-3.2669,-3.2669,-3.2669,-3.2669,-3.2669,-3.2669,-3.2669,-3.2669,-3.2669,-3.2669,-3.2669,-3.2669,-3.2669,-3.2669,-3.2669,-3.2669,-3.2669,-3.2669,-3.2669,-3.2669,-3.2669,-3.2669,-3.2669,-3.2669,-3.2669,-3.2669,-3.2669,-3.2669,-3.2669,-3.2669,-3.2669,-3.2669,-3.2669,-3.2669,-2.9991,-3.0166,-3.0285,-3.0717,-3.0991,-3.1013,-3.0203,0.0,0.0,0.0,-3.0599,-3.0836,-3.2167,0.0,0.0,0.0,0.0,0.0,0.0,0.0,0.0,0.0,0.0,0.0,0.0,0.0,-3.2669,-3.2669,-3.2669,-3.2669,-3.2669,-3.2669,-3.2669,-3.2669,-3.2669,-3.2669,-3.2669,-3.2669,-3.2669,-3.2669,-3.2669,-3.2669,-3.2669,-3.2669,-3.2669,-3.2669,-3.2669,-3.2669,-3.2669,-3.2669,-3.2669,-3.2669,-3.2669,-3.2669,-3.2669,-3.2669,-3.2669,-3.2669,-3.2669,-3.2669,-3.2669,-3.2669,-3.2669,-3.2669,-3.2669,-3.2669,-3.2669,-3.2669,-3.2669,-3.2669,-3.2669,-3.2669,-3.2669,-3.2669,-3.2669,-3.2669,-3.2669,-3.2669,-3.2669,-3.2669,-3.2669,-3.2669,-3.2669,-3.2913,-3.3058,-3.3058,-3.3265,-3.343,-3.343,-3.343,-3.3327,-3.3099,-3.3058,-3.3058,-3.3058,-3.3058,-3.2975,-3.2747,-3.2669,-3.2669,-3.2669,-3.2669,-3.2669,-3.2669,-3.2669,-3.2669,-3.2669,-3.2669,-3.2669,-3.2669,-3.2669,-3.2669,-3.0647,-3.0825,-3.0915,-3.099,-3.1389,-3.1527,-3.0547,-3.0927,0.0,0.0,-3.0995,-3.128,-3.2264,0.0,0.0,0.0,0.0,0.0,0.0,0.0,0.0,0.0,0.0,0.0,0.0,0.0,0.0,-3.2669,-3.2669,-3.2669,-3.2669,-3.2669,-3.2669,-3.2669,-3.2669,-3.2669,-3.2669,-3.2669,-3.2669,-3.2669,-3.2669,-3.2669,-3.2669,-3.2669,-3.2669,-3.2669,-3.2669,-3.2669,-3.2669,-3.2669,-3.2669,-3.2669,-3.2669,-3.2669,-3.2669,-3.2669,-3.2669,-3.2669,-3.2669,-3.2669,-3.2669,-3.2669,-3.2669,-3.2669,-3.2669,-3.2669,-3.2669,-3.2669,-3.2669,-3.2669,-3.2669,-3.2669,-3.2669,-3.2669,-3.2669,-3.2669,-3.2669,-3.2669,-3.2669,-3.2669,-3.2809,-3.2871,-3.2871,-3.3223,-3.3534,-3.3534,-3.3844,-3.4132,-3.4132,-3.4132,-3.4028,-3.3699,-3.3575,-3.3534,-3.3534,-3.3534,-3.3368,-3.3037,-3.3016,-3.3016,-3.3016,-3.2913,-3.2871,-3.2871,-3.2768,-3.2669,-3.2669,-3.2669,-3.2669,-3.2669,-3.2669,-3.2669,-3.018,-3.0673,-3.1095,-3.1511,-3.1957,-3.2167,-3.1578,0.0,0.0,-3.1523,-3.1577,-3.1726,-3.2339,-3.1906,0.0,0.0,0.0,-3.196,0.0,0.0,0.0,0.0,0.0,0.0,0.0,-3.2669,-3.2669,-3.2669,-3.2669,-3.2669,-3.2669,-3.2669,-3.2669,-3.2669,-3.2669,-3.2669,-3.2669,-3.2669,-3.2669,-3.2669,-3.2669,-3.2669,-3.2669,-3.2669,-3.2669,-3.2669,-3.2669,-3.2669,-3.2669,-3.2669,-3.2669,-3.2669,-3.2669,-3.2669,-3.2669,-3.2669,-3.2669,-3.2669,-3.2669,-3.2669,-3.2669,-3.2669,-3.2669,-3.2669,-3.2669,-3.2669,-3.2669,-3.2669,-3.2669,-3.2669,-3.2669,-3.2669,-3.2669,-3.2669,-3.2669,-3.2669,-3.2669,-3.2669,-3.2669,-3.2669,-3.3037,-3.3327,-3.3327,-3.3699,-3.4069,-3.4069,-3.4051,-3.4132,-3.4132,-3.4132,-3.4277,-3.465,-3.4318,-3.4069,-3.4069,-3.4069,-3.4049,-3.3948,-3.3948,-3.3948,-3.3948,-3.3534,-3.3327,-3.3327,-3.2934,-3.2669,-3.2669,-3.2669,-3.2669,-3.2669,-3.2669,-3.2669,-3.0603,-3.0876,-3.1031,-3.1192,-3.1608,-3.1792,-3.0905,0.0,-3.1498,-3.1814,-3.1862,-3.2364,-3.4005,-3.2945,-3.2266,0.0,0.0,0.0,0.0,0.0,0.0,0.0,0.0,0.0,0.0,0.0,-3.2841,-3.3239,-3.3558,-3.3762,-3.3762,-3.3105,-3.2669,-3.2669,-3.2669,-3.2669,-3.2669,-3.2669,-3.2669,-3.2669,-3.2669,-3.2669,-3.2669,-3.2669,-3.2669,-3.2669,-3.2669,-3.2669,-3.2669,-3.2669,-3.2669,-3.2669,-3.2669,-3.2669,-3.2669,-3.2669,-3.2669,-3.2669,-3.2669,-3.2669,-3.2669,-3.2669,-3.2669,-3.2669,-3.2669,-3.2669,-3.2669,-3.2669,-3.2669,-3.2669,-3.2669,-3.2669,-3.2669,-3.2669,-3.2669,-3.2669,-3.2669,-3.2934,-3.312,-3.312,-3.3492,-3.3782,-3.3782,-3.4235,-3.4546,-3.4546,-3.4714,-3.4879,-3.4879,-3.4879,-3.4962,-3.5128,-3.4755,-3.4546,-3.4546,-3.4546,-3.4422,-3.4152,-3.4132,-3.4132,-3.4132,-3.3886,-3.3782,-3.3782,-3.3617,-3.341,-3.312,-3.312,-3.2975,-3.2669,-3.2669,-3.2669,-3.0721,-3.0882,-3.0995,-3.0911,-3.1354,-3.1563,0.0,0.0,-3.1596,-3.1949,-3.2137,-3.2698,-3.4184,-3.3339,-3.2873,0.0,0.0,-3.4589,0.0,0.0,0.0,0.0,0.0,-3.3727,0.0,-3.3218,-3.3388,-3.384,-3.4099,-3.4211,-3.4211,-3.3275,-3.2841,-3.3218,-3.3069,-3.2955,-3.2955,-3.2784,-3.2669,-3.2669,-3.2669,-3.2669,-3.2669,-3.2669,-3.2669,-3.2669,-3.2669,-3.2669,-3.2669,-3.2669,-3.2669,-3.2669,-3.2669,-3.2669,-3.2669,-3.2669,-3.2669,-3.2669,-3.2669,-3.2669,-3.2669,-3.2669,-3.2669,-3.2669,-3.2669,-3.2669,-3.2669,-3.2669,-3.2669,-3.2669,-3.2669,-3.2669,-3.2669,-3.2669,-3.2669,-3.2768,-3.2892,-3.3161,-3.341,-3.3555,-3.4007,-3.4339,-3.4339,-3.4652,-3.4962,-3.4962,-3.5231,-3.5418,-3.5418,-3.5418,-3.5418,-3.5418,-3.5148,-3.4962,-3.4962,-3.4962,-3.4817,-3.4486,-3.4465,-3.4465,-3.4465,-3.4341,-3.4339,-3.4339,-3.4194,-3.3966,-3.3575,-3.3575,-3.343,-3.312,-3.2996,-3.2851,-3.0397,-3.0606,-3.1019,-3.1019,-3.1387,-3.1825,0.0,0.0,-3.1205,-3.1872,-3.2418,-3.2632,-3.2136,-3.2817,-3.3358,-3.291,-3.4152,0.0,-3.5446,0.0,0.0,0.0,0.0,-3.4469,-3.4469,-3.4469,-3.4469,-3.4469,-3.3952,0.0,-3.3636,-3.3012,-3.3275,-3.4413,-3.3896,-3.3579,-3.3579,-3.3012,-3.2669,-3.2669,-3.2669,-3.2669,-3.2669,-3.2669,-3.2669,-3.2669,-3.2669,-3.2669,-3.2669,-3.2669,-3.2669,-3.2669,-3.2669,-3.2669,-3.2669,-3.2669,-3.2669,-3.2669,-3.2669,-3.2669,-3.2669,-3.2669,-3.2669,-3.2669,-3.2669,-3.2669,-3.2669,-3.2669,-3.2669,-3.2669,-3.2669,-3.2669,-3.2669,-3.2669,-3.2669,-3.2851,-3.3285,-3.3368,-3.3513,-3.3969,-3.4484,-3.4816,-3.4816,-3.5128,-3.5418,-3.5418,-3.5418,-3.5418,-3.5418,-3.5418,-3.5418,-3.5418,-3.5418,-3.5418,-3.5418,-3.5418,-3.5418,-3.5418,-3.5418,-3.5418,-3.5418,-3.4983,-3.4816,-3.4816,-3.436,-3.4132,-3.4051,-3.4051,-3.4111,-3.4051,-3.3575,-3.3141,-3.1026,-3.0694,-3.0468,-3.0468,-3.0583,-3.0698,-3.0698,0.0,-3.1421,-3.2087,-3.2747,-3.3352,-3.3958,-3.4301,-3.4721,-3.5351,-3.6554,0.0,0.0,0.0,0.0,0.0,-3.4547,-3.3896,0.0,0.0,-3.3896,-3.3896,-3.4099,-3.4211,-3.4211,-3.4043,-3.3706,-3.3275,-3.3445,-3.3636,-3.3636,-3.384,-3.3931,-3.3931,-3.3931,-3.3727,-3.3296,-3.3296,-3.3069,-3.2669,-3.2669,-3.2669,-3.2669,-3.2669,-3.2669,-3.2669,-3.2669,-3.2669,-3.2669,-3.2669,-3.2669,-3.2669,-3.2669,-3.2669,-3.2669,-3.2669,-3.2669,-3.2669,-3.2669,-3.2669,-3.2669,-3.2669,-3.2669,-3.2669,-3.2669,-3.2669,-3.2809,-3.3099,-3.3161,-3.3306,-3.3762,-3.4152,-3.4422,-3.4567,-3.49,-3.5211,-3.5211,-3.5335,-3.5418,-3.5418,-3.5418,-3.5418,-3.5418,-3.5418,-3.5418,-3.5418,-3.5418,-3.5418,-3.5418,-3.5418,-3.5418,-3.5418,-3.5418,-3.5418,-3.5418,-3.5293,-3.5211,-3.5211,-3.5066,-3.4838,-3.4608,-3.4608,-3.4443,-3.4132,-3.3986,-3.3782,0.0,-3.0937,-3.0532,-3.0261,-3.0216,0.0,0.0,0.0,-3.116,-3.2084,-3.2847,-3.3577,-3.439,-3.4987,-3.5532,-3.6182,-3.7213,0.0,0.0,0.0,0.0,-3.5927,0.0,0.0,0.0,-3.4624,-3.4624,-3.4624,-3.4769,-3.4858,-3.4858,-3.4636,-3.4155,-3.3388,-3.3501,-3.3727,-3.3952,-3.4099,-3.4267,-3.4469,-3.4469,-3.4323,-3.3952,-3.3671,-3.3409,-3.3012,-3.2784,-3.2669,0.0,-3.2669,-3.2669,-3.2669,-3.2669,-3.2669,-3.2669,-3.2669,-3.2669,-3.2669,-3.2669,-3.2669,-3.2669,-3.2669,-3.2841,-3.3069,-3.3069,-3.2898,-3.2669,-3.2669,-3.2669,-3.2669,-3.2669,-3.2851,-3.3037,-3.3306,-3.3572,-3.3762,-3.4297,-3.4608,-3.4857,-3.4983,-3.5231,-3.5418,-3.5418,-3.5418,-3.5418,-3.5418,-3.5418,-3.5418,-3.5418,-3.5418,-3.5418,-3.5418,-3.5418,-3.5418,-3.5418,-3.5418,-3.5418,-3.5418,-3.5418,-3.5418,-3.5418,-3.5418,-3.5418,-3.5418,-3.5418,-3.5293,-3.5004,-3.5004,-3.4776,-3.438,-3.438,-3.4297,0.0,0.0,0.0,0.0,0.0,0.0,0.0,0.0,0.0,-3.2089,-3.2838,-3.3379,-3.3875,-3.4969,-3.5772,-3.5664,-3.653,-3.7444,0.0,-3.7743,0.0,0.0,-3.5763,0.0,-3.6168,-3.6223,-3.6168,-3.6168,-3.5653,-3.5323,-3.5323,-3.4803,-3.4469,-3.4469,-3.3952,-3.3952,-3.4469,-3.4009,-3.4009,-3.4525,-3.4525,-3.4525,-3.4525,-3.3952,-3.3671,-3.3614,-3.3069,-3.2841,-3.2841,-3.2784,-3.2784,-3.2784,-3.2727,-3.2669,-3.2727,-3.2727,-3.2727,-3.2727,-3.2727,-3.2784,-3.2784,-3.2784,-3.3182,-3.3636,-3.3636,-3.3239,-3.2784,-3.2727,-3.2727,-3.2727,-3.2768,-3.3136,-3.3447,-3.3509,-3.3803,-3.4297,-3.4774,-3.4857,-3.4921,-3.5335,-3.5418,-3.5418,-3.5418,-3.5418,-3.5418,-3.5418,-3.5418,-3.5418,-3.5418,-3.5418,-3.5418,-3.5418,-3.5418,-3.5418,-3.5418,-3.5418,-3.5418,-3.5418,-3.5418,-3.5418,-3.5418,-3.5418,-3.5418,-3.5418,-3.5418,-3.5418,-3.5418,-3.5418,-3.5211,-3.4857,-3.4857,-3.4629,0.0,0.0,0.0,0.0,0.0,0.0,0.0,0.0,0.0,0.0,0.0,-3.3592,-3.5127,-3.5198,-3.5307,-3.6279,-3.6873,-3.7244,-3.7344,0.0,0.0,-3.6332,-3.5763,-3.5488,-3.5598,-3.5212,-3.4936,-3.4936,-3.4825,-3.4692,-3.4692,-3.458,-3.4469,-3.4469,-3.4379,-3.4379,-3.4469,-3.4825,-3.5046,-3.5212,-3.5212,-3.5212,-3.5157,-3.4547,-3.4267,-3.4267,-3.4155,-3.4099,-3.4043,-3.3558,-3.3409,-3.3353,-3.2898,-3.2669,-3.2784,-3.3239,-3.3126,-3.2784,-3.3239,-3.3409,-3.3445,-3.3931,-3.3896,-3.3636,-3.3636,-3.3523,-3.3296,-3.2841,-3.3012,-3.3359,-3.3256,-3.3633,-3.4138,-3.4378,-3.4588,-3.4774,-3.5169,-3.5273,-3.5293,-3.5397,-3.5418,-3.5418,-3.5418,-3.5418,-3.5418,-3.5418,-3.5418,-3.5418,-3.5418,-3.5418,-3.5418,-3.5418,-3.5418,-3.5418,-3.5418,-3.5418,-3.5418,-3.5418,-3.5418,-3.5418,-3.5418,-3.5418,-3.5418,-3.5418,-3.5418,-3.5418,-3.5418,-3.5418,-3.5376,-3.5273,-3.5273,-3.5211,0.0,0.0,0.0,0.0,0.0,0.0,0.0,0.0,0.0,0.0,0.0,0.0,-3.4613,-3.4981,-3.5301,-3.589,-3.6332,0.0,0.0,0.0,-3.5982,-3.6277,-3.5763,-3.5488,0.0,-3.5543,-3.5323,-3.5323,-3.5323,-3.5323,-3.5323,-3.5323,-3.5323,-3.5323,-3.5046,-3.4914,-3.4914,-3.5268,-3.5378,-3.5378,-3.5708,-3.5653,-3.5378,-3.5046,-3.4914,-3.4914,-3.4636,-3.4469,-3.4469,-3.4155,-3.4009,-3.3952,-3.3353,-3.3275,-3.3558,-3.3558,-3.3558,-3.3558,-3.3875,-3.4009,-3.4099,-3.4714,-3.4714,-3.4457,-3.4457,-3.4457,-3.4233,-3.3353,-3.3557,-3.394,-3.3828,-3.4614,-3.5355,-3.5233,-3.5628,-3.6043,-3.6276,-3.634,-3.634,-3.634,-3.6034,-3.5849,-3.5849,-3.5603,-3.5418,-3.5418,-3.5418,-3.5418,-3.5418,-3.5418,-3.5418,-3.5418,-3.5418,-3.5418,-3.5418,-3.5418,-3.5418,-3.5418,-3.5418,-3.5418,-3.5418,-3.5418,-3.5418,-3.5418,-3.5418,-3.5418,-3.5418,-3.5418,-3.5418,-3.5418,-3.5418,-3.5418,0.0,0.0,0.0,0.0,0.0,0.0,0.0,0.0,0.0,0.0,0.0,0.0,0.0,0.0,0.0,0.0,0.0,0.0,-3.6302,-3.5872,-3.5708,-3.6223,-3.5872,0.0,-3.6277,-3.6332,-3.6332,-3.6332,-3.6332,-3.6332,-3.6332,-3.6332,-3.6332,-3.6332,-3.5817,-3.5543,-3.5543,-3.5433,-3.5378,-3.5433,-3.5927,-3.5872,-3.5378,-3.5378,-3.5378,-3.5378,-3.4991,-3.4747,-3.4747,-3.4692,-3.4636,-3.458,-3.3952,-3.4043,-3.4435,-3.4009,-3.4155,-3.4525,-3.458,-3.4636,-3.4747,-3.5323,-3.5488,-3.5378,-3.5378,-3.5323,-3.5069,-3.4207,-3.4304,-3.4626,-3.4553,-3.5685,-3.6675,-3.6106,-3.6729,-3.7374,-3.7374,-3.7374,-3.7374,-3.7374,-3.685,-3.6423,-3.6423,-3.5932,-3.5541,-3.5541,-3.5541,-3.5583,-3.5645,-3.5583,-3.5562,-3.5625,-3.5625,-3.5625,-3.5625,-3.5625,-3.5625,-3.5625,-3.55,-3.5418,-3.5418,-3.5418,-3.5418,-3.5418,-3.5418,-3.5418,-3.5418,-3.5418,-3.5418,-3.5418,-3.5418,-3.5418,-3.1116,-3.0847,0.0,0.0,0.0,0.0,0.0,0.0,0.0,0.0,0.0,0.0,0.0,0.0,0.0,0.0,0.0,-3.6491,0.0,0.0,-3.6223,-3.6277,0.0,-3.6223,-3.6277,-3.6332,-3.6332,-3.6332,-3.6332,-3.6332,-3.6332,-3.6332,-3.6332,-3.6332,-3.6223,-3.6145,-3.6145,-3.5653,-3.5378,-3.5378,-3.5488,-3.5488,-3.5378,-3.5378,-3.5378,-3.5433,-3.5817,-3.6036,-3.5982,-3.5488,-3.5268,-3.5212,-3.4602,-3.4435,-3.4525,-3.4991,-3.488,-3.458,-3.5102,-3.5268,-3.5378,-3.5982,-3.5817,-3.5378,-3.5378,-3.5046,-3.478,-3.5501,-3.5791,-3.5833,-3.5714,-3.6531,-3.7414,-3.7178,-3.727,-3.7374,-3.7374,-3.7374,-3.7374,-3.7374,-3.685,-3.6423,-3.6423,-3.63,-3.6239,-3.6239,-3.6239,-3.6387,-3.6789,-3.6332,-3.6163,-3.6556,-3.6597,-3.6597,-3.6597,-3.6597,-3.6597,-3.6597,-3.5852,-3.5418,-3.5418,-3.5418,-3.5418,-3.5418,-3.5418,-3.5418,-3.5418,-3.5418,-3.5418,-3.5418,-3.5418,-3.5418,-3.0623,-3.0442,-3.0216,0.0,0.0,0.0,0.0,0.0,0.0,0.0,0.0,0.0,0.0,0.0,-3.4444,-3.5647,0.0,-3.6433,-3.6286,-3.6332,-3.6332,0.0,0.0,-3.6332,-3.6332,-3.6332,-3.6332,-3.6332,-3.6332,-3.6332,-3.6332,-3.6332,-3.6332,-3.6332,-3.6332,-3.6332,-3.6332,-3.6036,-3.5708,-3.5378,-3.5708,-3.5708,-3.5433,-3.5763,-3.5872,-3.5872,-3.6168,-3.6332,-3.6277,-3.5982,-3.5872,-3.5817,-3.5212,-3.5212,-3.5488,-3.5763,-3.5708,-3.5488,-3.5763,-3.5872,-3.5927,-3.6223,-3.6114,-3.5872,-3.5872,-3.5834,-3.5938,-3.6465,-3.6545,-3.6576,-3.6778,-3.7699,-3.8422,-3.7992,-3.8156,-3.8395,-3.8395,-3.8395,-3.8395,-3.8395,-3.7856,-3.7456,-3.7456,-3.7371,-3.7237,-3.6806,-3.7018,-3.7127,-3.6981,-3.6685,-3.6556,-3.6784,-3.6804,-3.6804,-3.6804,-3.6804,-3.6804,-3.6804,-3.6411,-3.6059,-3.5811,-3.579,-3.5687,-3.5418,-3.5418,-3.5418,-3.5418,-3.5418,-3.5418,-3.5418,-3.5418,-3.5418,-3.0216,-3.0216,-3.0216,0.0,0.0,-3.0514,-3.0928,0.0,0.0,0.0,0.0,0.0,0.0,-3.3935,0.0,-3.5543,-3.6025,-3.6332,-3.6332,-3.6332,-3.6332,-3.6332,-3.6332,-3.6332,-3.6332,-3.6332,-3.6332,-3.6332,-3.6332,-3.6332,-3.6332,-3.6332,-3.6332,-3.6332,-3.6332,-3.6332,-3.6332,-3.6332,-3.6036,-3.5598,-3.6091,-3.5982,-3.5433,-3.6036,-3.6223,-3.6114,-3.6223,-3.6332,-3.6332,-3.6332,-3.6332,-3.6277,-3.5763,-3.5872,-3.6332,-3.6332,-3.6332,-3.6332,-3.6332,-3.6332,-3.6332,-3.6332,-3.6332,-3.6355,-3.6415,-3.6714,-3.7025,-3.7277,-3.7338,-3.7357,-3.774,-3.8566,-3.919,-3.8656,-3.8953,-3.9308,-3.9308,-3.9308,-3.9308,-3.9308,-3.8866,-3.8515,-3.8515,-3.8515,-3.8332,-3.7835,-3.8075,-3.8144,-3.7699,-3.7528,-3.7506,-3.7611,-3.7438,-3.7309,-3.7136,-3.7136,-3.7136,-3.7136,-3.6929,-3.6639,-3.6287,-3.6266,-3.6059,-3.5583,-3.5583,-3.5521,-3.5418,-3.5418,-3.5418,-3.5418,-3.5418,-3.5418,-3.0216,-3.0216,-3.0216,-3.0216,0.0,0.0,-3.0996,0.0,0.0,0.0,0.0,0.0,0.0,-3.4762,-3.5588,-3.6117,-3.6254,-3.6332,-3.6332,0.0,-3.6332,-3.6332,-3.6332,-3.6332,-3.6332,-3.6332,-3.6332,-3.6332,-3.6332,-3.6332,-3.6332,-3.6332,-3.6332,-3.6332,-3.6332,-3.6332,-3.6332,-3.6332,-3.6277,-3.6223,-3.6277,-3.5982,-3.5433,-3.6036,-3.5982,-3.5488,-3.6036,-3.6332,-3.6332,-3.6332,-3.6332,-3.6332,-3.6277,-3.6277,-3.6332,-3.6332,-3.6332,-3.6332,-3.6332,-3.6332,-3.6332,-3.6332,-3.6332,-3.6369,-3.6828,-3.6956,-3.7242,-3.8206,-3.8504,-3.8492,-3.8515,-3.8882,-3.9308,-3.9249,-3.9249,-3.9308,-3.9308,-3.9308,-3.9308,-3.9308,-3.9137,-3.903,-3.903,-3.9433,-3.9769,-3.9707,-3.973,-3.9846,-4.0167,-3.9726,-3.9539,-3.991,-3.9366,-3.8795,-3.8154,-3.8088,-3.8088,-3.8088,-3.7281,-3.6784,-3.6763,-3.6763,-3.6535,-3.608,-3.6059,-3.5852,-3.5418,-3.5418,-3.5418,-3.5418,-3.5418,-3.5418,-3.0216,-3.0216,-3.0285,-3.0629,0.0,0.0,0.0,0.0,0.0,0.0,0.0,0.0,0.0,0.0,-3.568,-3.6185,-3.6332,-3.6332,-3.6332,-3.6332,-3.6332,-3.6332,-3.6332,-3.6332,-3.6332,-3.6332,-3.6332,-3.6332,-3.6332,-3.6332,-3.6332,-3.6332,-3.6332,-3.6332,-3.6332,-3.6332,-3.6332,-3.6332,-3.6332,-3.6332,-3.6332,-3.6168,-3.5982,-3.6223,-3.6168,-3.5982,-3.6223,-3.6332,-3.6332,-3.6332,-3.6332,-3.6332,-3.6332,-3.6332,-3.6332,-3.6332,-3.6332,-3.6332,-3.6332,-3.6332,-3.6332,-3.6332,-3.6332,-3.6369,-3.6874,-3.7242,-3.7655,-3.839,-3.8803,-3.9033,-3.9033,-3.917,-3.9308,-3.9308,-3.9308,-3.9308,-3.9308,-3.9308,-3.94,-3.9698,-3.9748,-3.9795,-4.0114,-4.0569,-4.0785,-4.0325,-4.0531,-4.0673,-4.0425,-4.0103,-3.9866,-3.9583,-3.8967,-3.8503,-3.8258,-3.8191,-3.8191,-3.8191,-3.786,-3.7529,-3.7239,-3.7239,-3.7011,-3.6556,-3.6535,-3.6453,-3.6287,-3.5997,-3.5852,-3.5852,-3.5562,-3.5418,-3.0216,-3.0216,-3.0354,0.0,0.0,0.0,0.0,0.0,0.0,0.0,0.0,0.0,0.0,0.0,0.0,0.0,-3.6332,-3.6332,-3.6332,-3.6332,-3.6332,-3.6332,-3.6332,-3.6332,-3.6332,-3.6332,-3.6332,-3.6332,-3.6332,-3.6332,-3.6332,-3.6332,-3.6332,-3.6332,-3.6332,-3.6332,-3.6332,-3.6332,-3.6332,-3.6332,-3.6332,-3.6332,-3.6332,-3.6332,-3.6332,-3.6332,-3.6332,-3.6332,-3.6332,-3.6332,-3.6332,-3.6332,-3.6332,-3.6332,-3.6332,-3.6332,-3.6332,-3.6332,-3.6332,-3.6332,-3.6332,-3.6332,-3.6392,-3.6599,-3.7127,-3.7632,-3.816,-3.8665,-3.9055,-3.9308,-3.9308,-3.9308,-3.9308,-3.9308,-3.9308,-3.9308,-3.9308,-3.9423,-3.9652,-4.0057,-4.0379,-4.0701,-4.1007,-4.1489,-4.1622,-4.1158,-4.1411,-4.1444,-4.0993,-4.0906,-4.0517,-3.9604,-3.8901,-3.8437,-3.8258,-3.8191,-3.8191,-3.8191,-3.8191,-3.8046,-3.7715,-3.7715,-3.7488,-3.7032,-3.7032,-3.6949,-3.6804,-3.6494,-3.6328,-3.6328,-3.5997,-3.5769,-3.0216,-3.0216,0.0,0.0,0.0,0.0,0.0,0.0,0.0,0.0,0.0,0.0,0.0,0.0,0.0,-3.6332,-3.6332,-3.6332,-3.6332,-3.6332,-3.6332,-3.6332,-3.6332,-3.6332,-3.6332,-3.6332,-3.6332,-3.6332,-3.6332,-3.6332,-3.6332,-3.6332,-3.6332,-3.6332,-3.6332,-3.6332,-3.6332,-3.6332,-3.6332,-3.6332,-3.6332,-3.6332,-3.6332,-3.6332,-3.6332,-3.6332,-3.6332,-3.6332,-3.6332,-3.6332,-3.6332,-3.6332,-3.6332,-3.6332,-3.6332,-3.6332,-3.6332,-3.6332,-3.6332,-3.6332,-3.6332,-3.6332,-3.6622,-3.7071,-3.7632,-3.816,-3.8688,-3.917,-3.9308,-3.9308,-3.9308,-3.9308,-3.9308,-3.9308,-3.9308,-3.9308,-3.9308,-3.9698,-4.0126,-4.0126,-4.0954,-4.1581,-4.1581,-4.1994,-4.2275,-4.2275,-4.2275,-4.2275,-4.2275,-4.2275,-4.1765,-4.0474,-3.967,-3.8967,-3.8258,-3.8191,-3.8191,-3.8191,-3.8191,-3.8191,-3.8191,-3.8191,-3.7964,-3.7508,-3.7508,-3.7281,-3.6825,-3.6804,-3.6804,-3.6804,-3.6804,-3.6556,-3.0216,0.0,0.0,0.0,0.0,0.0,0.0,0.0,0.0,0.0,0.0,0.0,-3.5956,0.0,0.0,-3.6332,-3.6332,-3.6332,-3.6332,-3.6332,-3.6332,-3.6332,-3.6332,-3.6332,-3.6332,-3.6332,-3.6332,-3.6332,-3.6332,-3.6332,-3.6332,-3.6332,-3.6332,-3.6332,-3.6332,-3.6332,-3.6332,-3.6332,-3.6332,-3.6332,-3.6332,-3.6332,-3.6332,-3.6332,-3.6332,-3.6332,-3.6332,-3.6332,-3.6332,-3.6332,-3.6332,-3.6332,-3.6332,-3.6332,-3.6332,-3.6332,-3.6332,-3.6332,-3.6332,-3.6332,-3.6323,-3.6691,-3.692,-3.714,-3.8091,-3.8459,-3.8688,-3.917,-3.9308,-3.9308,-3.9308,-3.9308,-3.9308,-3.9308,-3.9308,-3.94,-3.9744,-4.0011,-4.0333,-4.1046,-4.1437,-4.1673,-4.204,-4.2247,-4.2275,-4.2275,-4.2275,-4.2275,-4.2275,-4.1893,-4.1444,-4.1057,-4.0323,-3.9801,-3.9604,-3.9144,-3.8901,-3.8901,-3.8437,-3.8191,-3.8191,-3.8191,-3.8129,-3.7984,-3.7984,-3.7922,-3.7777,-3.7446,-3.7281,-3.7281,-3.6949,-3.6722,-3.0216,0.0,0.0,0.0,0.0,0.0,0.0,0.0,0.0,0.0,0.0,-3.5657,-3.6185,-3.6332,0.0,-3.6332,-3.6332,-3.6332,-3.6332,-3.6332,-3.6332,-3.6332,-3.6332,-3.6332,-3.6332,-3.6332,-3.6332,-3.6332,-3.6332,-3.6332,-3.6332,-3.6332,-3.6332,-3.6332,-3.6332,-3.6332,-3.6332,-3.6332,-3.6332,-3.6332,-3.6332,-3.6332,-3.6332,-3.6332,-3.6332,-3.6332,-3.6332,-3.6332,-3.6332,-3.6332,-3.6332,-3.6332,-3.6332,-3.6332,-3.6332,-3.6332,-3.6332,-3.6332,-3.6332,-3.6332,-3.6346,-3.6874,-3.7117,-3.7494,-3.8321,-3.8711,-3.8941,-3.9216,-3.9308,-3.9308,-3.9308,-3.9308,-3.9308,-3.9308,-3.9446,-3.9698,-4.0057,-4.0425,-4.0908,-4.1466,-4.1742,-4.1971,-4.2229,-4.2275,-4.2275,-4.2275,-4.2275,-4.2275,-4.2275,-4.1701,-4.1315,-4.1315,-4.0647,-4.0127,-3.9866,-3.9407,-3.9099,-3.8835,-3.8437,-3.8191,-3.8191,-3.8191,-3.8191,-3.8191,-3.8191,-3.8191,-3.8191,-3.7902,-3.7777,-3.7757,-3.7488,-3.726,-3.017,0.0,0.0,0.0,0.0,0.0,0.0,0.0,-3.4234,-3.4762,0.0,-3.5726,-3.6185,-3.6332,-3.6332,-3.6332,-3.6332,-3.6332,-3.6332,-3.6332,-3.6332,-3.6332,-3.6332,-3.6332,-3.6332,-3.6332,-3.6332,-3.6332,-3.6332,-3.6332,-3.6332,-3.6332,-3.6332,-3.6332,-3.6332,-3.6332,-3.6332,-3.6332,-3.6332,-3.6332,-3.6332,-3.6332,-3.6332,-3.6332,-3.6332,-3.6332,-3.6332,-3.6332,-3.6332,-3.6332,-3.6332,-3.6332,-3.6332,-3.6332,-3.6332,-3.6332,-3.6332,-3.6332,-3.6332,-3.6355,-3.6415,-3.6943,-3.7448,-3.7953,-3.8481,-3.8964,-3.9308,-3.9308,-3.9308,-3.9308,-3.9308,-3.9331,-3.9377,-3.9377,-3.9721,-4.0149,-4.0241,-4.0915,-4.1581,-4.1627,-4.2017,-4.2275,-4.2275,-4.2275,-4.2275,-4.2275,-4.2275,-4.2275,-4.2275,-4.1765,-4.138,-4.138,-4.0777,-4.0127,-3.9538,-3.9407,-3.9078,-3.8437,-3.8304,-3.8258,-3.8191,-3.8191,-3.8191,-3.8191,-3.8191,-3.8191,-3.8191,-3.8191,-3.8191,-3.8191,-3.8191,-3.7964,0.0,-2.9943,0.0,0.0,0.0,0.0,0.0,-3.405,-3.4762,-3.5267,-3.5749,-3.614,-3.6309,-3.6332,-3.6332,-3.6332,-3.6332,-3.6332,-3.6332,-3.6332,-3.6332,-3.6332,-3.6332,-3.6332,-3.6332,-3.6332,-3.6332,-3.6332,-3.6332,-3.6332,-3.6332,-3.6332,-3.6332,-3.6332,-3.6332,-3.6332,-3.6332,-3.6332,-3.6332,-3.6332,-3.6332,-3.6332,-3.6332,-3.6332,-3.6332,-3.6332,-3.6332,-3.6332,-3.6332,-3.6332,-3.6332,-3.6332,-3.6332,-3.6332,-3.6332,-3.6332,-3.6332,-3.6332,-3.6332,-3.653,-3.6966,-3.7471,-3.7976,-3.8504,-3.901,-3.9216,-3.9308,-3.9308,-3.9308,-3.9308,-3.9308,-3.9607,-3.9942,-3.9942,-4.0034,-4.0333,-4.1138,-4.142,-4.1696,-4.2086,-4.227,-4.2275,-4.2275,-4.2275,-4.2275,-4.2275,-4.2275,-4.2275,-4.2275,-4.2148,-4.2084,-4.2084,-4.1956,-4.1806,-4.1614,-4.1164,-4.0517,-3.9801,-3.9276,-3.8769,-3.8258,-3.8191,-3.8191,-3.8191,-3.8191,-3.8191,-3.8191,-3.8191,-3.8191,-3.8191,-3.8191,-3.8129,0.0,0.0,0.0,0.0,0.0,0.0,0.0,-3.3866,-3.4555,-3.506,-3.5749,-3.6332,-3.6332,-3.6332,-3.6332,-3.6332,-3.6332,-3.6332,-3.6332,-3.6332,-3.6332,-3.6332,-3.6332,-3.6332,-3.6332,-3.6332,-3.6332,-3.6332,-3.6332,-3.6332,-3.6332,-3.6332,-3.6332,-3.6332,-3.6332,-3.6332,-3.6332,-3.6332,-3.6332,-3.6332,-3.6332,-3.6332,-3.6332,-3.6332,-3.6332,-3.6332,-3.6332,-3.6332,-3.6332,-3.6332,-3.6332,-3.6332,-3.6332,-3.6332,-3.6332,-3.6332,-3.6332,-3.63,-3.6553,-3.6805,-3.7094,-3.793,-3.8367,-3.8688,-3.917,-3.9308,-3.9308,-3.9308,-3.9308,-3.9354,-3.9607,-3.9919,-4.0241,-4.0724,-4.0839,-4.1,-4.1529,-4.1765,-4.2017,-4.2229,-4.2275,-4.2275,-4.2275,-4.2275,-4.2275,-4.2275,-4.2275,-4.2275,-4.2275,-4.2275,-4.2275,-4.2275,-4.2275,-4.2148,-4.1829,-4.1508,-4.0971,-4.0257,-3.9538,-3.9012,-3.8702,-3.837,-3.8191,-3.8191,-3.8191,-3.8191,-3.8191,-3.8191,-3.8191,-3.8191,-3.8191,-3.8191,0.0,0.0,0.0,0.0,0.0,0.0,-3.3155,-3.366,-3.4142,-3.4693,-3.552,-3.6162,-3.6254,-3.6332,-3.6332,-3.6332,-3.6332,-3.6332,-3.6332,-3.6332,-3.6332,-3.6332,-3.6332,-3.6332,-3.6332,-3.6332,-3.6332,-3.6332,-3.6332,-3.6332,-3.6332,-3.6332,-3.6332,-3.6332,-3.6332,-3.6332,-3.6332,-3.6332,-3.6332,-3.6332,-3.6332,-3.6332,-3.6332,-3.6332,-3.6332,-3.6332,-3.6332,-3.6332,-3.6332,-3.6332,-3.6332,-3.6332,-3.6332,-3.6332,-3.6332,-3.6332,-3.6332,-3.6346,-3.6851,-3.7048,-3.7333,-3.8275,-3.8642,-3.878,-3.917,-3.9308,-3.9308,-3.9308,-3.9377,-3.9538,-4.0011,-4.0241,-4.0586,-4.1374,-4.165,-4.1696,-4.1696,-4.204,-4.2275,-4.2275,-4.2275,-4.2275,-4.2275,-4.2275,-4.2275,-4.2275,-4.2344,-4.2477,-4.2477,-4.2545,-4.2527,-4.2527,-4.2527,-4.2335,-4.1756,-4.1627,-4.1215,-4.0498,-3.984,-3.9399,-3.9266,-3.867,-3.8295,-3.8295,-3.8233,-3.8191,-3.8191,-3.8191,-3.8191,-3.8191,-3.8191,-3.8191,0.0,0.0,0.0,0.0,0.0,0.0,0.0,0.0,-3.4142,0.0,-3.5244,-3.5749,-3.6185,-3.6332,-3.6332,-3.6332,-3.6332,-3.6332,-3.6332,-3.6332,-3.6332,-3.6332,-3.6332,-3.6332,-3.6332,-3.6332,-3.6332,-3.6332,-3.6332,-3.6332,-3.6332,-3.6332,-3.6332,-3.6332,-3.6332,-3.6332,-3.6332,-3.6332,-3.6332,-3.6332,-3.6332,-3.6332,-3.6332,-3.6332,-3.6332,-3.6332,-3.6332,-3.6332,-3.6332,-3.6332,-3.6332,-3.6332,-3.6332,-3.6332,-3.6332,-3.6332,-3.6332,-3.6346,-3.6851,-3.7311,-3.7793,-3.839,-3.8872,-3.9216,-3.9285,-3.9308,-3.9308,-3.9308,-3.9607,-4.0034,-4.0103,-4.077,-4.1397,-4.1535,-4.1903,-4.2224,-4.2224,-4.2293,-4.2275,-4.2275,-4.2275,-4.2275,-4.2275,-4.2275,-4.2275,-4.2275,-4.2706,-4.2982,-4.2982,-4.3349,-4.3602,-4.3602,-4.3602,-4.3536,-4.3471,-4.2878,-4.2238,-4.157,-4.085,-4.0103,-3.9488,-3.8978,-3.8683,-3.8683,-3.8378,-3.8191,-3.8191,-3.8191,-3.8191,-3.8191,-3.8191,-3.8191,-3.0125,0.0,0.0,0.0,0.0,-3.2354,-3.3109,0.0,-3.3752,-3.4257,-3.4762,-3.5359,-3.6117,-3.6332,-3.6332,-3.6332,-3.6332,-3.6332,-3.6332,-3.6332,-3.6332,-3.6332,-3.6332,-3.6332,-3.6332,-3.6332,-3.6332,-3.6332,-3.6332,-3.6332,-3.6332,-3.6332,-3.6332,-3.6332,-3.6332,-3.6332,-3.6332,-3.6332,-3.6332,-3.6332,-3.6332,-3.6332,-3.6332,-3.6332,-3.6332,-3.6332,-3.6332,-3.6332,-3.6332,-3.6332,-3.6332,-3.6332,-3.6332,-3.6332,-3.6332,-3.6332,-3.6461,-3.6782,-3.7288,-3.7793,-3.8321,-3.8826,-3.9124,-3.9308,-3.9308,-3.9308,-3.9308,-3.9308,-3.9675,-4.0195,-4.041,-4.103,-4.165,-4.1926,-4.2178,-4.2275,-4.2275,-4.2275,-4.2275,-4.2275,-4.2275,-4.2275,-4.2275,-4.2568,-4.2752,-4.2752,-4.3165,-4.3487,-4.3487,-4.3671,-4.3808,-4.3808,-4.3808,-4.3808,-4.3808,-4.3479,-4.3015,-4.2282,-4.1632,-4.0886,-4.0156,-3.9556,-3.9158,-3.9158,-3.8543,-3.8191,-3.8191,-3.8191,-3.8191,-3.8191,-3.8191,-3.8191,0.0,0.0,0.0,-3.1341,-3.1662,-3.1984,0.0,0.0,-3.343,0.0,-3.4326,-3.4854,-3.5726,-3.6148,-3.6332,-3.6332,-3.6332,-3.6332,-3.6332,-3.6332,-3.6332,-3.6332,-3.6332,-3.6332,-3.6332,-3.6332,-3.6332,-3.6332,-3.6332,-3.6332,-3.6332,-3.6332,-3.6332,-3.6332,-3.6332,-3.6332,-3.6332,-3.6332,-3.6332,-3.6332,-3.6332,-3.6332,-3.6332,-3.6332,-3.6332,-3.6332,-3.6332,-3.6332,-3.6332,-3.6332,-3.6332,-3.6332,-3.6332,-3.6332,-3.6332,-3.6332,-3.6599,-3.7048,-3.7609,-3.8137,-3.8665,-3.9147,-3.9308,-3.9308,-3.9308,-3.9308,-3.9331,-3.9469,-3.9859,-4.0364,-4.0892,-4.1374,-4.1857,-4.2247,-4.2275,-4.2275,-4.2275,-4.2275,-4.2275,-4.2275,-4.2275,-4.2321,-4.25,-4.2844,-4.3142,-4.3257,-4.3693,-4.4015,-4.4015,-4.413,-4.4199,-4.4199,-4.4199,-4.4199,-4.4199,-4.3999,-4.3666,-4.313,-4.2252,-4.1525,-4.0997,-4.0111,-3.9654,-3.9654,-3.8937,-3.8481,-3.8357,-3.8357,-3.8295,-3.8191,-3.8191,-3.8191,0.0,0.0,0.0,-3.0905,0.0,0.0,0.0,0.0,-3.343,-3.3889,-3.4027,-3.4211,-3.4762,-3.5634,-3.6332,-3.6332,-3.6332,-3.6332,-3.6332,-3.6332,-3.6332,-3.6332,-3.6332,-3.6332,-3.6332,-3.6332,-3.6332,-3.6332,-3.6332,-3.6332,-3.6332,-3.6332,-3.6332,-3.6332,-3.6332,-3.6332,-3.6332,-3.6332,-3.6332,-3.6332,-3.6332,-3.6332,-3.6332,-3.6332,-3.6332,-3.6332,-3.6332,-3.6332,-3.6332,-3.6332,-3.6332,-3.6332,-3.6332,-3.6332,-3.6332,-3.6332,-3.6599,-3.7048,-3.7609,-3.8137,-3.8665,-3.9147,-3.9308,-3.9308,-3.9308,-3.9308,-3.94,-3.9942,-4.0387,-4.0892,-4.1397,-4.1903,-4.2229,-4.2275,-4.2275,-4.2275,-4.2275,-4.2275,-4.2275,-4.2275,-4.2275,-4.2477,-4.2959,-4.3074,-4.3257,-4.3693,-4.4222,-4.4566,-4.4566,-4.4979,-4.5346,-4.5346,-4.5346,-4.5346,-4.5346,-4.4641,-4.4161,-4.4092,-4.2774,-4.1933,-4.1933,-4.0758,-4.0199,-4.0199,-3.9654,-3.9179,-3.8745,-3.8745,-3.8585,-3.8191,-3.8191,-3.8191,0.0,0.0,0.0,-3.0882,-3.1157,-3.1479,-3.2305,-3.2627,-3.2925,-3.343,-3.3798,-3.405,-3.4257,-3.5106,-3.5795,-3.5795,-3.6071,-3.6332,-3.6332,-3.6332,-3.6332,-3.6332,-3.6332,-3.6332,-3.6332,-3.6332,-3.6332,-3.6332,-3.6332,-3.6332,-3.6332,-3.6332,-3.6332,-3.6332,-3.6332,-3.6332,-3.6332,-3.6332,-3.6332,-3.6332,-3.6332,-3.6332,-3.6332,-3.6332,-3.6332,-3.6332,-3.6332,-3.6332,-3.6332,-3.6332,-3.6332,-3.6332,-3.6332,-3.6332,-3.6378,-3.6645,-3.7081,-3.7586,-3.8114,-3.8619,-3.9078,-3.9239,-3.9308,-3.9308,-3.9308,-3.9538,-3.9813,-4.0057,-4.0724,-4.1352,-4.1535,-4.1948,-4.2275,-4.2275,-4.2275,-4.2275,-4.2275,-4.2275,-4.2275,-4.2275,-4.2591,-4.2867,-4.3051,-4.3625,-4.413,-4.429,-4.475,-4.5094,-4.5094,-4.5323,-4.5438,-4.5438,-4.5438,-4.5438,-4.5438,-4.5142,-4.4732,-4.4228,-4.3675,-4.2979,-4.2018,-4.1566,-4.1129,-4.0655,-4.0489,-4.0034,-3.922,-3.922,-3.8993,-3.8605,-3.8605,-3.846,0.0,0.0,0.0,0.0,0.0,-3.1226,-3.2053,0.0,-3.2627,-3.3178,-3.3545,-3.3752,-3.3752,-3.444,-3.506,-3.5244,-3.5703,-3.6025,-3.6025,-3.6162,-3.6332,-3.6332,-3.6332,-3.6332,-3.6332,-3.6332,-3.6332,-3.6332,-3.6332,-3.6332,-3.6332,-3.6332,-3.6332,-3.6332,-3.6332,-3.6332,-3.6332,-3.6332,-3.6332,-3.6332,-3.6332,-3.6332,-3.6332,-3.6332,-3.6332,-3.6332,-3.6332,-3.6332,-3.6332,-3.6332,-3.6332,-3.6332,-3.6332,-3.6369,-3.6576,-3.692,-3.7471,-3.8114,-3.8459,-3.8895,-3.9308,-3.9308,-3.9308,-3.9308,-3.9308,-3.9652,-4.0149,-4.0272,-4.0915,-4.1604,-4.1788,-4.2086,-4.2275,-4.2275,-4.2275,-4.2275,-4.2275,-4.2275,-4.2321,-4.2545,-4.2867,-4.3188,-4.3533,-4.4153,-4.4658,-4.4841,-4.514,-4.5438,-4.5438,-4.5438,-4.5438,-4.5438,-4.5438,-4.5438,-4.5438,-4.5142,-4.48,-4.4228,-4.3744,-4.3049,-4.2018,-4.1735,-4.1381,-4.0954,-4.0882,-4.0572,-3.9992,-3.9847,-3.9468,-3.9013,-3.9013,-3.8833,0.0,0.0,0.0,0.0,0.0,0.0,-3.1639,0.0,-3.2604,-3.3155,-3.3269,-3.3269,-3.3292,-3.366,-3.4142,-3.467,-3.5175,-3.5497,-3.5497,-3.5933,-3.6309,-3.6309,-3.6309,-3.6332,-3.6332,-3.6332,-3.6332,-3.6332,-3.6332,-3.6332,-3.6332,-3.6332,-3.6332,-3.6332,-3.6332,-3.6332,-3.6332,-3.6332,-3.6332,-3.6332,-3.6332,-3.6332,-3.6332,-3.6332,-3.6332,-3.6332,-3.6332,-3.6332,-3.6332,-3.6332,-3.6332,-3.6332,-3.6332,-3.6576,-3.6979,-3.7002,-3.7701,-3.8596,-3.8596,-3.8918,-3.9308,-3.9308,-3.9308,-3.9308,-3.9331,-3.9675,-4.0241,-4.0686,-4.1214,-4.1719,-4.2201,-4.2275,-4.2275,-4.2275,-4.2275,-4.2275,-4.2298,-4.2298,-4.25,-4.2982,-4.3119,-4.3441,-4.4428,-4.4612,-4.4796,-4.5346,-4.5438,-4.5438,-4.5438,-4.5438,-4.5438,-4.5438,-4.5438,-4.5438,-4.5438,-4.4663,-4.425,-4.425,-4.284,-4.2089,-4.2018,-4.131,-4.0954,-4.0882,-4.0882,-4.0882,-4.0882,-4.0448,-4.0013,-3.9488,-3.9468,-3.9241,-3.0216,0.0,0.0,0.0,0.0,0.0,0.0,0.0,-3.1662,-3.2535,-3.2695,-3.2833,-3.3224,-3.3384,-3.3522,-3.3683,-3.444,-3.4992,-3.4992,-3.5405,-3.5726,-3.5726,-3.6048,-3.6332,-3.6332,-3.6332,-3.6332,0.0,-3.6332,-3.6332,-3.6332,-3.6332,-3.6332,-3.6332,-3.6332,-3.6332,-3.6332,-3.6332,-3.6332,-3.6332,-3.6332,-3.6332,-3.6332,-3.6332,-3.6332,-3.6332,-3.6332,-3.6332,-3.6332,-3.6332,-3.6332,-3.6332,-3.6332,-3.6576,-3.7025,-3.7448,-3.7999,-3.8642,-3.8987,-3.9193,-3.9308,-3.9308,-3.9308,-3.9377,-3.9744,-4.0203,-4.0709,-4.1214,-4.1742,-4.2155,-4.2229,-4.2275,-4.2275,-4.2275,-4.2275,-4.2431,-4.2798,-4.289,-4.2913,-4.3051,-4.3693,-4.4267,-4.4566,-4.491,-4.5209,-4.5415,-4.5438,-4.5438,-4.5438,-4.5438,-4.5438,-4.5438,-4.5438,-4.5438,-4.5438,-4.521,-4.5074,-4.5074,-4.4181,-4.3328,-4.284,-4.2067,-4.1431,-4.0954,-4.0882,-4.0882,-4.0882,-4.0758,-4.0468,-4.0034,-3.9633,-3.9406,0.0,0.0,0.0,0.0,0.0,0.0,-3.0882,-3.1019,-3.1295,-3.2282,-3.2489,-3.265,-3.3178,-3.3292,-3.3292,-3.3292,-3.3775,-3.4234,-3.444,-3.49,-3.5221,-3.5221,-3.5657,-3.5956,-3.5956,-3.614,-3.6332,-3.6332,-3.6332,-3.6332,-3.6332,-3.6332,-3.6332,-3.6332,-3.6332,-3.6332,-3.6332,-3.6332,-3.6332,-3.6332,-3.6332,-3.6332,-3.6332,-3.6332,-3.6332,-3.6332,-3.6332,-3.6332,-3.6332,-3.6332,-3.6332,-3.6355,-3.6507,-3.6897,-3.7402,-3.793,-3.8459,-3.8918,-3.9216,-3.9308,-3.9308,-3.9308,-3.9308,-3.94,-3.9965,-4.041,-4.0915,-4.142,-4.1948,-4.2275,-4.2275,-4.2275,-4.2275,-4.2275,-4.25,-4.2729,-4.3028,-4.3418,-4.3716,-4.3716,-4.4199,-4.4681,-4.4887,-4.5163,-4.5438,-4.5438,-4.5438,-4.5438,-4.5438,-4.5438,-4.5438,-4.5438,-4.5438,-4.5438,-4.5438,-4.5074,-4.4937,-4.4937,-4.3883,-4.3119,-4.27,-4.1926,-4.1381,-4.0954,-4.0882,-4.0882,-4.0882,-4.0882,-4.0737,-4.0489,-4.022,-3.9992,0.0,0.0,0.0,0.0,0.0,0.0,-3.0813,-3.0928,-3.118,-3.2121,-3.2328,-3.2489,-3.3086,-3.3201,-3.3224,-3.3269,-3.3292,-3.343,-3.3765,-3.432,-3.4716,-3.4612,-3.5099,-3.5397,-3.5413,-3.5879,-3.6208,-3.62,-3.6223,-3.6223,-3.6332,-3.6223,-3.6223,-3.6332,-3.6332,-3.6332,-3.6332,-3.6332,-3.6332,-3.6332,-3.6332,-3.6332,-3.6332,-3.6332,-3.6332,-3.6332,-3.6332,-3.6332,-3.6332,-3.6332,-3.6332,-3.6378,-3.6828,-3.7333,-3.7862,-3.839,-3.8895,-3.9308,-3.9308,-3.9308,-3.9308,-3.9308,-3.9331,-3.9492,-3.9997,-4.0502,-4.1007,-4.1512,-4.1994,-4.2275,-4.2275,-4.2275,-4.2275,-4.2275,-4.2729,-4.3096,-4.3165,-4.3923,-4.4612,-4.4681,-4.4681,-4.4841,-4.5346,-4.5438,-4.5438,-4.5438,-4.5438,-4.5438,-4.5438,-4.5438,-4.5438,-4.5438,-4.5438,-4.5438,-4.5438,-4.4732,-4.4297,-4.4297,-4.2979,-4.2229,-4.2159,-4.1452,-4.0954,-4.0882,-4.0882,-4.0882,-4.0882,-4.0882,-4.0882,-4.0882,-4.0882,-4.0675,0.0,0.0,0.0,0.0,0.0,0.0,-3.0354,-3.0376,-3.0537,-3.118,-3.1295,-3.157,-3.2466,-3.265,-3.2787,-3.3224,-3.3292,-3.3142,-3.2757,-3.3566,-3.4011,-3.3546,-3.4364,-3.4872,-3.4778,-3.5344,-3.5603,-3.5576,-3.5598,-3.5763,-3.6277,-3.5817,-3.5817,-3.6277,-3.6332,-3.6332,-3.6332,-3.6332,-3.6332,-3.6332,-3.6332,-3.6332,-3.6332,-3.6332,-3.6332,-3.6332,-3.6332,-3.6332,-3.6332,-3.6332,-3.6332,-3.6378,-3.6828,-3.7333,-3.7862,-3.839,-3.8895,-3.9308,-3.9308,-3.9308,-3.9308,-3.9308,-3.9584,-3.9997,-4.0525,-4.103,-4.1535,-4.204,-4.227,-4.2275,-4.2275,-4.2275,-4.2275,-4.2275,-4.2729,-4.3188,-4.3579,-4.4176,-4.4727,-4.514,-4.5209,-4.5323,-4.5415,-4.5438,-4.5438,-4.5438,-4.5438,-4.5438,-4.5438,-4.5438,-4.5438,-4.5438,-4.5438,-4.5438,-4.5438,-4.5278,-4.5142,-4.5142,-4.4319,-4.3536,-4.2888,-4.2208,-4.1523,-4.0954,-4.0882,-4.0882,-4.0882,-4.0882,-4.0882,-4.0882,-4.0882,-4.082,0.0,0.0,0.0,-3.0216,0.0,0.0,0.0,-3.0758,-3.0988,-3.1893,-3.1759,-3.1716,-3.2486,-3.265,-3.2717,-3.2837,-3.3224,-3.3218,-3.2476,-3.3101,-3.3536,-3.3305,-3.3942,-3.4279,-3.3952,-3.4676,-3.5093,-3.5029,-3.4968,-3.5102,-3.5378,-3.5378,-3.5543,-3.5817,-3.6145,-3.6332,-3.6332,-3.6332,-3.6332,-3.6332,-3.6332,-3.6332,-3.6332,-3.6332,-3.6332,-3.6332,-3.6332,-3.6332,-3.6332,-3.6332,-3.6415,-3.6714,-3.7219,-3.7724,-3.8252,-3.8757,-3.9101,-3.9308,-3.9308,-3.9308,-3.9354,-3.9607,-3.9859,-4.0264,-4.0961,-4.1558,-4.2017,-4.2206,-4.2275,-4.2275,-4.2275,-4.2275,-4.2408,-4.266,-4.3096,-4.3579,-4.4107,-4.4612,-4.5048,-4.5369,-4.5438,-4.5438,-4.5438,-4.5438,-4.5438,-4.5438,-4.5438,-4.5438,-4.5438,-4.5438,-4.5438,-4.5438,-4.5438,-4.5438,-4.5438,-4.5006,-4.48,-4.48,-4.409,-4.3328,-4.2559,-4.2208,-4.1664,-4.0954,-4.0882,-4.0882,-4.0882,-4.0882,-4.0882,-4.0882,-4.0882,-4.0882,0.0,0.0,0.0,0.0,0.0,-3.0578,0.0,0.0,0.0,-3.2739,-3.2364,-3.2033,0.0,0.0,0.0,-3.2549,0.0,0.0,0.0,-3.2841,0.0,-3.3119,-3.3462,-3.3532,-3.3079,-3.4005,-3.4661,-3.4778,-3.4593,-3.4525,-3.4658,-3.5046,-3.5268,-3.5378,-3.5982,-3.6332,-3.6332,-3.6332,-3.6332,-3.6332,-3.6332,-3.6332,-3.6332,-3.6332,-3.6332,-3.6332,-3.6332,-3.6332,-3.6332,-3.6369,-3.6714,-3.7219,-3.7632,-3.8114,-3.8642,-3.9124,-3.9308,-3.9308,-3.9308,-3.9308,-3.9377,-3.9942,-4.0241,-4.0586,-4.1443,-4.2017,-4.2275,-4.2275,-4.2275,-4.2275,-4.2275,-4.2344,-4.2591,-4.2982,-4.3533,-4.4084,-4.452,-4.5002,-4.5438,-4.5438,-4.5438,-4.5438,-4.5438,-4.5438,-4.5438,-4.5438,-4.5438,-4.5438,-4.5438,-4.5438,-4.5438,-4.5438,-4.5438,-4.5438,-4.5438,-4.4663,-4.4159,-4.4159,-4.3536,-4.277,-4.2018,-4.1877,-4.1523,-4.0954,-4.0882,-4.0882,-4.0882,-4.0882,-4.0882,-4.0882,-4.0882,-4.0882,0.0,0.0,0.0,0.0,-3.0668,0.0,-3.1294,0.0,-3.2239,-3.2356,0.0,0.0,0.0,0.0,0.0,0.0,0.0,0.0,-3.2748,-3.2669,-3.2594,-3.2527,-3.2566,-3.2514,-3.2411,-3.3341,-3.4324,-3.5306,-3.4813,-3.4747,-3.5268,-3.4858,-3.488,-3.5378,-3.5982,-3.6332,-3.6332,-3.6332,-3.6332,-3.6332,-3.6332,-3.6332,-3.6332,-3.6332,-3.6332,-3.6332,-3.6332,-3.6332,-3.63,-3.6759,-3.7242,-3.7701,-3.777,-3.8114,-3.8642,-3.9124,-3.9308,-3.9308,-3.9308,-3.9308,-3.9377,-3.9942,-4.0724,-4.1512,-4.2086,-4.2293,-4.2275,-4.2275,-4.2275,-4.2275,-4.2275,-4.266,-4.3028,-4.3074,-4.3808,-4.4543,-4.4589,-4.5002,-4.5438,-4.5438,-4.5438,-4.5438,-4.5438,-4.5438,-4.5438,-4.5438,-4.5438,-4.5438,-4.5438,-4.5438,-4.5438,-4.5438,-4.5438,-4.5438,-4.5438,-4.4663,-4.4159,-4.4159,-4.3536,-4.277,-4.2018,-4.1381,-4.1025,-4.0882,-4.0882,-4.0882,-4.0882,-4.0882,-4.0882,-4.0882,-4.0882,-4.0882,0.0,0.0,0.0,0.0,0.0,0.0,-3.2351,0.0,-3.3061,0.0,0.0,0.0,0.0,0.0,0.0,0.0,-3.2962,0.0,0.0,0.0,-3.2188,-3.2446,0.0,0.0,-3.2909,-3.2936,-3.3231,-3.3999,-3.3759,-3.3652,-3.3818,-3.4267,-3.4636,-3.4858,-3.5817,-3.6332,-3.6332,-3.6332,-3.6332,-3.6332,-3.6332,-3.6332,-3.6332,-3.6332,-3.6332,-3.6332,-3.6332,-3.6332,-3.6378,-3.6828,-3.7333,-3.7816,-3.8137,-3.855,-3.9033,-3.9239,-3.9308,-3.9308,-3.9308,-3.9492,-3.9882,-4.0747,-4.142,-4.2063,-4.2206,-4.2275,-4.2275,-4.2275,-4.2275,-4.2275,-4.2275,-4.2706,-4.3165,-4.3441,-4.4061,-4.4681,-4.4979,-4.5209,-4.5438,-4.5438,-4.5438,-4.5438,-4.5438,-4.5438,-4.5438,-4.5438,-4.5438,-4.5438,-4.5438,-4.5438,-4.5438,-4.5438,-4.5438,-4.5438,-4.5438,-4.4297,-4.3536,-4.3536,-4.2489,-4.1855,-4.2018,-4.131,-4.0882,-4.0882,-4.0882,-4.0882,-4.0882,-4.0882,-4.0882,-4.0882,-4.0882,-4.0882,-3.1483,0.0,0.0,0.0,0.0,0.0,0.0,0.0,0.0,0.0,0.0,0.0,0.0,0.0,0.0,0.0,0.0,-3.2751,0.0,-3.1926,0.0,0.0,0.0,0.0,0.0,-3.2737,-3.2713,-3.3012,-3.3063,-3.3061,-3.3029,-3.3979,-3.458,-3.4747,-3.5763,-3.6332,-3.6332,-3.6168,-3.6168,-3.6332,-3.6145,-3.6168,-3.6332,-3.6332,-3.6332,-3.6332,-3.6332,-3.6346,-3.653,-3.7035,-3.754,-3.8045,-3.8573,-3.8987,-3.9308,-3.9308,-3.9308,-3.9308,-3.9308,-3.9721,-4.041,-4.1283,-4.1926,-4.2275,-4.2275,-4.2275,-4.2275,-4.2275,-4.2275,-4.2298,-4.25,-4.2913,-4.3418,-4.39,-4.4428,-4.491,-4.5346,-4.5438,-4.5438,-4.5438,-4.5438,-4.5438,-4.5438,-4.5438,-4.5438,-4.5438,-4.5438,-4.5438,-4.5438,-4.5438,-4.5438,-4.5438,-4.5438,-4.5438,-4.5438,-4.4159,-4.3258,-4.2818,-4.1785,-4.1381,-4.1664,-4.1167,-4.0882,-4.0882,-4.0882,-4.0882,-4.0882,-4.0882,-4.0882,-4.0882,-4.0882,-4.0882,0.0,0.0,0.0,-3.3081,0.0,0.0,0.0,0.0,-3.4356,0.0,0.0,0.0,0.0,0.0,0.0,0.0,0.0,0.0,0.0,0.0,0.0,0.0,0.0,0.0,0.0,-3.2891,-3.3205,-3.3205,-3.3514,-3.3682,-3.3759,-3.4229,-3.4747,-3.5378,-3.5982,-3.6332,-3.6332,-3.5708,-3.5708,-3.6277,-3.5708,-3.5708,-3.6332,-3.6332,-3.6332,-3.6332,-3.6332,-3.6553,-3.7002,-3.7563,-3.8068,-3.8596,-3.9101,-3.9285,-3.9308,-3.9308,-3.9308,-3.9308,-3.9308,-3.9951,-4.0892,-4.1397,-4.1926,-4.2275,-4.2275,-4.2275,-4.2275,-4.2275,-4.2275,-4.2454,-4.2936,-4.3418,-4.3923,-4.4451,-4.4956,-4.5415,-4.5438,-4.5438,-4.5438,-4.5438,-4.5438,-4.5438,-4.5438,-4.5438,-4.5438,-4.5438,-4.5438,-4.5438,-4.5438,-4.5438,-4.5438,-4.5438,-4.5438,-4.5438,-4.5438,-4.4663,-4.3536,-4.2159,-4.2018,-4.1664,-4.0954,-4.0954,-4.0882,-4.0882,-4.0882,-4.0882,-4.0882,-4.0882,-4.0882,-4.0882,-4.0882,-4.0882,0.0,0.0,-3.2418,-3.3384,0.0,0.0,0.0,0.0,0.0,0.0,0.0,0.0,0.0,0.0,0.0,0.0,0.0,0.0,0.0,0.0,0.0,0.0,0.0,0.0,0.0,-3.2577,-3.267,-3.2589,-3.2673,-3.2681,-3.2614,-3.3415,-3.4155,-3.4825,-3.5378,-3.5708,-3.5708,-3.5872,-3.5872,-3.5708,-3.5872,-3.6091,-3.6277,-3.5872,-3.5927,-3.6277,-3.5872,-3.6223,-3.7025,-3.7586,-3.8091,-3.8642,-3.9124,-3.9308,-3.9308,-3.9308,-3.9308,-3.94,-4.0066,-4.0755,-4.1397,-4.1903,-4.2201,-4.2275,-4.2275,-4.2275,-4.2275,-4.2275,-4.2568,-4.2867,-4.3051,-4.3716,-4.4382,-4.4566,-4.4979,-4.5438,-4.5438,-4.5438,-4.5438,-4.5438,-4.5438,-4.5438,-4.5438,-4.5438,-4.5438,-4.5438,-4.5438,-4.5438,-4.5438,-4.5438,-4.5438,-4.5438,-4.5438,-4.5438,-4.5438,-4.4663,-4.3536,-4.2089,-4.2018,-4.1664,-4.0954,-4.0882,-4.0882,-4.0882,-4.0882,-4.0882,-4.0882,-4.0882,-4.0882,-4.0882,-4.0882,-4.0882,-3.3085,-3.295,0.0,-3.3944,-3.4173,0.0,-3.5487,0.0,-3.5554,0.0,0.0,0.0,0.0,0.0,0.0,0.0,0.0,0.0,0.0,-3.0668,0.0,0.0,0.0,0.0,0.0,-3.2194,-3.2022,-3.1785,-3.2062,-3.2175,-3.2051,-3.305,-3.3952,-3.4825,-3.4969,-3.5212,-3.5378,-3.5598,-3.5488,-3.5102,-3.5488,-3.5653,-3.5653,-3.5268,-3.5433,-3.595,-3.5723,-3.6162,-3.694,-3.7497,-3.802,-3.8521,-3.8817,-3.9072,-3.9308,-3.9308,-3.9423,-3.9698,-4.0525,-4.1145,-4.165,-4.2178,-4.2275,-4.2275,-4.2275,-4.2275,-4.2321,-4.2545,-4.2844,-4.3165,-4.3533,-4.4107,-4.4658,-4.4841,-4.5117,-4.5438,-4.5438,-4.5438,-4.5438,-4.5438,-4.5438,-4.5438,-4.5438,-4.5438,-4.5438,-4.5438,-4.5438,-4.5438,-4.5438,-4.5438,-4.5438,-4.5438,-4.5438,-4.5278,-4.5006,-4.4228,-4.3258,-4.2089,-4.2018,-4.1664,-4.0954,-4.0882,-4.111,-4.1586,-4.1131,-4.111,-4.1607,-4.111,-4.0882,-4.0882,-4.0882,-4.0882]},{"header":{"parameterUnit":"m.s-1","parameterCategory":1,"la1":30.6,"la2":29.2853,"lo1":-89.7004,"lo2":-87.6739,"dx":0.0162,"dy":0.0183,"nx":112,"ny":82,"refTime":"2023-02-02T06:00:00:Z","depth":0,"parameterNumber":3,"parameterNumberName":"V-component_of_WINDS"},"data":[0.0,0.0,0.0,0.0,0.0,0.0,0.0,0.0,0.0,0.0,0.0,0.0,0.0,0.0,0.0,0.0,0.0,0.0,0.0,0.0,0.0,0.0,0.0,0.0,0.0,0.0,0.0,0.0,0.0,0.0,0.0,0.0,0.0,0.0,0.0,0.0,0.0,0.0,0.0,0.0,0.0,0.0,0.0,0.0,0.0,0.0,0.0,0.0,0.0,0.0,0.0,0.0,0.0,0.0,0.0,0.0,0.0,0.0,0.0,0.0,0.0,0.0,0.0,0.0,0.0,0.0,0.0,0.0,0.0,0.0,0.0,0.0,0.0,0.0,0.0,0.0,0.0,0.0,0.0,0.0,0.0,0.0,0.0,0.0,0.0,0.0,0.0,0.0,0.0,0.0,3.887,3.8159,3.7415,3.6965,3.6965,3.6366,3.5938,3.5938,0.0,0.0,0.0,0.0,0.0,0.0,0.0,0.0,0.0,0.0,0.0,0.0,0.0,0.0,0.0,0.0,0.0,0.0,0.0,0.0,0.0,0.0,0.0,0.0,0.0,0.0,0.0,0.0,0.0,0.0,0.0,0.0,0.0,0.0,0.0,0.0,0.0,0.0,0.0,0.0,0.0,0.0,0.0,0.0,0.0,0.0,0.0,0.0,0.0,0.0,0.0,0.0,0.0,0.0,0.0,0.0,0.0,0.0,0.0,0.0,0.0,0.0,0.0,0.0,0.0,0.0,0.0,0.0,0.0,0.0,0.0,0.0,0.0,0.0,0.0,0.0,0.0,0.0,0.0,0.0,0.0,0.0,0.0,0.0,0.0,0.0,0.0,0.0,0.0,0.0,0.0,0.0,0.0,0.0,0.0,0.0,0.0,0.0,0.0,0.0,0.0,0.0,0.0,0.0,3.9673,3.8903,3.8159,3.7719,3.7719,3.7618,3.755,3.755,0.0,0.0,0.0,0.0,0.0,0.0,0.0,0.0,0.0,0.0,0.0,0.0,0.0,0.0,0.0,0.0,0.0,0.0,0.0,0.0,0.0,0.0,0.0,0.0,0.0,0.0,0.0,0.0,0.0,0.0,0.0,0.0,0.0,0.0,0.0,0.0,0.0,0.0,0.0,0.0,0.0,0.0,0.0,0.0,0.0,0.0,0.0,0.0,0.0,0.0,0.0,0.0,0.0,0.0,0.0,0.0,0.0,0.0,0.0,0.0,0.0,0.0,0.0,0.0,0.0,0.0,0.0,0.0,0.0,0.0,0.0,0.0,0.0,0.0,0.0,0.0,0.0,0.0,0.0,0.0,0.0,0.0,0.0,0.0,0.0,0.0,0.0,0.0,0.0,0.0,0.0,0.0,0.0,0.0,0.0,0.0,0.0,0.0,0.0,0.0,0.0,0.0,0.0,3.991,3.9977,3.9639,3.8937,3.8497,3.8497,3.8125,3.7922,3.7922,3.7222,0.0,0.0,0.0,0.0,0.0,0.0,0.0,0.0,0.0,0.0,0.0,0.0,0.0,0.0,0.0,0.0,0.0,0.0,0.0,0.0,0.0,0.0,0.0,0.0,0.0,0.0,0.0,0.0,0.0,0.0,0.0,0.0,0.0,0.0,0.0,0.0,0.0,0.0,0.0,0.0,0.0,0.0,0.0,0.0,0.0,0.0,0.0,0.0,0.0,0.0,0.0,0.0,0.0,0.0,0.0,0.0,0.0,0.0,0.0,0.0,0.0,0.0,0.0,0.0,0.0,0.0,0.0,0.0,0.0,0.0,0.0,0.0,0.0,0.0,0.0,0.0,0.0,0.0,0.0,0.0,0.0,0.0,0.0,0.0,0.0,0.0,0.0,0.0,0.0,0.0,0.0,0.0,0.0,0.0,0.0,0.0,0.0,0.0,0.0,0.0,0.0,0.0,4.0113,4.0113,4.0113,3.9605,3.9242,3.9242,3.8759,3.8454,3.843,3.8454,0.0,0.0,0.0,0.0,0.0,0.0,0.0,0.0,0.0,0.0,0.0,0.0,0.0,0.0,0.0,0.0,0.0,0.0,0.0,0.0,0.0,0.0,0.0,0.0,0.0,0.0,0.0,0.0,0.0,0.0,0.0,0.0,0.0,0.0,0.0,0.0,0.0,0.0,0.0,0.0,0.0,0.0,0.0,0.0,0.0,0.0,0.0,0.0,0.0,0.0,0.0,0.0,0.0,0.0,0.0,0.0,0.0,0.0,0.0,0.0,0.0,0.0,0.0,0.0,0.0,0.0,0.0,0.0,0.0,0.0,0.0,0.0,0.0,0.0,0.0,0.0,0.0,0.0,0.0,0.0,0.0,0.0,0.0,0.0,0.0,0.0,0.0,0.0,0.0,0.0,0.0,0.0,0.0,0.0,0.0,0.0,0.0,0.0,0.0,0.0,0.0,0.0,4.0113,4.0113,4.0113,4.0045,4.0011,4.0011,4.0077,4.0102,3.9943,4.0077,0.0,0.0,0.0,0.0,0.0,0.0,0.0,0.0,0.0,0.0,0.0,0.0,0.0,0.0,0.0,0.0,0.0,0.0,0.0,0.0,0.0,0.0,0.0,0.0,0.0,0.0,0.0,0.0,0.0,0.0,0.0,0.0,0.0,0.0,0.0,0.0,0.0,0.0,0.0,0.0,0.0,0.0,0.0,0.0,0.0,0.0,0.0,0.0,0.0,0.0,0.0,0.0,0.0,0.0,0.0,0.0,0.0,0.0,0.0,0.0,0.0,0.0,0.0,0.0,0.0,0.0,0.0,0.0,0.0,0.0,0.0,0.0,0.0,0.0,0.0,0.0,0.0,0.0,0.0,0.0,0.0,0.0,0.0,0.0,0.0,0.0,0.0,0.0,0.0,0.0,0.0,0.0,0.0,0.0,0.0,0.0,0.0,0.0,0.0,0.0,0.0,0.0,4.0113,4.0113,4.0113,4.0113,4.0113,4.0113,4.0163,4.0163,4.0113,0.0,0.0,0.0,0.0,0.0,0.0,0.0,0.0,0.0,0.0,0.0,0.0,0.0,0.0,0.0,0.0,0.0,0.0,0.0,0.0,0.0,0.0,0.0,0.0,0.0,0.0,0.0,0.0,0.0,0.0,0.0,0.0,0.0,0.0,0.0,0.0,0.0,0.0,0.0,0.0,0.0,0.0,0.0,0.0,0.0,0.0,0.0,0.0,0.0,0.0,0.0,0.0,0.0,0.0,0.0,0.0,0.0,0.0,0.0,0.0,0.0,0.0,0.0,0.0,0.0,0.0,0.0,0.0,0.0,0.0,0.0,0.0,0.0,0.0,0.0,0.0,0.0,0.0,0.0,0.0,0.0,0.0,0.0,0.0,0.0,0.0,0.0,0.0,0.0,0.0,0.0,0.0,0.0,0.0,0.0,0.0,0.0,0.0,0.0,0.0,0.0,0.0,4.0113,4.0113,4.0113,4.0113,4.0113,4.0113,4.0113,4.0138,4.0163,4.0113,0.0,0.0,0.0,0.0,0.0,0.0,0.0,0.0,0.0,0.0,0.0,0.0,0.0,0.0,0.0,0.0,0.0,0.0,0.0,0.0,0.0,0.0,0.0,0.0,0.0,0.0,0.0,0.0,0.0,0.0,0.0,0.0,0.0,0.0,0.0,0.0,0.0,0.0,0.0,0.0,0.0,0.0,0.0,0.0,0.0,0.0,0.0,0.0,0.0,0.0,0.0,0.0,0.0,0.0,0.0,0.0,0.0,0.0,0.0,0.0,0.0,0.0,0.0,0.0,0.0,0.0,0.0,0.0,0.0,0.0,0.0,0.0,0.0,0.0,0.0,0.0,0.0,0.0,0.0,0.0,0.0,0.0,0.0,0.0,0.0,0.0,0.0,0.0,0.0,0.0,0.0,0.0,0.0,0.0,0.0,0.0,0.0,0.0,0.0,0.0,0.0,0.0,4.0113,4.0113,4.0113,4.0113,4.0113,4.0113,4.0113,4.0213,4.0238,0.0,0.0,0.0,0.0,0.0,0.0,0.0,0.0,0.0,0.0,0.0,0.0,0.0,0.0,0.0,0.0,0.0,0.0,0.0,0.0,0.0,0.0,0.0,0.0,0.0,0.0,0.0,0.0,0.0,0.0,0.0,0.0,0.0,0.0,0.0,0.0,0.0,0.0,0.0,0.0,0.0,0.0,0.0,0.0,0.0,0.0,0.0,0.0,0.0,0.0,0.0,0.0,0.0,0.0,0.0,0.0,0.0,0.0,0.0,0.0,0.0,0.0,0.0,0.0,0.0,0.0,0.0,0.0,0.0,0.0,0.0,0.0,0.0,0.0,0.0,0.0,0.0,0.0,0.0,0.0,0.0,0.0,0.0,0.0,0.0,0.0,0.0,0.0,0.0,0.0,0.0,0.0,0.0,0.0,0.0,0.0,0.0,0.0,0.0,0.0,0.0,0.0,0.0,4.0129,4.0402,4.0476,4.0138,4.0113,4.0113,4.0113,4.0138,4.0138,4.0113,0.0,0.0,0.0,0.0,0.0,0.0,0.0,0.0,0.0,0.0,0.0,0.0,0.0,0.0,0.0,0.0,0.0,0.0,0.0,0.0,0.0,0.0,0.0,0.0,0.0,0.0,0.0,0.0,0.0,0.0,0.0,0.0,0.0,0.0,0.0,0.0,0.0,0.0,0.0,0.0,0.0,0.0,0.0,0.0,0.0,0.0,0.0,0.0,0.0,0.0,0.0,0.0,0.0,0.0,0.0,0.0,0.0,0.0,0.0,0.0,0.0,0.0,0.0,0.0,0.0,0.0,0.0,0.0,0.0,0.0,0.0,0.0,0.0,0.0,0.0,0.0,0.0,0.0,0.0,0.0,0.0,0.0,0.0,0.0,0.0,0.0,0.0,0.0,0.0,0.0,0.0,0.0,0.0,0.0,0.0,0.0,0.0,0.0,0.0,0.0,0.0,0.0,4.0138,4.0353,4.0427,4.0138,4.0113,4.0113,4.0113,4.0113,4.0154,4.0377,0.0,0.0,0.0,0.0,0.0,0.0,0.0,0.0,0.0,0.0,0.0,0.0,0.0,0.0,0.0,0.0,0.0,0.0,0.0,0.0,0.0,0.0,0.0,0.0,0.0,0.0,0.0,0.0,0.0,0.0,0.0,0.0,0.0,0.0,0.0,0.0,0.0,0.0,0.0,0.0,0.0,0.0,0.0,0.0,0.0,0.0,0.0,0.0,0.0,0.0,0.0,0.0,0.0,0.0,0.0,0.0,0.0,0.0,0.0,0.0,0.0,0.0,0.0,0.0,0.0,0.0,0.0,0.0,0.0,0.0,0.0,0.0,0.0,0.0,0.0,0.0,0.0,0.0,0.0,0.0,0.0,0.0,0.0,0.0,0.0,0.0,0.0,0.0,0.0,0.0,0.0,0.0,0.0,0.0,0.0,0.0,0.0,0.0,0.0,0.0,0.0,0.0,4.0188,4.0229,4.0279,4.0229,4.0179,4.0154,4.0154,4.0138,4.0279,4.0707,0.0,0.0,0.0,0.0,0.0,0.0,0.0,0.0,0.0,0.0,0.0,0.0,0.0,0.0,0.0,0.0,0.0,0.0,0.0,0.0,0.0,0.0,0.0,0.0,0.0,0.0,0.0,0.0,0.0,0.0,0.0,0.0,0.0,0.0,0.0,0.0,0.0,0.0,0.0,0.0,0.0,0.0,0.0,0.0,0.0,0.0,0.0,0.0,0.0,0.0,0.0,0.0,0.0,0.0,0.0,0.0,0.0,0.0,0.0,0.0,4.4184,4.4126,0.0,0.0,0.0,0.0,0.0,0.0,0.0,0.0,0.0,0.0,0.0,0.0,0.0,0.0,0.0,0.0,0.0,0.0,0.0,0.0,0.0,0.0,0.0,0.0,0.0,0.0,0.0,0.0,0.0,0.0,0.0,0.0,0.0,0.0,0.0,0.0,0.0,0.0,0.0,0.0,4.0752,4.1298,4.1609,4.1253,4.0896,4.0635,4.0635,4.0303,4.0129,4.0229,4.0524,0.0,0.0,0.0,0.0,0.0,0.0,0.0,0.0,0.0,0.0,0.0,0.0,0.0,0.0,0.0,0.0,0.0,0.0,0.0,0.0,0.0,0.0,0.0,0.0,0.0,0.0,0.0,0.0,0.0,0.0,0.0,0.0,0.0,0.0,0.0,0.0,0.0,0.0,0.0,0.0,0.0,0.0,0.0,0.0,0.0,0.0,0.0,0.0,0.0,0.0,0.0,0.0,0.0,0.0,0.0,0.0,0.0,0.0,0.0,4.427,4.4298,0.0,0.0,0.0,0.0,0.0,0.0,0.0,0.0,0.0,0.0,0.0,0.0,0.0,0.0,0.0,0.0,0.0,0.0,0.0,0.0,0.0,0.0,0.0,0.0,0.0,0.0,0.0,0.0,0.0,0.0,0.0,0.0,0.0,0.0,0.0,0.0,0.0,0.0,0.0,0.0,4.1116,4.1425,4.158,4.1197,4.0966,4.0896,4.1116,4.0908,4.0861,4.1094,4.1116,0.0,0.0,0.0,0.0,0.0,0.0,0.0,0.0,0.0,0.0,0.0,0.0,0.0,0.0,0.0,0.0,0.0,0.0,0.0,0.0,0.0,0.0,0.0,0.0,0.0,0.0,0.0,0.0,0.0,0.0,0.0,0.0,0.0,0.0,0.0,0.0,0.0,0.0,0.0,0.0,0.0,0.0,0.0,0.0,0.0,0.0,0.0,0.0,0.0,0.0,0.0,0.0,0.0,4.3864,4.3985,4.4044,4.4126,4.4241,4.4321,4.4321,4.444,4.4615,4.4615,0.0,0.0,0.0,0.0,0.0,0.0,0.0,0.0,0.0,0.0,0.0,0.0,0.0,0.0,0.0,0.0,0.0,0.0,0.0,0.0,0.0,0.0,4.5975,4.5545,4.6098,4.6543,4.5749,0.0,0.0,0.0,0.0,0.0,0.0,0.0,0.0,0.0,0.0,0.0,4.1877,4.185,4.1832,4.1603,4.1511,4.1626,4.1996,4.1952,4.2027,4.227,4.2015,4.1902,0.0,0.0,0.0,0.0,0.0,0.0,0.0,0.0,0.0,0.0,0.0,0.0,0.0,0.0,0.0,0.0,0.0,0.0,0.0,0.0,0.0,0.0,0.0,0.0,0.0,0.0,0.0,0.0,0.0,0.0,0.0,0.0,4.3598,4.3598,0.0,0.0,0.0,0.0,0.0,0.0,0.0,0.0,0.0,0.0,0.0,0.0,0.0,4.3898,4.3898,4.4044,4.4126,4.4207,4.4207,4.4355,4.4502,4.453,4.4559,4.4587,4.4587,0.0,4.4615,4.4615,0.0,0.0,0.0,0.0,0.0,0.0,0.0,0.0,0.0,0.0,0.0,0.0,0.0,0.0,0.0,0.0,0.0,0.0,0.0,0.0,0.0,0.0,4.6074,4.6,4.6098,4.6293,4.6637,4.595,4.532,4.532,4.532,4.5294,0.0,0.0,0.0,0.0,0.0,0.0,4.4192,4.4514,4.4751,4.4705,4.4335,4.412,4.4185,4.3832,4.3311,4.2687,4.2959,4.2661,4.1666,4.1931,0.0,0.0,0.0,0.0,0.0,0.0,0.0,0.0,0.0,0.0,0.0,0.0,0.0,0.0,0.0,0.0,0.0,0.0,0.0,0.0,0.0,0.0,0.0,0.0,0.0,0.0,0.0,0.0,0.0,4.3598,4.3598,4.3598,4.3598,4.3598,0.0,0.0,0.0,0.0,0.0,0.0,0.0,0.0,0.0,4.3864,4.3952,4.4015,4.4015,4.4155,4.4212,4.4212,4.4236,4.4355,4.444,4.4559,4.4615,4.4615,4.4615,4.4615,4.4615,4.4615,4.4615,4.4615,0.0,0.0,0.0,0.0,4.4615,4.4615,4.4615,4.4615,4.4615,4.4615,0.0,0.0,0.0,0.0,0.0,0.0,0.0,4.4961,4.5196,4.5451,4.5648,4.5648,4.5875,4.6074,4.6,4.5875,4.5825,4.6123,4.595,4.5648,4.5372,4.5545,0.0,0.0,0.0,4.4933,4.4434,4.4542,4.4746,4.4899,4.47,4.47,4.4967,4.4806,4.4557,4.4178,4.4345,4.4222,4.3662,4.3578,4.3365,0.0,0.0,0.0,0.0,0.0,0.0,0.0,0.0,0.0,0.0,0.0,0.0,0.0,0.0,0.0,0.0,0.0,0.0,0.0,0.0,0.0,0.0,0.0,0.0,0.0,0.0,0.0,0.0,4.3598,4.3598,4.3598,4.3598,4.3598,0.0,0.0,0.0,0.0,0.0,0.0,4.4097,4.4015,4.3985,4.4039,4.4068,4.4068,4.4039,4.4385,4.4481,4.4398,4.4682,4.4812,4.4841,4.4956,4.5042,4.5099,4.5099,4.5099,4.5156,4.475,4.4615,4.4615,4.4615,4.4615,4.4615,4.4615,4.4615,4.4615,4.4615,4.4615,4.4615,4.4615,4.4615,4.4643,4.4748,0.0,0.0,0.0,0.0,4.4797,4.4934,4.5249,4.5494,4.5494,4.59,4.6196,4.58,4.6024,4.6365,4.6637,4.6495,4.6172,4.5775,4.6024,0.0,4.5302,4.5477,4.554,4.5131,4.5086,4.5164,4.538,4.5373,4.5537,4.5904,4.5924,4.5816,4.5635,4.5599,4.5526,4.5309,4.4967,4.47,4.4593,0.0,0.0,0.0,0.0,0.0,0.0,0.0,0.0,0.0,0.0,0.0,0.0,0.0,0.0,0.0,0.0,0.0,0.0,0.0,0.0,0.0,0.0,0.0,0.0,0.0,0.0,0.0,0.0,0.0,4.3598,4.3598,0.0,0.0,0.0,0.0,4.3898,4.3898,4.3956,4.4097,4.4097,4.401,4.3927,4.401,4.4039,4.3898,4.4745,4.5169,4.5139,4.5842,4.6176,4.6176,4.624,4.6297,4.638,4.638,4.6503,4.6583,4.519,4.4615,4.4615,4.4615,4.4615,4.4615,4.4615,4.4615,4.4615,4.4615,4.4615,4.4615,4.4615,4.4615,4.4665,4.5108,4.4927,0.0,0.0,4.5267,4.5399,4.5875,4.6024,4.6049,4.6049,4.6495,4.6845,4.6822,4.6822,4.6707,4.622,4.6543,4.6845,4.6822,0.0,4.6822,4.6776,4.6799,4.6981,4.7457,4.7521,4.7542,4.7548,4.7548,4.7569,4.7591,4.7591,4.7265,4.6504,4.6432,4.6106,4.5345,4.5289,4.505,4.4593,4.5263,0.0,0.0,0.0,0.0,0.0,0.0,0.0,0.0,0.0,0.0,0.0,0.0,0.0,0.0,0.0,0.0,0.0,0.0,0.0,0.0,0.0,0.0,0.0,0.0,0.0,0.0,0.0,0.0,4.3598,4.3598,0.0,4.3598,4.3598,4.3687,4.3898,4.3898,4.3956,4.4097,4.4415,4.4593,4.4534,4.5027,4.5324,4.5263,4.5714,4.5909,4.5909,4.6176,4.631,4.631,4.6398,4.6455,4.6514,4.6634,4.6727,4.6752,4.621,4.6007,4.6007,4.6007,4.6007,4.6007,4.6007,4.6007,4.6007,4.6007,4.6007,4.6007,4.6007,4.6007,4.6065,4.6198,4.6396,4.6501,4.6311,4.6529,4.6815,4.7002,4.7055,4.7161,4.7557,4.7784,4.7932,4.7932,4.8175,4.8366,4.8199,4.7903,4.7725,4.7826,4.8495,4.8588,4.7497,4.7981,4.8366,4.8175,4.8495,4.8875,4.9199,4.922,4.922,4.922,4.922,4.8894,4.8098,4.804,4.7699,4.6902,4.683,4.6747,4.66,4.683,4.691,0.0,0.0,0.0,0.0,0.0,0.0,0.0,0.0,0.0,0.0,0.0,0.0,0.0,0.0,0.0,0.0,0.0,0.0,0.0,0.0,0.0,0.0,0.0,0.0,0.0,0.0,4.3598,4.3598,4.3598,4.3598,4.3598,4.3598,4.3687,4.3898,4.4131,4.4323,4.4436,4.505,4.536,4.5266,4.5763,4.5965,4.5903,4.6296,4.6491,4.6524,4.7024,4.7289,4.7352,4.7646,4.7872,4.8029,4.8091,4.8152,4.8274,4.8247,4.8213,4.8173,4.7192,4.6786,4.6786,4.6786,4.6786,4.6786,4.6786,4.6786,4.6786,4.6786,4.6786,4.6786,4.6786,4.7072,4.7233,4.6898,4.7072,4.7317,4.7317,4.7317,4.743,4.7842,4.8181,4.8425,4.8242,4.8781,4.9293,4.9348,4.9055,4.8839,4.8946,4.9611,4.9657,4.8329,4.8944,4.9341,4.8745,4.9198,4.9703,5.0067,5.0112,5.0112,5.0112,4.992,4.9658,4.9307,4.9117,4.8864,4.8532,4.8287,4.8091,4.7861,4.7573,4.7529,4.7699,0.0,0.0,0.0,0.0,0.0,0.0,0.0,0.0,0.0,0.0,0.0,0.0,0.0,0.0,0.0,0.0,0.0,0.0,0.0,0.0,0.0,0.0,0.0,4.3598,4.3598,4.3598,4.3598,4.3598,4.3598,4.3631,4.3631,4.3691,4.3935,4.4567,4.5027,4.5206,4.5942,4.6219,4.6029,4.6096,4.6036,4.5881,4.6643,4.7007,4.7007,4.8465,4.9227,4.9459,5.0092,5.0627,5.0991,5.0793,5.0892,5.1185,5.1089,5.1055,5.0947,4.8037,4.6921,4.6921,4.6921,4.6921,4.6887,4.6853,4.6853,4.6853,4.6853,4.6853,4.6853,4.6853,4.6883,4.6883,4.6853,4.6883,4.6883,4.6883,4.6883,4.6912,4.6912,4.772,4.833,4.7872,4.8582,4.9372,4.9609,4.9996,5.0234,5.0162,5.0162,4.997,4.9365,4.9775,0.0,4.9341,4.9775,5.0162,5.0162,5.0162,5.0162,5.0162,4.9613,4.9507,5.0104,4.96,4.9518,5.009,4.9541,4.8889,4.8163,4.7413,4.7245,4.7772,0.0,0.0,0.0,0.0,0.0,0.0,0.0,0.0,0.0,0.0,0.0,0.0,0.0,0.0,0.0,0.0,0.0,0.0,0.0,0.0,0.0,0.0,4.3598,4.3598,4.3598,4.3598,4.3598,4.3598,4.3797,4.4357,4.439,4.4652,4.5213,4.5445,4.5576,4.5607,4.6337,4.6736,4.664,4.7701,4.8232,4.8199,4.8928,4.9293,4.9326,4.9723,4.9956,4.999,5.0258,5.0459,5.0593,5.0793,5.0991,5.1089,5.112,5.1153,5.115,5.0304,4.9999,4.9999,4.9999,4.9661,4.912,4.8578,4.8409,4.8409,4.8409,4.8409,4.8409,4.8409,4.8707,4.8968,4.8497,4.8737,4.9056,4.9056,4.9056,4.9171,4.9556,4.9851,5.0321,5.1184,5.1612,5.214,5.3214,5.352,5.305,5.1442,5.156,5.163,5.1033,5.143,5.1607,5.1008,5.149,5.1654,5.1239,5.119,5.119,5.119,5.1033,5.0964,5.0972,5.081,5.0534,5.0126,4.9942,4.9767,4.955,4.9334,4.9292,0.0,0.0,0.0,0.0,0.0,0.0,0.0,0.0,0.0,0.0,0.0,0.0,0.0,0.0,0.0,0.0,0.0,0.0,0.0,0.0,0.0,0.0,4.3598,4.3598,4.3598,4.3598,4.3698,4.4026,4.4059,4.4357,4.5086,4.5152,4.5317,4.5748,4.6079,4.6245,4.6245,4.7239,4.7835,4.7835,4.8961,4.9558,4.9558,4.9988,5.022,5.022,5.0518,5.0685,5.0754,5.1156,5.1359,5.1461,5.1597,5.1732,5.1799,5.1799,5.1866,5.1866,0.0,0.0,0.0,0.0,5.0947,5.0507,5.0067,4.9932,4.9932,4.9932,4.9932,4.9932,4.9932,5.0147,5.0393,5.0026,5.0178,5.042,5.042,5.042,5.051,5.0863,5.109,5.1457,5.1996,5.2327,5.2745,5.3593,5.3904,0.0,5.2743,5.3097,5.3291,5.2702,5.3146,5.3267,5.2676,5.3146,5.3375,5.3012,5.2963,5.2963,5.2963,5.2441,0.0,0.0,0.0,5.1214,5.0746,5.041,0.0,0.0,0.0,4.9875,5.0112,5.0112,0.0,0.0,4.8713,4.8713,0.0,0.0,0.0,0.0,0.0,0.0,0.0,0.0,0.0,0.0,0.0,0.0,0.0,0.0,0.0,0.0,4.3664,4.3698,4.3698,4.3797,4.4059,4.4622,4.4754,4.5086,4.5847,4.5914,4.598,4.6146,4.6775,4.7173,4.7272,4.8531,0.0,0.0,0.0,5.032,5.032,5.0419,5.0452,5.0452,5.1082,5.1484,5.1623,5.2254,5.2659,5.2834,5.2659,5.2694,5.2834,5.2694,5.2729,5.2804,5.1831,5.1455,5.1422,5.1354,5.132,5.1319,5.1219,0.0,0.0,5.1185,5.1185,5.1185,5.1185,5.1185,5.1185,5.1185,5.1185,5.1185,5.1185,5.1185,5.1185,5.1185,5.1629,5.1909,5.1543,5.1856,5.2287,5.2451,5.2892,5.3437,5.3993,5.4522,5.4724,5.4164,5.4539,5.4699,5.4164,5.4564,5.4882,5.4834,5.4773,0.0,5.4773,5.3631,5.3186,5.3796,5.2664,5.1926,5.1819,5.1189,5.0795,5.0639,5.0008,4.9921,5.0365,5.0365,5.0365,5.0365,5.0184,5.0112,0.0,0.0,0.0,0.0,0.0,0.0,0.0,0.0,0.0,0.0,0.0,0.0,0.0,0.0,0.0,4.3598,4.4092,4.4489,4.4489,4.4986,4.5218,4.4754,4.5218,4.5881,4.6609,4.6676,4.7173,4.8365,4.8597,4.8928,4.9525,4.9856,4.9988,4.9988,5.0684,5.1116,5.1116,5.1678,5.1943,5.1976,5.2108,0.0,5.2246,5.2378,5.2445,5.2516,5.2553,5.2624,5.2659,5.2799,5.2868,5.2904,5.2842,5.2809,5.2741,5.2267,5.2097,5.1995,5.142,5.1185,5.1185,5.1185,5.1185,5.1185,5.1185,5.1185,0.0,5.1185,5.1185,5.1185,5.1185,5.1185,5.1185,5.1185,5.1314,5.1641,5.2663,5.2988,5.3406,5.454,5.4858,5.4975,5.5091,5.5007,5.4858,5.4724,5.4834,5.4858,5.4724,5.4834,5.4724,5.4251,5.4164,5.4164,5.4164,5.3917,5.4036,5.4605,5.4412,5.3966,5.3315,5.3135,5.2773,5.2123,5.1943,5.194,5.2045,5.2045,5.2045,5.2009,5.0728,5.0112,0.0,0.0,0.0,0.0,0.0,0.0,0.0,0.0,0.0,0.0,0.0,4.3598,0.0,0.0,4.3698,4.4092,4.4456,4.4821,4.5185,4.5881,4.6212,4.5847,4.6113,4.6775,4.7901,4.8001,4.8465,4.9591,4.9657,4.9823,5.0187,5.0551,5.075,5.075,5.1481,5.1879,5.1879,5.2243,5.2409,5.2409,5.2409,5.2409,5.2409,5.2409,5.2409,5.2409,5.248,5.2516,5.2516,5.2622,5.2657,5.2692,5.2834,5.2972,5.3008,5.2707,5.2606,5.2573,5.2202,5.2034,5.2034,5.2034,5.2034,5.2034,5.2034,5.2034,5.2034,5.2034,5.2034,5.2034,5.2034,5.2034,5.2034,5.2034,5.2034,5.2269,5.2939,5.3171,5.3468,5.4166,5.461,5.4887,5.4887,5.5023,5.525,5.5574,5.56,5.5703,5.6016,5.6066,5.593,5.5605,5.5579,5.5579,5.5579,5.522,5.4961,5.4882,5.4907,5.4725,5.4327,5.4291,5.411,5.3711,5.3711,5.3711,5.3711,5.3711,5.3711,5.3675,5.2878,5.2082,0.0,0.0,0.0,0.0,0.0,0.0,0.0,0.0,4.3598,4.3598,4.3598,4.3631,4.3764,4.3797,4.4059,4.4787,4.5019,4.5317,4.5914,4.6643,4.7173,4.7305,4.7338,4.7802,4.8995,4.9226,4.9624,5.0353,5.0419,5.0485,5.0618,5.1181,5.1514,5.1514,5.2111,5.2409,5.2409,5.2409,5.2409,5.2409,5.2409,5.2409,5.2409,5.2409,5.2409,5.2409,5.2409,5.2409,5.2409,5.2409,5.2409,5.2409,5.2551,5.2659,5.2799,5.2868,5.2903,5.2903,5.2903,5.2903,5.2903,5.2903,5.2903,5.2903,5.2903,5.2903,5.2903,5.2903,5.2903,5.2903,5.2903,5.2903,5.2903,5.2903,5.2903,5.2903,5.2903,5.3007,5.3144,5.3144,5.3649,5.4104,5.4104,5.4548,5.5189,5.6007,5.6118,5.6311,5.6767,5.6845,5.6871,5.701,5.7036,5.7087,5.7188,5.6609,5.5957,5.5377,5.5341,5.5269,5.5124,5.5124,5.5051,5.4907,5.4907,5.4907,5.4907,5.4907,5.4907,5.4907,5.4907,5.4218,4.3598,4.3598,4.3598,4.3598,4.3598,4.3598,0.0,0.0,4.3598,4.3598,4.3598,4.3797,4.4456,4.4556,4.4821,4.5549,4.6212,4.6676,4.6775,4.7404,4.8133,4.8796,4.8862,4.8928,4.9094,4.969,5.0386,5.1149,5.1183,5.1481,5.2108,5.2208,5.231,5.231,5.2376,5.2409,5.2409,5.2409,5.2409,5.2409,5.2409,5.2409,5.2409,5.2409,5.2409,5.2409,5.2409,5.2409,5.2409,5.2409,5.2409,5.2409,5.2409,5.2445,5.248,5.2764,5.2903,5.2903,5.2903,5.2903,5.2903,5.2903,5.2903,5.2903,5.2903,5.2903,5.2903,5.2903,5.2903,5.2903,5.2903,5.2903,5.2903,5.2903,5.2903,5.2903,5.2903,5.2903,5.2938,5.2938,5.3007,5.3076,5.3076,5.3111,5.3715,5.5249,5.5519,5.5549,5.5572,5.5536,5.5738,5.6339,5.6393,5.6608,5.7138,5.7116,5.7043,5.6935,5.6935,5.6609,5.5921,5.5884,5.5558,5.4907,5.4907,5.4907,5.4907,5.4907,5.4907,5.4907,5.4907,5.4798,4.3598,4.3598,4.3598,0.0,4.3598,4.3598,4.3598,4.3598,4.3598,4.3598,4.3959,4.4324,4.4622,4.5052,4.5582,0.0,4.6709,4.7206,4.8067,4.8465,4.8928,4.9657,5.0121,5.0386,5.0386,5.0651,5.1148,5.1879,5.1945,5.2078,5.2409,5.2409,5.2409,5.2409,5.2409,5.2409,5.2409,5.2409,5.2409,5.2409,5.2409,5.2409,5.2409,5.2409,5.2409,5.2409,5.2409,5.2409,5.2409,5.2409,5.2409,5.2409,5.2409,5.2409,5.2409,5.2551,5.2622,5.2622,5.2622,5.2622,5.2622,5.2622,5.2622,5.2622,5.2622,5.2622,5.2622,5.2622,5.2622,5.2622,5.2622,5.2622,5.2622,5.2622,5.2622,5.2622,5.2622,5.2659,5.2729,5.2729,5.2834,5.2903,5.2903,5.2903,5.3145,5.3847,5.4264,5.4703,5.5159,5.5184,5.5332,5.5716,5.578,5.5894,5.6111,5.6138,5.6311,5.6635,5.6661,5.6675,5.6717,5.6681,5.6536,5.6247,5.6247,5.6247,5.6247,5.5883,5.5728,5.5702,5.5348,5.5185,4.3598,0.0,0.0,4.3598,4.3598,4.3598,4.3598,4.3764,4.3896,4.3896,4.4489,4.5052,4.5251,4.5715,4.6344,4.7073,4.7206,4.7636,4.8928,4.9094,4.9458,5.0386,5.0949,5.1382,5.158,5.1614,5.1846,5.2376,5.2409,5.2409,5.2409,5.2409,5.2409,5.2409,5.2409,5.2409,5.2409,5.2409,5.2409,5.2409,5.2409,5.2409,5.2409,5.2409,5.2409,5.2409,5.2409,5.2409,5.2409,5.2409,5.2409,5.2409,5.2409,5.2409,5.2409,5.2409,5.2409,5.2409,5.2409,5.2409,5.2409,5.2409,5.2409,5.2409,5.2409,5.2409,5.2409,5.2409,5.2409,5.2409,5.2409,5.2409,5.2409,5.2409,5.2409,5.2409,5.2409,5.248,5.2518,5.2518,5.2659,5.2764,5.2764,5.2764,5.2764,5.2764,5.3179,5.3748,5.4422,5.4637,5.4826,5.4948,5.5129,5.5249,5.5249,5.5249,5.5391,5.5887,5.5915,5.6166,5.674,5.6767,5.6819,5.6959,5.7036,5.7087,5.7087,5.675,5.6447,5.6284,5.5865,5.5455,0.0,0.0,4.3598,4.3598,4.3598,4.3598,4.3598,4.4158,4.4655,4.4655,4.5251,4.598,4.6709,4.6841,4.7106,4.7835,4.7968,4.8233,4.8995,4.9094,4.9657,5.1116,5.1282,5.158,0.0,5.2376,5.2409,5.2409,5.2409,5.2409,5.2409,5.2409,5.2409,5.2409,5.2409,5.2409,5.2409,5.2409,5.2409,5.2409,5.2409,5.2409,5.2409,5.2409,5.2409,5.2409,5.2409,5.2409,5.2409,5.2409,5.2409,5.2409,5.2409,5.2409,5.2409,5.2409,5.2409,5.2409,5.2409,5.2409,5.2409,5.2409,5.2409,5.2409,5.2409,5.2409,5.2409,5.2409,5.2409,5.2409,5.2409,5.2409,5.2409,5.2409,5.2409,5.2409,5.2409,5.2409,5.2409,5.2409,5.2409,5.2409,5.2409,5.2409,5.2409,5.2409,5.2445,5.2587,5.2938,5.3516,5.3945,5.3945,5.4482,5.4813,5.4813,5.4813,5.4813,5.4844,5.4844,5.5089,5.5629,5.5658,5.5894,5.641,5.668,5.6803,5.6803,5.7036,5.6881,5.6311,5.6284,5.5629,0.0,0.0,4.3598,4.3598,4.3992,4.4324,4.4324,4.4887,4.5417,4.5417,4.6013,4.6609,4.6841,4.7305,4.7703,4.7968,4.8398,4.8995,4.9756,5.0253,5.0916,5.1912,5.2045,0.0,0.0,0.0,0.0,5.2409,5.2409,5.2409,5.2409,5.2409,5.2409,5.2409,5.2409,5.2409,5.2409,5.2409,5.2409,5.2409,5.2409,5.2409,5.2409,5.2409,5.2409,5.2409,5.2409,5.2409,5.2409,5.2409,5.2409,5.2409,5.2409,5.2409,5.2409,5.2409,5.2409,5.2409,5.2409,5.2409,5.2409,5.2409,5.2409,5.2409,5.2409,5.2409,5.2409,5.2409,5.2409,5.2409,5.2409,5.2409,5.2409,5.2409,5.2409,5.2409,5.2409,5.2409,5.2409,5.2409,5.2409,5.2409,5.2409,5.2409,5.2409,5.2409,5.248,5.2553,5.2694,5.3008,5.3247,5.3247,5.3416,5.3516,5.3516,5.3516,5.3714,5.4166,5.4198,5.4482,5.5059,5.5059,5.5149,5.5332,5.5414,5.5536,5.5687,5.5332,5.5124,5.5039,5.4485,5.4009,0.0,4.3764,4.3992,4.3992,4.4556,4.5086,4.5086,4.5649,4.6179,4.6179,4.6775,4.7305,4.7305,4.7669,4.81,4.8365,4.8796,4.9458,5.0452,5.0982,5.158,5.231,5.2409,5.2409,0.0,0.0,0.0,5.2409,5.2409,5.2409,5.2409,5.2409,5.2409,5.2409,5.2409,5.2409,5.2409,5.2409,5.2409,5.2409,5.2409,5.2409,5.2409,5.2409,5.2409,5.2409,5.2409,5.2409,5.2409,5.2409,5.2409,5.2409,5.2409,5.2409,5.2409,5.2409,5.2409,5.2409,5.2409,5.2409,5.2409,5.2409,5.2409,5.2409,5.2409,5.2409,5.2409,5.2409,5.2409,5.2409,5.2409,5.2409,5.2409,5.2409,5.2409,5.2409,5.2409,5.2409,5.2409,5.2409,5.2409,5.2409,5.2409,5.2409,5.2409,5.2409,5.248,5.2551,5.2551,5.2624,5.2694,5.2694,5.2694,5.2694,5.2694,5.2694,5.2903,5.3349,5.3382,5.3615,5.4164,5.4195,5.429,5.4479,5.4603,5.473,5.4857,5.4513,5.4293,5.42,5.3682,5.3315,4.3631,4.4158,4.4688,4.4721,4.5284,4.5847,4.5847,4.6411,4.6974,4.6974,4.7504,4.8001,0.0,0.0,4.8233,4.8995,4.9127,4.9657,5.1116,5.1348,5.1614,0.0,0.0,0.0,0.0,0.0,0.0,5.2409,0.0,5.2409,5.2409,5.2409,5.2409,5.2409,5.2409,5.2409,5.2409,5.2409,5.2409,5.2409,5.2409,5.2409,5.2409,5.2409,5.2409,5.2409,5.2409,5.2409,5.2409,5.2409,5.2409,5.2409,5.2409,5.2409,5.2409,5.2409,5.2409,5.2409,5.2409,5.2409,5.2409,5.2409,5.2409,5.2409,5.2409,5.2409,5.2409,5.2409,5.2409,5.2409,5.2409,5.2409,5.2409,5.2409,5.2409,5.2409,5.2409,5.2409,5.2409,5.2409,5.2409,5.2409,5.2409,5.2409,5.2409,5.2409,5.2409,5.2409,5.2409,5.2409,5.2409,5.2409,5.2409,5.2409,5.2409,5.2409,5.2409,5.2409,5.2409,5.2589,5.3043,5.3077,5.3315,5.3814,5.4136,5.4296,5.4296,5.4541,5.4385,5.3847,5.3847,5.3483,4.4257,4.4556,4.4821,4.5384,4.6046,4.6609,4.6609,4.7173,4.7736,4.7736,4.7868,4.8001,0.0,0.0,0.0,4.8995,4.9558,0.0,5.1183,5.1779,0.0,5.2409,0.0,5.2409,5.2409,5.2409,0.0,0.0,5.2409,5.2409,5.2409,5.2409,5.2409,5.2409,5.2409,5.2409,5.2409,5.2409,5.2409,5.2409,5.2409,5.2409,5.2409,5.2409,5.2409,5.2409,5.2409,5.2409,5.2409,5.2409,5.2409,5.2409,5.2409,5.2409,5.2409,5.2409,5.2409,5.2409,5.2409,5.2409,5.2409,5.2409,5.2409,5.2409,5.2409,5.2409,5.2409,5.2409,5.2409,5.2409,5.2409,5.2409,5.2409,5.2409,5.2409,5.2409,5.2409,5.2409,5.2409,5.2409,5.2409,5.2409,5.2409,5.2409,5.2409,5.2409,5.2409,5.2409,5.2409,5.2409,5.2409,5.2409,5.2409,5.2409,5.2409,5.2409,5.2409,5.2409,5.2409,5.2445,5.2553,5.2553,5.2624,5.2764,5.2868,5.2939,5.3076,5.3111,5.3145,5.3145,5.3008,5.2868,4.4375,4.5059,4.5748,4.6179,4.6841,4.7371,4.7371,4.7703,4.8001,4.8001,4.8001,0.0,4.8001,0.0,0.0,0.0,0.0,0.0,5.1647,5.2144,5.2409,0.0,5.2409,0.0,5.2409,5.2409,5.2409,0.0,5.2409,5.2409,5.2409,5.2409,5.2409,5.2409,5.2409,5.2409,5.2409,5.2409,5.2409,5.2409,5.2409,5.2409,5.2409,5.2409,5.2409,5.2409,5.2409,5.2409,5.2409,5.2409,5.2409,5.2409,5.2409,5.2409,5.2409,5.2409,5.2409,5.2409,5.2409,5.2409,5.2409,5.2409,5.2409,5.2409,5.2409,5.2409,5.2409,5.2409,5.2409,5.2409,5.2409,5.2409,5.2409,5.2409,5.2409,5.2409,5.2409,5.2409,5.2409,5.2409,5.2409,5.2409,5.2409,5.2409,5.2409,5.2409,5.2409,5.2409,5.2409,5.2409,5.2409,5.2409,5.2409,5.2409,5.2409,5.2409,5.2409,5.2409,5.2409,5.2409,5.2409,5.2409,5.2409,5.2409,5.2409,5.2445,5.2516,5.2516,5.2587,5.2692,5.2587,5.2516,4.4292,4.5498,4.6744,4.691,4.7472,4.7935,4.8001,4.8001,4.7968,4.7935,0.0,4.7968,4.7803,4.7902,4.8431,4.9686,0.0,5.0684,5.2078,5.2343,5.2409,5.2409,5.2409,5.2409,5.2409,5.2409,5.2409,5.2409,5.2409,5.2409,5.2409,5.2409,5.2409,5.2409,5.2409,5.2409,5.2409,5.2409,5.2409,5.2409,5.2409,5.2409,5.2409,5.2409,5.2409,5.2409,5.2409,5.2409,5.2409,5.2409,5.2409,5.2409,5.2409,5.2409,5.2409,5.2409,5.2409,5.2409,5.2409,5.2409,5.2409,5.2409,5.2409,5.2409,5.2409,5.2409,5.2409,5.2409,5.2409,5.2409,5.2409,5.2409,5.2409,5.2409,5.2409,5.2409,5.2409,5.2409,5.2409,5.2409,5.2409,5.2409,5.2409,5.2409,5.2409,5.2409,5.2409,5.2409,5.2409,5.2409,5.2409,5.2409,5.2409,5.2409,5.2409,5.2409,5.2409,5.2409,5.2409,5.2409,5.2409,5.2409,5.2409,5.2409,5.2409,5.2409,5.2409,5.2409,5.2409,5.2409,5.2409,5.2409,4.4784,4.5339,4.5863,4.7045,4.7439,4.7605,4.7935,4.8001,0.0,0.0,4.777,4.7704,4.6756,4.737,4.8067,4.8276,0.0,0.0,0.0,0.0,5.2409,0.0,0.0,0.0,0.0,0.0,0.0,0.0,5.2409,5.2409,5.2409,5.2409,5.2409,5.2409,5.2409,5.2409,5.2409,5.2409,5.2409,5.2409,5.2409,5.2409,5.2409,5.2409,5.2409,5.2409,5.2409,5.2409,5.2409,5.2409,5.2409,5.2409,5.2409,5.2409,5.2409,5.2409,5.2409,5.2409,5.2409,5.2409,5.2409,5.2409,5.2409,5.2409,5.2409,5.2409,5.2409,5.2409,5.2409,5.2409,5.2409,5.2409,5.2409,5.2409,5.2409,5.2409,5.2409,5.2409,5.2409,5.2409,5.2409,5.2409,5.2409,5.2409,5.2409,5.2409,5.2409,5.2409,5.2409,5.2409,5.2409,5.2409,5.2409,5.2409,5.2409,5.2409,5.2409,5.2409,5.2409,5.2409,5.2409,5.2409,5.2409,5.2409,5.2409,5.2409,5.2409,5.2409,5.2409,5.2409,5.2409,5.2409,4.4464,4.5146,4.5864,4.7075,4.727,4.7302,4.7869,0.0,0.0,0.0,4.7571,4.7371,4.6477,0.0,0.0,0.0,0.0,0.0,0.0,0.0,0.0,0.0,0.0,0.0,0.0,0.0,5.2409,5.2409,5.2409,5.2409,5.2409,5.2409,5.2409,5.2409,5.2409,5.2409,5.2409,5.2409,5.2409,5.2409,5.2409,5.2409,5.2409,5.2409,5.2409,5.2409,5.2409,5.2409,5.2409,5.2409,5.2409,5.2409,5.2409,5.2409,5.2409,5.2409,5.2409,5.2409,5.2409,5.2409,5.2409,5.2409,5.2409,5.2409,5.2409,5.2409,5.2409,5.2409,5.2409,5.2409,5.2409,5.2409,5.2409,5.2409,5.2409,5.2409,5.2409,5.2409,5.2409,5.2409,5.2409,5.2409,5.2409,5.2672,5.2904,5.2904,5.3235,5.35,5.35,5.35,5.3334,5.297,5.2904,5.2904,5.2904,5.2904,5.2771,5.2407,5.2409,5.2409,5.2409,5.2409,5.2409,5.2409,5.2409,5.2409,5.2409,5.2409,5.2409,5.2409,5.2409,5.2409,4.3871,4.4746,4.5725,4.6709,4.6866,4.6961,4.7605,4.7172,0.0,0.0,4.694,4.6703,4.6077,0.0,0.0,0.0,0.0,0.0,0.0,0.0,0.0,0.0,0.0,0.0,0.0,0.0,0.0,5.2409,5.2409,5.2409,5.2409,5.2409,5.2409,5.2409,5.2409,5.2409,5.2409,5.2409,5.2409,5.2409,5.2409,5.2409,5.2409,5.2409,5.2409,5.2409,5.2409,5.2409,5.2409,5.2409,5.2409,5.2409,5.2409,5.2409,5.2409,5.2409,5.2409,5.2409,5.2409,5.2409,5.2409,5.2409,5.2409,5.2409,5.2409,5.2409,5.2409,5.2409,5.2409,5.2409,5.2409,5.2409,5.2409,5.2409,5.2409,5.2409,5.2409,5.2409,5.2409,5.2409,5.2506,5.2605,5.2605,5.3169,5.3665,5.3665,5.4162,5.449,5.449,5.449,5.4324,5.393,5.3732,5.3665,5.3665,5.3665,5.34,5.287,5.2837,5.2837,5.2837,5.2672,5.2605,5.2605,5.244,5.2409,5.2409,5.2409,5.2409,5.2409,5.2409,5.2409,4.3101,4.3805,4.4511,4.5317,4.5958,4.6477,4.6927,0.0,0.0,4.5546,4.5413,4.5309,4.4922,4.5993,0.0,0.0,0.0,4.9807,0.0,0.0,0.0,0.0,0.0,0.0,0.0,5.2409,5.2409,5.2409,5.2409,5.2409,5.2409,5.2409,5.2409,5.2409,5.2409,5.2409,5.2409,5.2409,5.2409,5.2409,5.2409,5.2409,5.2409,5.2409,5.2409,5.2409,5.2409,5.2409,5.2409,5.2409,5.2409,5.2409,5.2409,5.2409,5.2409,5.2409,5.2409,5.2409,5.2409,5.2409,5.2409,5.2409,5.2409,5.2409,5.2409,5.2409,5.2409,5.2409,5.2409,5.2409,5.2409,5.2409,5.2409,5.2409,5.2409,5.2409,5.2409,5.2409,5.2409,5.2409,5.287,5.3334,5.3334,5.393,5.439,5.439,5.4494,5.449,5.449,5.449,5.4721,5.5317,5.4787,5.439,5.439,5.439,5.4357,5.4328,5.4328,5.4328,5.4328,5.3665,5.3334,5.3334,5.2705,5.2409,5.2409,5.2409,5.2409,5.2409,5.2409,5.2409,4.2706,4.3087,4.3504,4.4443,4.4724,4.4881,4.5496,0.0,4.4466,4.4193,4.4158,4.3937,4.3427,4.4625,4.555,0.0,0.0,0.0,0.0,0.0,0.0,0.0,0.0,0.0,0.0,0.0,5.2302,5.205,5.1798,5.1619,5.1619,5.2089,5.2409,5.2409,5.2409,5.2409,5.2409,5.2409,5.2409,5.2409,5.2409,5.2409,5.2409,5.2409,5.2409,5.2409,5.2409,5.2409,5.2409,5.2409,5.2409,5.2409,5.2409,5.2409,5.2409,5.2409,5.2409,5.2409,5.2409,5.2409,5.2409,5.2409,5.2409,5.2409,5.2409,5.2409,5.2409,5.2409,5.2409,5.2409,5.2409,5.2409,5.2409,5.2409,5.2409,5.2409,5.2409,5.2705,5.3003,5.3003,5.3599,5.4063,5.4063,5.4655,5.5152,5.5152,5.5554,5.5819,5.5819,5.5819,5.5951,5.6216,5.562,5.5152,5.5152,5.5152,5.4953,5.4523,5.449,5.449,5.449,5.4229,5.4063,5.4063,5.3798,5.3467,5.3003,5.3003,5.2771,5.2409,5.2409,5.2409,4.2187,4.2505,4.2857,4.3637,4.3754,4.3844,0.0,0.0,4.3289,4.2981,4.2841,4.2709,4.2687,4.3744,4.4629,0.0,0.0,4.7826,0.0,0.0,0.0,0.0,0.0,5.1688,0.0,5.2017,5.1908,5.1614,5.1397,5.1322,5.1322,5.198,5.2302,5.2017,5.2158,5.223,5.223,5.2338,5.2409,5.2409,5.2409,5.2409,5.2409,5.2409,5.2409,5.2409,5.2409,5.2409,5.2409,5.2409,5.2409,5.2409,5.2409,5.2409,5.2409,5.2409,5.2409,5.2409,5.2409,5.2409,5.2409,5.2409,5.2409,5.2409,5.2409,5.2409,5.2409,5.2409,5.2409,5.2409,5.2409,5.2409,5.2409,5.2409,5.2409,5.244,5.2638,5.3069,5.3467,5.3699,5.4291,5.4821,5.4821,5.5454,5.5951,5.5951,5.6382,5.668,5.668,5.668,5.668,5.668,5.6249,5.5951,5.5951,5.5951,5.5719,5.5189,5.5156,5.5156,5.5156,5.4957,5.4821,5.4821,5.4589,5.4225,5.3732,5.3732,5.35,5.3003,5.2804,5.2572,4.1456,4.2126,4.2695,4.2695,4.32,4.3703,0.0,0.0,4.2559,4.1914,4.1494,4.1673,4.3134,4.3649,4.4268,4.5714,4.6792,0.0,4.7146,0.0,0.0,0.0,0.0,5.1102,5.1102,5.1102,5.1102,5.1102,5.154,0.0,5.1794,5.2194,5.198,5.114,5.1577,5.1831,5.1831,5.2194,5.2409,5.2409,5.2409,5.2409,5.2409,5.2409,5.2409,5.2409,5.2409,5.2409,5.2409,5.2409,5.2409,5.2409,5.2409,5.2409,5.2409,5.2409,5.2409,5.2409,5.2409,5.2409,5.2409,5.2409,5.2409,5.2409,5.2409,5.2409,5.2409,5.2409,5.2409,5.2409,5.2409,5.2409,5.2409,5.2409,5.2409,5.2572,5.3268,5.34,5.3632,5.4361,5.5052,5.5582,5.5582,5.6216,5.668,5.668,5.668,5.668,5.668,5.668,5.668,5.668,5.668,5.668,5.668,5.668,5.668,5.668,5.668,5.668,5.668,5.5984,5.5582,5.5582,5.4854,5.449,5.4494,5.4494,5.4456,5.4494,5.3732,5.3036,4.0987,4.148,4.1936,4.1936,4.2094,4.2252,4.2252,0.0,4.1227,4.0611,4.0081,4.019,4.1563,4.1889,4.2402,4.3753,4.494,0.0,0.0,0.0,0.0,0.0,5.1097,5.1577,0.0,0.0,5.1577,5.1577,5.1397,5.1322,5.1322,5.1434,5.1655,5.198,5.1871,5.1794,5.1794,5.1614,5.1508,5.1508,5.1508,5.1688,5.2013,5.2013,5.2158,5.2409,5.2409,5.2409,5.2409,5.2409,5.2409,5.2409,5.2409,5.2409,5.2409,5.2409,5.2409,5.2409,5.2409,5.2409,5.2409,5.2409,5.2409,5.2409,5.2409,5.2409,5.2409,5.2409,5.2409,5.2409,5.2409,5.2409,5.2506,5.297,5.3069,5.3301,5.403,5.4523,5.4953,5.5185,5.5852,5.6349,5.6349,5.6547,5.668,5.668,5.668,5.668,5.668,5.668,5.668,5.668,5.668,5.668,5.668,5.668,5.668,5.668,5.668,5.668,5.668,5.6481,5.6349,5.6349,5.6117,5.5752,5.5251,5.5251,5.4986,5.449,5.4258,5.4063,0.0,4.1055,4.1357,4.1555,4.1588,0.0,0.0,0.0,4.0885,4.0065,3.9847,4.0104,4.1258,4.142,4.1879,4.312,4.4447,0.0,0.0,0.0,0.0,5.0136,0.0,0.0,0.0,5.1092,5.1092,5.1092,5.0946,5.0838,5.0838,5.0989,5.1359,5.1908,5.1835,5.1688,5.154,5.1397,5.1285,5.1102,5.1102,5.1247,5.154,5.1725,5.1941,5.2194,5.2338,5.2409,0.0,5.2409,5.2409,5.2409,5.2409,5.2409,5.2409,5.2409,5.2409,5.2409,5.2409,5.2409,5.2409,5.2409,5.2302,5.2158,5.2158,5.2266,5.2409,5.2409,5.2409,5.2409,5.2409,5.2572,5.287,5.3301,5.3596,5.403,5.4754,5.5251,5.5648,5.5984,5.6382,5.668,5.668,5.668,5.668,5.668,5.668,5.668,5.668,5.668,5.668,5.668,5.668,5.668,5.668,5.668,5.668,5.668,5.668,5.668,5.668,5.668,5.668,5.668,5.668,5.6481,5.6017,5.6017,5.5653,5.4887,5.4887,5.4754,0.0,0.0,0.0,0.0,0.0,0.0,0.0,0.0,0.0,4.0161,4.0461,4.1128,4.1832,4.2046,4.2443,4.365,4.501,4.5727,0.0,4.7343,0.0,0.0,5.0253,0.0,5.001,4.9971,5.001,5.001,5.0331,5.0563,5.0563,5.0876,5.1102,5.1102,5.154,5.154,5.1102,5.1503,5.1503,5.1065,5.1065,5.1065,5.1065,5.154,5.1725,5.1762,5.2158,5.2302,5.2302,5.2338,5.2338,5.2338,5.2373,5.2409,5.2373,5.2373,5.2373,5.2373,5.2373,5.2338,5.2338,5.2338,5.2086,5.1794,5.1794,5.205,5.2338,5.2373,5.2373,5.2373,5.244,5.2901,5.3397,5.3496,5.4096,5.4754,5.5516,5.5648,5.5885,5.6547,5.668,5.668,5.668,5.668,5.668,5.668,5.668,5.668,5.668,5.668,5.668,5.668,5.668,5.668,5.668,5.668,5.668,5.668,5.668,5.668,5.668,5.668,5.668,5.668,5.668,5.668,5.668,5.668,5.6349,5.5648,5.5648,5.5284,0.0,0.0,0.0,0.0,0.0,0.0,0.0,0.0,0.0,0.0,0.0,4.1206,4.1863,4.2415,4.2831,4.314,4.473,4.589,4.5808,0.0,0.0,4.9892,5.0253,5.0448,5.037,5.064,5.0832,5.0832,5.0908,5.0951,5.0951,5.1027,5.1102,5.1102,5.121,5.121,5.1102,5.0908,5.0755,5.064,5.064,5.064,5.0679,5.1097,5.1285,5.1285,5.1359,5.1397,5.1434,5.1798,5.1941,5.1977,5.2266,5.2409,5.2338,5.205,5.2122,5.2338,5.205,5.1941,5.1871,5.1508,5.1577,5.1794,5.1794,5.1868,5.2013,5.2302,5.2194,5.2112,5.2964,5.3049,5.3329,5.475,5.5218,5.5516,5.6282,5.6448,5.6481,5.6647,5.668,5.668,5.668,5.668,5.668,5.668,5.668,5.668,5.668,5.668,5.668,5.668,5.668,5.668,5.668,5.668,5.668,5.668,5.668,5.668,5.668,5.668,5.668,5.668,5.668,5.668,5.668,5.668,5.6614,5.6448,5.6448,5.6349,0.0,0.0,0.0,0.0,0.0,0.0,0.0,0.0,0.0,0.0,0.0,0.0,4.2743,4.3198,4.3593,4.4222,4.5471,0.0,0.0,0.0,5.0097,4.9931,5.0253,5.0448,0.0,5.0409,5.0563,5.0563,5.0563,5.0563,5.0563,5.0563,5.0563,5.0563,5.0755,5.08,5.08,5.0602,5.0525,5.0525,5.0292,5.0331,5.0525,5.0755,5.08,5.08,5.0989,5.1102,5.1102,5.1359,5.1503,5.154,5.1977,5.198,5.1798,5.1798,5.1798,5.1798,5.1545,5.1503,5.1397,5.0984,5.0984,5.1205,5.1205,5.1205,5.1355,5.1977,5.2171,5.2388,5.2971,5.3301,5.3797,5.504,5.539,5.5634,5.5995,5.6093,5.6093,5.6093,5.629,5.6408,5.6408,5.6564,5.668,5.668,5.668,5.668,5.668,5.668,5.668,5.668,5.668,5.668,5.668,5.668,5.668,5.668,5.668,5.668,5.668,5.668,5.668,5.668,5.668,5.668,5.668,5.668,5.668,5.668,5.668,5.668,0.0,0.0,0.0,0.0,0.0,0.0,0.0,0.0,0.0,0.0,0.0,0.0,0.0,0.0,0.0,0.0,0.0,0.0,4.9623,5.0175,5.0292,4.9971,5.0175,0.0,4.9931,4.9892,4.9892,4.9892,4.9892,4.9892,4.9892,4.9892,4.9892,4.9892,5.0214,5.0409,5.0409,5.0486,5.0525,5.0486,5.0136,5.0175,5.0525,5.0525,5.0525,5.0525,5.0794,5.0914,5.0914,5.0951,5.0989,5.1027,5.154,5.1434,5.1172,5.1503,5.1359,5.1065,5.1027,5.0989,5.0914,5.0563,5.0448,5.0525,5.0525,5.0563,5.0788,5.1559,5.2198,5.2687,5.2828,5.3532,5.4373,5.494,5.523,5.5409,5.5409,5.5409,5.5409,5.5409,5.5806,5.6086,5.6086,5.6402,5.6603,5.6603,5.6603,5.6669,5.6768,5.6807,5.6912,5.7011,5.7011,5.7011,5.7011,5.7011,5.7011,5.7011,5.6812,5.668,5.668,5.668,5.668,5.668,5.668,5.668,5.668,5.668,5.668,5.668,5.668,5.668,4.0919,4.1122,0.0,0.0,0.0,0.0,0.0,0.0,0.0,0.0,0.0,0.0,0.0,0.0,0.0,0.0,0.0,4.8315,0.0,0.0,4.9971,4.9931,0.0,4.9971,4.9931,4.9892,4.9892,4.9892,4.9892,4.9892,4.9892,4.9892,4.9892,4.9892,4.9971,4.9979,4.9979,5.0331,5.0525,5.0525,5.0448,5.0448,5.0525,5.0525,5.0525,5.0486,5.0214,5.0058,5.0097,5.0448,5.0602,5.064,5.1059,5.1172,5.1065,5.0794,5.087,5.1027,5.0717,5.0602,5.0525,5.0097,5.0214,5.0525,5.0525,5.0755,5.1081,5.1533,5.1713,5.2016,5.2948,5.3527,5.4058,5.5118,5.5385,5.5409,5.5409,5.5409,5.5409,5.5409,5.5806,5.6086,5.6086,5.6165,5.6205,5.6205,5.6205,5.6435,5.7058,5.7443,5.7873,5.8502,5.8568,5.8568,5.8568,5.8568,5.8568,5.8568,5.7376,5.668,5.668,5.668,5.668,5.668,5.668,5.668,5.668,5.668,5.668,5.668,5.668,5.668,4.129,4.1423,4.1588,0.0,0.0,0.0,0.0,0.0,0.0,0.0,0.0,0.0,0.0,0.0,4.6868,4.7092,0.0,4.9236,4.9829,4.9892,4.9892,0.0,0.0,4.9892,4.9892,4.9892,4.9892,4.9892,4.9892,4.9892,4.9892,4.9892,4.9892,4.9892,4.9892,4.9892,4.9892,5.0058,5.0292,5.0525,5.0292,5.0292,5.0486,5.0253,5.0175,5.0175,5.001,4.9892,4.9931,5.0097,5.0175,5.0214,5.064,5.064,5.0448,5.0253,5.0292,5.0448,5.0253,5.0175,5.0136,4.9971,5.005,5.0175,5.0175,5.0586,5.1087,5.124,5.171,5.2357,5.3263,5.3716,5.4114,5.4893,5.4874,5.4707,5.4707,5.4707,5.4707,5.4707,5.5081,5.5401,5.5401,5.5929,5.6393,5.6676,5.7003,5.7445,5.8049,5.8283,5.8502,5.8866,5.8899,5.8899,5.8899,5.8899,5.8899,5.8899,5.827,5.7707,5.7309,5.7276,5.7111,5.668,5.668,5.668,5.668,5.668,5.668,5.668,5.668,5.668,4.1588,4.1588,4.1588,0.0,0.0,4.1999,4.2568,0.0,0.0,0.0,0.0,0.0,0.0,4.6708,0.0,4.892,4.9584,4.9892,4.9892,4.9892,4.9892,4.9892,4.9892,4.9892,4.9892,4.9892,4.9892,4.9892,4.9892,4.9892,4.9892,4.9892,4.9892,4.9892,4.9892,4.9892,4.9892,4.9892,5.0058,5.037,5.0018,5.0097,5.0486,5.0058,4.9971,5.005,4.9971,4.9892,4.9892,4.9892,4.9892,4.9931,5.0253,5.0175,4.9892,4.9892,4.9892,4.9892,4.9892,4.9892,4.9892,4.9892,4.9892,4.9923,5.0121,5.0532,5.1078,5.1426,5.2105,5.2858,5.3401,5.3819,5.4189,5.4571,5.4359,5.4103,5.4103,5.4103,5.4103,5.4103,5.4613,5.5005,5.5005,5.5908,5.6695,5.7028,5.7525,5.8041,5.861,5.8766,5.8873,5.9037,5.9193,5.9275,5.9429,5.9429,5.9429,5.9429,5.9098,5.8634,5.8071,5.8038,5.7707,5.6945,5.6945,5.6846,5.668,5.668,5.668,5.668,5.668,5.668,4.1588,4.1588,4.1588,4.1588,0.0,0.0,4.2663,0.0,0.0,0.0,0.0,0.0,0.0,4.7846,4.8983,4.971,4.99,4.9892,4.9892,0.0,4.9892,4.9892,4.9892,4.9892,4.9892,4.9892,4.9892,4.9892,4.9892,4.9892,4.9892,4.9892,4.9892,4.9892,4.9892,4.9892,4.9892,4.9892,4.9931,4.9971,4.9931,5.0097,5.0486,5.0058,5.0097,5.0448,5.0058,4.9892,4.9892,4.9892,4.9892,4.9892,4.9931,4.9931,4.9892,4.9892,4.9892,4.9892,4.9892,4.9892,4.9892,4.9892,4.9892,5.0058,5.069,5.0983,5.1259,5.2586,5.2997,5.3102,5.3134,5.364,5.4103,5.4146,5.4146,5.4103,5.4103,5.4103,5.4103,5.4103,5.4995,5.5741,5.5741,5.6317,5.6797,5.684,5.6872,5.7172,5.79,5.8345,5.8896,5.9588,6.0043,6.0459,6.0912,6.0953,6.0953,6.0953,5.9661,5.8866,5.8833,5.8833,5.8469,5.774,5.7707,5.7376,5.668,5.668,5.668,5.668,5.668,5.668,4.1588,4.1588,4.1683,4.2157,0.0,0.0,0.0,0.0,0.0,0.0,0.0,0.0,0.0,0.0,4.911,4.9805,4.9892,4.9892,4.9892,4.9892,4.9892,4.9892,4.9892,4.9892,4.9892,4.9892,4.9892,4.9892,4.9892,4.9892,4.9892,4.9892,4.9892,4.9892,4.9892,4.9892,4.9892,4.9892,4.9892,4.9892,4.9892,5.001,5.0097,4.9971,5.001,5.0097,4.9971,4.9892,4.9892,4.9892,4.9892,4.9892,4.9892,4.9892,4.9892,4.9892,4.9892,4.9892,4.9892,4.9892,4.9892,4.9892,4.9892,5.0058,5.0753,5.1259,5.1828,5.2839,5.3408,5.3724,5.3724,5.3913,5.4103,5.4103,5.4103,5.4103,5.4103,5.4103,5.4229,5.464,5.5087,5.5534,5.5978,5.6613,5.7179,5.7457,5.7884,5.8357,5.8956,5.9176,5.9523,6.0087,6.0581,6.0877,6.1077,6.1119,6.1119,6.1119,6.0589,6.0059,5.9595,5.9595,5.9231,5.8502,5.8469,5.8336,5.8071,5.7608,5.7376,5.7376,5.6912,5.668,4.1588,4.1588,4.1778,0.0,0.0,0.0,0.0,0.0,0.0,0.0,0.0,0.0,0.0,0.0,0.0,0.0,4.9892,4.9892,4.9892,4.9892,4.9892,4.9892,4.9892,4.9892,4.9892,4.9892,4.9892,4.9892,4.9892,4.9892,4.9892,4.9892,4.9892,4.9892,4.9892,4.9892,4.9892,4.9892,4.9892,4.9892,4.9892,4.9892,4.9892,4.9892,4.9892,4.9892,4.9892,4.9892,4.9892,4.9892,4.9892,4.9892,4.9892,4.9892,4.9892,4.9892,4.9892,4.9892,4.9892,4.9892,4.9892,4.9892,5.0089,5.0374,5.1101,5.1796,5.2523,5.3218,5.3755,5.4103,5.4103,5.4103,5.4103,5.4103,5.4103,5.4103,5.4103,5.4261,5.4577,5.5007,5.5449,5.5891,5.6441,5.7105,5.7684,5.7968,5.8459,5.8914,5.9229,5.9241,5.9508,6.012,6.0623,6.0919,6.1077,6.1119,6.1119,6.1119,6.1119,6.0887,6.0357,6.0357,5.9993,5.9264,5.9264,5.9131,5.8899,5.8403,5.8138,5.8138,5.7608,5.7243,4.1588,4.1588,0.0,0.0,0.0,0.0,0.0,0.0,0.0,0.0,0.0,0.0,0.0,0.0,0.0,4.9892,4.9892,4.9892,4.9892,4.9892,4.9892,4.9892,4.9892,4.9892,4.9892,4.9892,4.9892,4.9892,4.9892,4.9892,4.9892,4.9892,4.9892,4.9892,4.9892,4.9892,4.9892,4.9892,4.9892,4.9892,4.9892,4.9892,4.9892,4.9892,4.9892,4.9892,4.9892,4.9892,4.9892,4.9892,4.9892,4.9892,4.9892,4.9892,4.9892,4.9892,4.9892,4.9892,4.9892,4.9892,4.9892,4.9892,5.0405,5.1141,5.1796,5.2523,5.325,5.3913,5.4103,5.4103,5.4103,5.4103,5.4103,5.4103,5.4103,5.4103,5.4103,5.464,5.5102,5.5102,5.6239,5.7231,5.7231,5.78,5.8321,5.8321,5.8321,5.8321,5.8321,5.8321,5.8687,5.9584,6.0076,6.0581,6.1077,6.1119,6.1119,6.1119,6.1119,6.1119,6.1119,6.1119,6.0755,6.0026,6.0026,5.9661,5.8933,5.8899,5.8899,5.8899,5.8899,5.8502,4.1588,0.0,0.0,0.0,0.0,0.0,0.0,0.0,0.0,0.0,0.0,0.0,4.9489,0.0,0.0,4.9892,4.9892,4.9892,4.9892,4.9892,4.9892,4.9892,4.9892,4.9892,4.9892,4.9892,4.9892,4.9892,4.9892,4.9892,4.9892,4.9892,4.9892,4.9892,4.9892,4.9892,4.9892,4.9892,4.9892,4.9892,4.9892,4.9892,4.9892,4.9892,4.9892,4.9892,4.9892,4.9892,4.9892,4.9892,4.9892,4.9892,4.9892,4.9892,4.9892,4.9892,4.9892,4.9892,4.9892,4.9892,4.9995,5.05,5.0816,5.1236,5.2428,5.2934,5.325,5.3913,5.4103,5.4103,5.4103,5.4103,5.4103,5.4103,5.4103,5.4229,5.4703,5.4944,5.5386,5.6365,5.6902,5.7358,5.7864,5.8148,5.8321,5.8321,5.8321,5.8321,5.8321,5.8596,5.8914,5.9184,5.964,5.999,6.012,6.042,6.0623,6.0623,6.0919,6.1119,6.1119,6.1119,6.102,6.0788,6.0788,6.0688,6.0456,5.9926,5.9661,5.9661,5.9131,5.8767,4.1588,0.0,0.0,0.0,0.0,0.0,0.0,0.0,0.0,0.0,0.0,4.9078,4.9805,4.9892,0.0,4.9892,4.9892,4.9892,4.9892,4.9892,4.9892,4.9892,4.9892,4.9892,4.9892,4.9892,4.9892,4.9892,4.9892,4.9892,4.9892,4.9892,4.9892,4.9892,4.9892,4.9892,4.9892,4.9892,4.9892,4.9892,4.9892,4.9892,4.9892,4.9892,4.9892,4.9892,4.9892,4.9892,4.9892,4.9892,4.9892,4.9892,4.9892,4.9892,4.9892,4.9892,4.9892,4.9892,4.9892,4.9892,5.0026,5.0753,5.1204,5.1606,5.2744,5.3281,5.3597,5.3976,5.4103,5.4103,5.4103,5.4103,5.4103,5.4103,5.4292,5.464,5.5007,5.5513,5.6176,5.7073,5.7453,5.7769,5.8257,5.8321,5.8321,5.8321,5.8321,5.8321,5.8321,5.8733,5.9004,5.9004,5.9419,5.9772,5.9946,6.0249,6.0496,6.0666,6.0919,6.1119,6.1119,6.1119,6.1119,6.1119,6.1119,6.1119,6.1119,6.0655,6.0456,6.0423,5.9993,5.9628,4.1621,0.0,0.0,0.0,0.0,0.0,0.0,0.0,4.7119,4.7846,0.0,4.9173,4.9805,4.9892,4.9892,4.9892,4.9892,4.9892,4.9892,4.9892,4.9892,4.9892,4.9892,4.9892,4.9892,4.9892,4.9892,4.9892,4.9892,4.9892,4.9892,4.9892,4.9892,4.9892,4.9892,4.9892,4.9892,4.9892,4.9892,4.9892,4.9892,4.9892,4.9892,4.9892,4.9892,4.9892,4.9892,4.9892,4.9892,4.9892,4.9892,4.9892,4.9892,4.9892,4.9892,4.9892,4.9892,4.9892,4.9892,4.9923,5.0121,5.0848,5.1543,5.2238,5.2965,5.3629,5.4103,5.4103,5.4103,5.4103,5.4103,5.4134,5.4198,5.4198,5.4672,5.5134,5.526,5.6315,5.7231,5.7295,5.7832,5.8321,5.8321,5.8321,5.8321,5.8321,5.8321,5.8321,5.8321,5.8687,5.8959,5.8959,5.9331,5.9772,6.0163,6.0249,6.0463,6.0919,6.1002,6.1077,6.1119,6.1119,6.1119,6.1119,6.1119,6.1119,6.1119,6.1119,6.1119,6.1119,6.1119,6.0755,0.0,4.1785,0.0,0.0,0.0,0.0,0.0,4.6866,4.7846,4.8541,4.9205,4.9742,4.986,4.9892,4.9892,4.9892,4.9892,4.9892,4.9892,4.9892,4.9892,4.9892,4.9892,4.9892,4.9892,4.9892,4.9892,4.9892,4.9892,4.9892,4.9892,4.9892,4.9892,4.9892,4.9892,4.9892,4.9892,4.9892,4.9892,4.9892,4.9892,4.9892,4.9892,4.9892,4.9892,4.9892,4.9892,4.9892,4.9892,4.9892,4.9892,4.9892,4.9892,4.9892,4.9892,4.9892,4.9892,4.9892,4.9892,5.0279,5.0879,5.1575,5.227,5.2997,5.3692,5.3976,5.4103,5.4103,5.4103,5.4103,5.4103,5.4514,5.4849,5.4849,5.4976,5.5386,5.6491,5.701,5.739,5.7927,5.818,5.8321,5.8321,5.8321,5.8321,5.8321,5.8321,5.8321,5.8321,5.8413,5.8459,5.8459,5.855,5.861,5.8746,5.9062,5.9508,5.999,6.0335,6.0708,6.1077,6.1119,6.1119,6.1119,6.1119,6.1119,6.1119,6.1119,6.1119,6.1119,6.1119,6.102,0.0,0.0,0.0,0.0,0.0,0.0,0.0,4.6613,4.7561,4.8256,4.9205,4.9892,4.9892,4.9892,4.9892,4.9892,4.9892,4.9892,4.9892,4.9892,4.9892,4.9892,4.9892,4.9892,4.9892,4.9892,4.9892,4.9892,4.9892,4.9892,4.9892,4.9892,4.9892,4.9892,4.9892,4.9892,4.9892,4.9892,4.9892,4.9892,4.9892,4.9892,4.9892,4.9892,4.9892,4.9892,4.9892,4.9892,4.9892,4.9892,4.9892,4.9892,4.9892,4.9892,4.9892,4.9892,4.9892,4.9963,5.0311,5.0658,5.1173,5.2207,5.2807,5.325,5.3913,5.4103,5.4103,5.4103,5.4103,5.4166,5.4514,5.4818,5.526,5.5923,5.6081,5.6302,5.7028,5.7484,5.7832,5.8257,5.8321,5.8321,5.8321,5.8321,5.8321,5.8321,5.8321,5.8321,5.8321,5.8321,5.8321,5.8321,5.8321,5.8413,5.8642,5.8869,5.9197,5.9684,6.0163,6.0506,6.075,6.0961,6.1119,6.1119,6.1119,6.1119,6.1119,6.1119,6.1119,6.1119,6.1119,6.1119,0.0,0.0,0.0,0.0,0.0,0.0,4.5634,4.6329,4.6992,4.7751,4.8889,4.9773,4.99,4.9892,4.9892,4.9892,4.9892,4.9892,4.9892,4.9892,4.9892,4.9892,4.9892,4.9892,4.9892,4.9892,4.9892,4.9892,4.9892,4.9892,4.9892,4.9892,4.9892,4.9892,4.9892,4.9892,4.9892,4.9892,4.9892,4.9892,4.9892,4.9892,4.9892,4.9892,4.9892,4.9892,4.9892,4.9892,4.9892,4.9892,4.9892,4.9892,4.9892,4.9892,4.9892,4.9892,4.9892,5.0026,5.0721,5.111,5.1385,5.2681,5.3186,5.3376,5.3913,5.4103,5.4103,5.4103,5.4198,5.4419,5.4944,5.526,5.5734,5.6947,5.7326,5.739,5.739,5.7864,5.8321,5.8321,5.8321,5.8321,5.8321,5.8321,5.8321,5.8321,5.8415,5.8464,5.8464,5.8559,5.8668,5.8668,5.8668,5.8807,5.922,5.9311,5.955,6.004,6.0478,6.0814,6.09,6.1141,6.1285,6.1285,6.1185,6.1119,6.1119,6.1119,6.1119,6.1119,6.1119,6.1119,0.0,0.0,0.0,0.0,0.0,0.0,0.0,0.0,4.6992,0.0,4.8509,4.9205,4.9805,4.9892,4.9892,4.9892,4.9892,4.9892,4.9892,4.9892,4.9892,4.9892,4.9892,4.9892,4.9892,4.9892,4.9892,4.9892,4.9892,4.9892,4.9892,4.9892,4.9892,4.9892,4.9892,4.9892,4.9892,4.9892,4.9892,4.9892,4.9892,4.9892,4.9892,4.9892,4.9892,4.9892,4.9892,4.9892,4.9892,4.9892,4.9892,4.9892,4.9892,4.9892,4.9892,4.9892,4.9892,5.0026,5.0721,5.1353,5.2017,5.2839,5.3502,5.3976,5.4071,5.4103,5.4103,5.4103,5.4514,5.4976,5.507,5.5986,5.6979,5.7168,5.7674,5.8116,5.8116,5.8211,5.8321,5.8321,5.8321,5.8321,5.8321,5.8321,5.8321,5.8321,5.878,5.9159,5.9159,5.9665,6.0012,6.0012,6.0012,6.006,6.0107,6.0531,6.1028,6.1485,6.2012,6.2497,6.2888,6.2378,6.2056,6.2056,6.1417,6.1119,6.1119,6.1119,6.1119,6.1119,6.1119,6.1119,4.1654,0.0,0.0,0.0,0.0,4.4429,4.557,0.0,4.6455,4.715,4.7846,4.8667,4.971,4.9892,4.9892,4.9892,4.9892,4.9892,4.9892,4.9892,4.9892,4.9892,4.9892,4.9892,4.9892,4.9892,4.9892,4.9892,4.9892,4.9892,4.9892,4.9892,4.9892,4.9892,4.9892,4.9892,4.9892,4.9892,4.9892,4.9892,4.9892,4.9892,4.9892,4.9892,4.9892,4.9892,4.9892,4.9892,4.9892,4.9892,4.9892,4.9892,4.9892,4.9892,4.9892,4.9892,5.0184,5.0627,5.1322,5.2017,5.2744,5.3439,5.385,5.4103,5.4103,5.4103,5.4103,5.4103,5.4609,5.5197,5.562,5.6473,5.7326,5.7706,5.8053,5.8321,5.8321,5.8321,5.8321,5.8321,5.8321,5.8321,5.8321,5.859,5.8843,5.8843,5.9412,5.9854,5.9854,6.0107,6.0297,6.0297,6.0297,6.0297,6.0297,6.0535,6.0865,6.1377,6.1867,6.2362,6.2881,6.2845,6.2818,6.2818,6.1682,6.1119,6.1119,6.1119,6.1119,6.1119,6.1119,6.1119,0.0,0.0,0.0,4.3137,4.3579,4.4022,0.0,0.0,4.6013,0.0,4.7245,4.7972,4.9173,4.9639,4.9892,4.9892,4.9892,4.9892,4.9892,4.9892,4.9892,4.9892,4.9892,4.9892,4.9892,4.9892,4.9892,4.9892,4.9892,4.9892,4.9892,4.9892,4.9892,4.9892,4.9892,4.9892,4.9892,4.9892,4.9892,4.9892,4.9892,4.9892,4.9892,4.9892,4.9892,4.9892,4.9892,4.9892,4.9892,4.9892,4.9892,4.9892,4.9892,4.9892,4.9892,4.9892,5.0374,5.111,5.1764,5.2491,5.3218,5.3882,5.4103,5.4103,5.4103,5.4103,5.4134,5.4324,5.4861,5.5557,5.6283,5.6947,5.7611,5.8148,5.8321,5.8321,5.8321,5.8321,5.8321,5.8321,5.8321,5.8384,5.8496,5.897,5.938,5.9538,6.0139,6.0581,6.0581,6.0739,6.0834,6.0834,6.0834,6.0834,6.0834,6.0978,6.1218,6.1596,6.2202,6.2737,6.3129,6.3419,6.3614,6.3614,6.2312,6.1583,6.1384,6.1384,6.1285,6.1119,6.1119,6.1119,0.0,0.0,0.0,4.2537,0.0,0.0,0.0,0.0,4.6013,4.6645,4.6834,4.7087,4.7846,4.9047,4.9892,4.9892,4.9892,4.9892,4.9892,4.9892,4.9892,4.9892,4.9892,4.9892,4.9892,4.9892,4.9892,4.9892,4.9892,4.9892,4.9892,4.9892,4.9892,4.9892,4.9892,4.9892,4.9892,4.9892,4.9892,4.9892,4.9892,4.9892,4.9892,4.9892,4.9892,4.9892,4.9892,4.9892,4.9892,4.9892,4.9892,4.9892,4.9892,4.9892,4.9892,4.9892,5.0374,5.111,5.1764,5.2491,5.3218,5.3882,5.4103,5.4103,5.4103,5.4103,5.4229,5.4849,5.5588,5.6283,5.6979,5.7674,5.8257,5.8321,5.8321,5.8321,5.8321,5.8321,5.8321,5.8321,5.8321,5.8464,5.9128,5.9286,5.9538,6.0139,6.0866,6.134,6.134,6.1909,6.227,6.227,6.227,6.227,6.227,6.2729,6.3068,6.3116,6.4017,6.4571,6.4571,6.4442,6.4332,6.4332,6.3614,6.2851,6.2155,6.2155,6.1748,6.1119,6.1119,6.1119,0.0,0.0,0.0,4.2505,4.2884,4.3327,4.4464,4.4907,4.5317,4.6013,4.6518,4.6866,4.715,4.832,4.9268,4.9268,4.9647,4.9892,4.9892,4.9892,4.9892,4.9892,4.9892,4.9892,4.9892,4.9892,4.9892,4.9892,4.9892,4.9892,4.9892,4.9892,4.9892,4.9892,4.9892,4.9892,4.9892,4.9892,4.9892,4.9892,4.9892,4.9892,4.9892,4.9892,4.9892,4.9892,4.9892,4.9892,4.9892,4.9892,4.9892,4.9892,4.9892,4.9892,4.9955,5.0437,5.1037,5.1733,5.246,5.3155,5.3787,5.4008,5.4103,5.4103,5.4103,5.4419,5.4798,5.5007,5.5923,5.6915,5.7168,5.7737,5.8321,5.8321,5.8321,5.8321,5.8321,5.8321,5.8321,5.8321,5.8622,5.9001,5.9254,6.0044,6.0739,6.0961,6.1593,6.2067,6.2067,6.2238,6.2396,6.2396,6.2396,6.2396,6.2396,6.2562,6.2856,6.3164,6.3548,6.402,6.4702,6.4622,6.4716,6.5061,6.4796,6.4067,6.2917,6.2917,6.2553,6.1781,6.1781,6.155,0.0,0.0,0.0,0.0,0.0,4.2979,4.4117,0.0,4.4907,4.5665,4.6171,4.6455,4.6455,4.7403,4.8256,4.8509,4.9141,4.9584,4.9584,4.9773,4.9892,4.9892,4.9892,4.9892,4.9892,4.9892,4.9892,4.9892,4.9892,4.9892,4.9892,4.9892,4.9892,4.9892,4.9892,4.9892,4.9892,4.9892,4.9892,4.9892,4.9892,4.9892,4.9892,4.9892,4.9892,4.9892,4.9892,4.9892,4.9892,4.9892,4.9892,4.9892,4.9892,5.0058,5.0342,5.0816,5.1575,5.246,5.2934,5.3534,5.4103,5.4103,5.4103,5.4103,5.4103,5.4577,5.5134,5.543,5.6315,5.7263,5.7516,5.7927,5.8321,5.8321,5.8321,5.8321,5.8321,5.8321,5.8384,5.8559,5.9001,5.9444,5.9918,6.0771,6.1466,6.1719,6.213,6.2396,6.2396,6.2396,6.2396,6.2396,6.2396,6.2396,6.2396,6.2562,6.2808,6.3164,6.35,6.3973,6.4702,6.4885,6.5111,6.5381,6.5425,6.4929,6.4001,6.3769,6.3315,6.2586,6.2586,6.2146,0.0,0.0,0.0,0.0,0.0,0.0,4.3548,0.0,4.4875,4.5634,4.5792,4.5792,4.5823,4.6329,4.6992,4.7719,4.8415,4.8857,4.8857,4.9457,4.986,4.986,4.986,4.9892,4.9892,4.9892,4.9892,4.9892,4.9892,4.9892,4.9892,4.9892,4.9892,4.9892,4.9892,4.9892,4.9892,4.9892,4.9892,4.9892,4.9892,4.9892,4.9892,4.9892,4.9892,4.9892,4.9892,4.9892,4.9892,4.9892,4.9892,4.9892,4.9892,5.0342,5.1015,5.1046,5.1891,5.3123,5.3123,5.3566,5.4103,5.4103,5.4103,5.4103,5.4134,5.4609,5.526,5.5999,5.6726,5.7421,5.8085,5.8321,5.8321,5.8321,5.8321,5.8321,5.8352,5.8352,5.8496,5.9159,5.9349,5.9791,6.115,6.1403,6.1656,6.227,6.2396,6.2396,6.2396,6.2396,6.2396,6.2396,6.2396,6.2396,6.2396,6.2905,6.3196,6.3196,6.4114,6.4656,6.4702,6.5156,6.5381,6.5425,6.5425,6.5425,6.5425,6.473,6.4034,6.3348,6.3315,6.2951,4.1588,0.0,0.0,0.0,0.0,0.0,0.0,0.0,4.3579,4.478,4.5001,4.5191,4.5728,4.595,4.6139,4.636,4.7403,4.8162,4.8162,4.8731,4.9173,4.9173,4.9615,4.9892,4.9892,4.9892,4.9892,0.0,4.9892,4.9892,4.9892,4.9892,4.9892,4.9892,4.9892,4.9892,4.9892,4.9892,4.9892,4.9892,4.9892,4.9892,4.9892,4.9892,4.9892,4.9892,4.9892,4.9892,4.9892,4.9892,4.9892,4.9892,4.9892,5.0342,5.1078,5.1543,5.2302,5.3186,5.366,5.3945,5.4103,5.4103,5.4103,5.4198,5.4703,5.5335,5.6031,5.6726,5.7453,5.8022,5.8257,5.8321,5.8321,5.8321,5.8321,5.8401,5.8906,5.9033,5.9064,5.9254,6.0139,6.0929,6.134,6.1814,6.2225,6.2365,6.2396,6.2396,6.2396,6.2396,6.2396,6.2396,6.2396,6.2396,6.2396,6.2513,6.2612,6.2612,6.3244,6.3785,6.4114,6.4623,6.5033,6.5381,6.5425,6.5425,6.5425,6.5227,6.4763,6.4067,6.358,6.3216,0.0,0.0,0.0,0.0,0.0,0.0,4.2505,4.2695,4.3074,4.4433,4.4717,4.4938,4.5665,4.5823,4.5823,4.5823,4.6487,4.7119,4.7403,4.8035,4.8478,4.8478,4.9078,4.9489,4.9489,4.9742,4.9892,4.9892,4.9892,4.9892,4.9892,4.9892,4.9892,4.9892,4.9892,4.9892,4.9892,4.9892,4.9892,4.9892,4.9892,4.9892,4.9892,4.9892,4.9892,4.9892,4.9892,4.9892,4.9892,4.9892,4.9892,4.9923,5.0247,5.0785,5.148,5.2207,5.2934,5.3566,5.3976,5.4103,5.4103,5.4103,5.4103,5.4229,5.4881,5.562,5.6315,5.701,5.7737,5.8321,5.8321,5.8321,5.8321,5.8321,5.8496,5.8812,5.9222,5.976,6.017,6.017,6.0834,6.1498,6.1782,6.2161,6.2396,6.2396,6.2396,6.2396,6.2396,6.2396,6.2396,6.2396,6.2396,6.2396,6.2396,6.2612,6.271,6.271,6.3404,6.3926,6.4207,6.4715,6.5111,6.5381,6.5425,6.5425,6.5425,6.5425,6.5194,6.4796,6.4365,6.4001,0.0,0.0,0.0,0.0,0.0,0.0,4.241,4.2568,4.2916,4.4211,4.4496,4.4717,4.5539,4.5697,4.5728,4.5792,4.5823,4.6013,4.6687,4.7346,4.7782,4.7858,4.8421,4.8832,4.8966,4.9497,4.9837,4.9939,4.9971,4.9971,4.9892,4.9971,4.9971,4.9892,4.9892,4.9892,4.9892,4.9892,4.9892,4.9892,4.9892,4.9892,4.9892,4.9892,4.9892,4.9892,4.9892,4.9892,4.9892,4.9892,4.9892,4.9955,5.069,5.1385,5.2112,5.2839,5.3534,5.4103,5.4103,5.4103,5.4103,5.4103,5.4134,5.4356,5.5051,5.5746,5.6441,5.7137,5.78,5.8321,5.8321,5.8321,5.8321,5.8321,5.8812,5.9317,5.9412,6.0455,6.1403,6.1498,6.1498,6.1719,6.227,6.2396,6.2396,6.2396,6.2396,6.2396,6.2396,6.2396,6.2396,6.2396,6.2396,6.2396,6.2396,6.2856,6.3116,6.3116,6.402,6.4564,6.461,6.5066,6.5381,6.5425,6.5425,6.5425,6.5425,6.5425,6.5425,6.5425,6.5425,6.5094,0.0,0.0,0.0,0.0,0.0,0.0,4.1778,4.181,4.2031,4.2916,4.3074,4.3453,4.4685,4.4938,4.5128,4.5728,4.5823,4.5932,4.6351,4.6734,4.7136,4.7467,4.7844,4.8441,4.9323,4.9208,4.9455,5.0338,5.037,5.0253,4.9931,5.0214,5.0214,4.9931,4.9892,4.9892,4.9892,4.9892,4.9892,4.9892,4.9892,4.9892,4.9892,4.9892,4.9892,4.9892,4.9892,4.9892,4.9892,4.9892,4.9892,4.9955,5.069,5.1385,5.2112,5.2839,5.3534,5.4103,5.4103,5.4103,5.4103,5.4103,5.4482,5.5051,5.5778,5.6473,5.7168,5.7864,5.818,5.8321,5.8321,5.8321,5.8321,5.8321,5.8812,5.9444,5.9981,6.0803,6.1561,6.213,6.2225,6.2238,6.2365,6.2396,6.2396,6.2396,6.2396,6.2396,6.2396,6.2396,6.2396,6.2396,6.2396,6.2396,6.2396,6.2464,6.2562,6.2562,6.3148,6.3643,6.4035,6.4531,6.5021,6.5381,6.5425,6.5425,6.5425,6.5425,6.5425,6.5425,6.5425,6.5326,0.0,0.0,0.0,4.1588,0.0,0.0,0.0,4.1189,4.131,4.1752,4.205,4.257,4.3604,4.3823,4.4114,4.5092,4.5002,4.52,4.6166,4.6298,4.637,4.6584,4.7041,4.7616,4.8376,4.839,4.8859,4.9911,5.0524,5.0717,5.0525,5.0525,5.0409,5.0214,4.9979,4.9892,4.9892,4.9892,4.9892,4.9892,4.9892,4.9892,4.9892,4.9892,4.9892,4.9892,4.9892,4.9892,4.9892,4.9892,5.0121,5.0532,5.1227,5.1922,5.2649,5.3344,5.3818,5.4103,5.4103,5.4103,5.4166,5.4514,5.4861,5.5291,5.6378,5.72,5.7832,5.8226,5.8321,5.8321,5.8321,5.8321,5.8369,5.8717,5.9317,5.9981,6.0708,6.1403,6.2003,6.2302,6.2396,6.2396,6.2396,6.2396,6.2396,6.2396,6.2396,6.2396,6.2396,6.2396,6.2396,6.2396,6.2396,6.2396,6.2396,6.2661,6.2808,6.2808,6.326,6.3785,6.43,6.4531,6.493,6.5381,6.5425,6.5425,6.5425,6.5425,6.5425,6.5425,6.5425,6.5425,0.0,0.0,0.0,0.0,0.0,4.1323,0.0,0.0,0.0,4.0792,4.1238,4.1841,0.0,0.0,0.0,4.4189,0.0,0.0,0.0,4.5619,0.0,4.59,4.6375,4.6902,4.7461,4.8004,4.8592,4.9323,5.0451,5.1065,5.1022,5.0755,5.0602,5.0525,5.0097,4.9892,4.9892,4.9892,4.9892,4.9892,4.9892,4.9892,4.9892,4.9892,4.9892,4.9892,4.9892,4.9892,4.9892,5.0058,5.0532,5.1227,5.1796,5.246,5.3186,5.385,5.4103,5.4103,5.4103,5.4103,5.4198,5.4849,5.526,5.5734,5.7042,5.7832,5.8321,5.8321,5.8321,5.8321,5.8321,5.8415,5.8622,5.9159,5.9918,6.0676,6.1277,6.194,6.2396,6.2396,6.2396,6.2396,6.2396,6.2396,6.2396,6.2396,6.2396,6.2396,6.2396,6.2396,6.2396,6.2396,6.2396,6.2396,6.2396,6.2905,6.3212,6.3212,6.3643,6.4161,6.4702,6.4793,6.5021,6.5381,6.5425,6.5425,6.5425,6.5425,6.5425,6.5425,6.5425,6.5425,0.0,0.0,0.0,0.0,4.1256,0.0,4.0783,0.0,3.999,4.0046,0.0,0.0,0.0,0.0,0.0,0.0,0.0,0.0,4.3261,4.4149,4.5172,4.6131,4.6294,4.676,4.7826,4.9083,4.9593,4.9043,5.03,5.0914,5.0602,5.0838,5.087,5.0525,5.0097,4.9892,4.9892,4.9892,4.9892,4.9892,4.9892,4.9892,4.9892,4.9892,4.9892,4.9892,4.9892,4.9892,4.9963,5.0595,5.1259,5.1891,5.1986,5.246,5.3186,5.385,5.4103,5.4103,5.4103,5.4103,5.4198,5.4849,5.5923,5.7137,5.7927,5.8211,5.8321,5.8321,5.8321,5.8321,5.8321,5.8717,5.9222,5.9286,6.0297,6.1308,6.1371,6.194,6.2396,6.2396,6.2396,6.2396,6.2396,6.2396,6.2396,6.2396,6.2396,6.2396,6.2396,6.2396,6.2396,6.2396,6.2396,6.2396,6.2396,6.2905,6.3212,6.3212,6.3643,6.4161,6.4702,6.5111,6.5336,6.5425,6.5425,6.5425,6.5425,6.5425,6.5425,6.5425,6.5425,6.5425,0.0,0.0,0.0,0.0,0.0,0.0,3.995,0.0,3.9313,0.0,0.0,0.0,0.0,0.0,0.0,0.0,4.1812,0.0,0.0,0.0,4.4405,4.5278,0.0,0.0,4.6674,4.8035,4.8921,4.901,5.0168,5.1084,5.1582,5.1285,5.0989,5.0838,5.0214,4.9892,4.9892,4.9892,4.9892,4.9892,4.9892,4.9892,4.9892,4.9892,4.9892,4.9892,4.9892,4.9892,4.9955,5.069,5.1385,5.2049,5.2491,5.306,5.3724,5.4008,5.4103,5.4103,5.4103,5.4356,5.4893,5.5955,5.701,5.7895,5.8226,5.8321,5.8321,5.8321,5.8321,5.8321,5.8321,5.878,5.9412,5.9791,6.0645,6.1498,6.1909,6.2225,6.2396,6.2396,6.2396,6.2396,6.2396,6.2396,6.2396,6.2396,6.2396,6.2396,6.2396,6.2396,6.2396,6.2396,6.2396,6.2396,6.2396,6.3116,6.3643,6.3643,6.4347,6.4761,6.4702,6.5156,6.5425,6.5425,6.5425,6.5425,6.5425,6.5425,6.5425,6.5425,6.5425,6.5425,4.2742,0.0,0.0,0.0,0.0,0.0,0.0,0.0,0.0,0.0,0.0,0.0,0.0,0.0,0.0,0.0,0.0,4.1082,0.0,4.2949,0.0,0.0,0.0,0.0,0.0,4.7081,4.8045,4.8598,4.9834,5.091,5.172,5.1336,5.1027,5.0914,5.0253,4.9892,4.9892,5.001,5.001,4.9892,4.9979,5.001,4.9892,4.9892,4.9892,4.9892,4.9892,5.0026,5.0279,5.0974,5.167,5.2365,5.3092,5.366,5.4103,5.4103,5.4103,5.4103,5.4103,5.4672,5.562,5.6821,5.7706,5.8321,5.8321,5.8321,5.8321,5.8321,5.8321,5.8352,5.8496,5.9064,5.976,6.0423,6.115,6.1814,6.227,6.2396,6.2396,6.2396,6.2396,6.2396,6.2396,6.2396,6.2396,6.2396,6.2396,6.2396,6.2396,6.2396,6.2396,6.2396,6.2396,6.2396,6.2396,6.3212,6.3832,6.4081,6.4806,6.5111,6.493,6.5246,6.5425,6.5425,6.5425,6.5425,6.5425,6.5425,6.5425,6.5425,6.5425,6.5425,0.0,0.0,0.0,4.1218,0.0,0.0,0.0,0.0,3.824,0.0,0.0,0.0,0.0,0.0,0.0,0.0,0.0,0.0,0.0,0.0,0.0,0.0,0.0,0.0,0.0,4.6973,4.7421,4.7421,4.9107,5.0172,5.0168,5.0746,5.0914,5.0525,5.0097,4.9892,4.9892,5.0292,5.0292,4.9931,5.0292,5.0292,4.9892,4.9892,4.9892,4.9892,4.9892,5.0311,5.1046,5.1701,5.2396,5.3123,5.3818,5.4071,5.4103,5.4103,5.4103,5.4103,5.4103,5.4988,5.6283,5.6979,5.7706,5.8321,5.8321,5.8321,5.8321,5.8321,5.8321,5.8432,5.9096,5.976,6.0455,6.1182,6.1877,6.2365,6.2396,6.2396,6.2396,6.2396,6.2396,6.2396,6.2396,6.2396,6.2396,6.2396,6.2396,6.2396,6.2396,6.2396,6.2396,6.2396,6.2396,6.2396,6.2396,6.2905,6.3643,6.461,6.4702,6.493,6.5381,6.5381,6.5425,6.5425,6.5425,6.5425,6.5425,6.5425,6.5425,6.5425,6.5425,6.5425,0.0,0.0,4.3118,4.1876,0.0,0.0,0.0,0.0,0.0,0.0,0.0,0.0,0.0,0.0,0.0,0.0,0.0,0.0,0.0,0.0,0.0,0.0,0.0,0.0,0.0,4.6095,4.6984,4.7752,4.9014,5.0085,5.0826,5.1332,5.1359,5.0908,5.0525,5.0292,5.0292,5.0175,5.0175,5.0292,5.0175,5.0018,4.9931,5.0175,5.0136,4.9931,5.0175,5.0549,5.1078,5.1733,5.2428,5.3186,5.385,5.4103,5.4103,5.4103,5.4103,5.4229,5.5146,5.6094,5.6979,5.7674,5.8085,5.8321,5.8321,5.8321,5.8321,5.8321,5.859,5.9001,5.9254,6.017,6.1087,6.134,6.1909,6.2396,6.2396,6.2396,6.2396,6.2396,6.2396,6.2396,6.2396,6.2396,6.2396,6.2396,6.2396,6.2396,6.2396,6.2396,6.2396,6.2396,6.2396,6.2396,6.2396,6.2905,6.3643,6.4656,6.4702,6.493,6.5381,6.5425,6.5425,6.5425,6.5425,6.5425,6.5425,6.5425,6.5425,6.5425,6.5425,6.5425,4.4813,4.4427,0.0,4.2578,4.2295,0.0,4.0733,0.0,4.0363,0.0,0.0,0.0,0.0,0.0,0.0,0.0,0.0,0.0,0.0,4.1256,0.0,0.0,0.0,0.0,0.0,4.5553,4.6483,4.7682,4.8903,4.9902,5.0676,5.1382,5.154,5.0908,5.0761,5.064,5.0525,5.037,5.0448,5.0717,5.0448,5.0331,5.0331,5.0602,5.0486,5.0168,5.0664,5.1168,5.1669,5.2327,5.3057,5.3756,5.4168,5.4274,5.4103,5.4103,5.4261,5.464,5.5778,5.6631,5.7326,5.8053,5.8321,5.8321,5.8321,5.8321,5.8384,5.8559,5.897,5.9412,5.9918,6.0708,6.1466,6.1719,6.2098,6.2396,6.2396,6.2396,6.2396,6.2396,6.2396,6.2396,6.2396,6.2396,6.2396,6.2396,6.2396,6.2396,6.2396,6.2396,6.2396,6.2396,6.2396,6.2464,6.2661,6.3164,6.3832,6.4656,6.4702,6.493,6.5381,6.5425,6.579,6.6552,6.5823,6.579,6.6585,6.579,6.5425,6.5425,6.5425,6.5425]}]]